[[{"header":{"parameterUnit":"m.s-1","parameterCategory":1,"la1":30.6,"la2":29.2853,"lo1":-89.7004,"lo2":-87.6739,"dy":0.0162,"dx":0.0183,"nx":112,"ny":82,"refTime":"2024-03-22T00:00:00:Z","depth":0,"parameterNumber":2,"parameterNumberName":"U-component_of_WINDS"},"data":[0.0,0.0,0.0,0.0,0.0,0.0,0.0,0.0,0.0,0.0,0.0,0.0,0.0,0.0,0.0,0.0,0.0,0.0,0.0,0.0,0.0,0.0,0.0,0.0,0.0,0.0,0.0,0.0,0.0,0.0,0.0,0.0,0.0,0.0,0.0,0.0,0.0,0.0,0.0,0.0,0.0,0.0,0.0,0.0,0.0,0.0,0.0,0.0,0.0,0.0,0.0,0.0,0.0,0.0,0.0,0.0,0.0,0.0,0.0,0.0,0.0,0.0,0.0,0.0,0.0,0.0,0.0,0.0,0.0,0.0,0.0,0.0,0.0,0.0,0.0,0.0,0.0,0.0,0.0,0.0,0.0,0.0,0.0,0.0,0.0,0.0,0.0,0.0,0.0,0.0,-7.0232,-7.1197,-7.1002,-7.0834,-7.0929,-7.0724,-7.0209,-6.9234,0.0,0.0,0.0,0.0,0.0,0.0,0.0,0.0,0.0,0.0,0.0,0.0,0.0,0.0,0.0,0.0,0.0,0.0,0.0,0.0,0.0,0.0,0.0,0.0,0.0,0.0,0.0,0.0,0.0,0.0,0.0,0.0,0.0,0.0,0.0,0.0,0.0,0.0,0.0,0.0,0.0,0.0,0.0,0.0,0.0,0.0,0.0,0.0,0.0,0.0,0.0,0.0,0.0,0.0,0.0,0.0,0.0,0.0,0.0,0.0,0.0,0.0,0.0,0.0,0.0,0.0,0.0,0.0,0.0,0.0,0.0,0.0,0.0,0.0,0.0,0.0,0.0,0.0,0.0,0.0,0.0,0.0,0.0,0.0,0.0,0.0,0.0,0.0,0.0,0.0,0.0,0.0,0.0,0.0,0.0,0.0,0.0,0.0,0.0,0.0,0.0,0.0,0.0,0.0,-7.0439,-7.1876,-7.1321,-7.1122,-7.1743,-7.1129,-7.0233,-6.9234,0.0,0.0,0.0,0.0,0.0,0.0,0.0,0.0,0.0,0.0,0.0,0.0,0.0,0.0,0.0,0.0,0.0,0.0,0.0,0.0,0.0,0.0,0.0,0.0,0.0,0.0,0.0,0.0,0.0,0.0,0.0,0.0,0.0,0.0,0.0,0.0,0.0,0.0,0.0,0.0,0.0,0.0,0.0,0.0,0.0,0.0,0.0,0.0,0.0,0.0,0.0,0.0,0.0,0.0,0.0,0.0,0.0,0.0,0.0,0.0,0.0,0.0,0.0,0.0,0.0,0.0,0.0,0.0,0.0,0.0,0.0,0.0,0.0,0.0,0.0,0.0,0.0,0.0,0.0,0.0,0.0,0.0,0.0,0.0,0.0,0.0,0.0,0.0,0.0,0.0,0.0,0.0,0.0,0.0,0.0,0.0,0.0,0.0,0.0,0.0,0.0,0.0,0.0,-7.0768,-7.1519,-7.2172,-7.2311,-7.2227,-7.2063,-7.1658,-7.0992,-7.0025,-6.8655,0.0,0.0,0.0,0.0,0.0,0.0,0.0,0.0,0.0,0.0,0.0,0.0,0.0,0.0,0.0,0.0,0.0,0.0,0.0,0.0,0.0,0.0,0.0,0.0,0.0,0.0,0.0,0.0,0.0,0.0,0.0,0.0,0.0,0.0,0.0,0.0,0.0,0.0,0.0,0.0,0.0,0.0,0.0,0.0,0.0,0.0,0.0,0.0,0.0,0.0,0.0,0.0,0.0,0.0,0.0,0.0,0.0,0.0,0.0,0.0,0.0,0.0,0.0,0.0,0.0,0.0,0.0,0.0,0.0,0.0,0.0,0.0,0.0,0.0,0.0,0.0,0.0,0.0,0.0,0.0,0.0,0.0,0.0,0.0,0.0,0.0,0.0,0.0,0.0,0.0,0.0,0.0,0.0,0.0,0.0,0.0,0.0,0.0,0.0,0.0,0.0,0.0,-7.2042,-7.2547,-7.2854,-7.3234,-7.3217,-7.2438,-7.2149,-7.1597,-7.0662,-6.8915,0.0,0.0,0.0,0.0,0.0,0.0,0.0,0.0,0.0,0.0,0.0,0.0,0.0,0.0,0.0,0.0,0.0,0.0,0.0,0.0,0.0,0.0,0.0,0.0,0.0,0.0,0.0,0.0,0.0,0.0,0.0,0.0,0.0,0.0,0.0,0.0,0.0,0.0,0.0,0.0,0.0,0.0,0.0,0.0,0.0,0.0,0.0,0.0,0.0,0.0,0.0,0.0,0.0,0.0,0.0,0.0,0.0,0.0,0.0,0.0,0.0,0.0,0.0,0.0,0.0,0.0,0.0,0.0,0.0,0.0,0.0,0.0,0.0,0.0,0.0,0.0,0.0,0.0,0.0,0.0,0.0,0.0,0.0,0.0,0.0,0.0,0.0,0.0,0.0,0.0,0.0,0.0,0.0,0.0,0.0,0.0,0.0,0.0,0.0,0.0,0.0,0.0,-7.239,-7.2971,-7.4472,-7.3955,-7.3447,-7.3245,-7.2494,-7.1597,-7.0662,-6.8915,0.0,0.0,0.0,0.0,0.0,0.0,0.0,0.0,0.0,0.0,0.0,0.0,0.0,0.0,0.0,0.0,0.0,0.0,0.0,0.0,0.0,0.0,0.0,0.0,0.0,0.0,0.0,0.0,0.0,0.0,0.0,0.0,0.0,0.0,0.0,0.0,0.0,0.0,0.0,0.0,0.0,0.0,0.0,0.0,0.0,0.0,0.0,0.0,0.0,0.0,0.0,0.0,0.0,0.0,0.0,0.0,0.0,0.0,0.0,0.0,0.0,0.0,0.0,0.0,0.0,0.0,0.0,0.0,0.0,0.0,0.0,0.0,0.0,0.0,0.0,0.0,0.0,0.0,0.0,0.0,0.0,0.0,0.0,0.0,0.0,0.0,0.0,0.0,0.0,0.0,0.0,0.0,0.0,0.0,0.0,0.0,0.0,0.0,0.0,0.0,0.0,0.0,-7.2954,-7.3626,-7.4719,-7.4956,-7.4793,-7.4187,-7.336,-7.2425,-7.1559,0.0,0.0,0.0,0.0,0.0,0.0,0.0,0.0,0.0,0.0,0.0,0.0,0.0,0.0,0.0,0.0,0.0,0.0,0.0,0.0,0.0,0.0,0.0,0.0,0.0,0.0,0.0,0.0,0.0,0.0,0.0,0.0,0.0,0.0,0.0,0.0,0.0,0.0,0.0,0.0,0.0,0.0,0.0,0.0,0.0,0.0,0.0,0.0,0.0,0.0,0.0,0.0,0.0,0.0,0.0,0.0,0.0,0.0,0.0,0.0,0.0,0.0,0.0,0.0,0.0,0.0,0.0,0.0,0.0,0.0,0.0,0.0,0.0,0.0,0.0,0.0,0.0,0.0,0.0,0.0,0.0,0.0,0.0,0.0,0.0,0.0,0.0,0.0,0.0,0.0,0.0,0.0,0.0,0.0,0.0,0.0,0.0,0.0,0.0,0.0,0.0,0.0,-7.2761,-7.3442,-7.414,-7.5195,-7.5743,-7.5659,-7.4784,-7.3812,-7.2946,-7.205,0.0,0.0,0.0,0.0,0.0,0.0,0.0,0.0,0.0,0.0,0.0,0.0,0.0,0.0,0.0,0.0,0.0,0.0,0.0,0.0,0.0,0.0,0.0,0.0,0.0,0.0,0.0,0.0,0.0,0.0,0.0,0.0,0.0,0.0,0.0,0.0,0.0,0.0,0.0,0.0,0.0,0.0,0.0,0.0,0.0,0.0,0.0,0.0,0.0,0.0,0.0,0.0,0.0,0.0,0.0,0.0,0.0,0.0,0.0,0.0,0.0,0.0,0.0,0.0,0.0,0.0,0.0,0.0,0.0,0.0,0.0,0.0,0.0,0.0,0.0,0.0,0.0,0.0,0.0,0.0,0.0,0.0,0.0,0.0,0.0,0.0,0.0,0.0,0.0,0.0,0.0,0.0,0.0,0.0,0.0,0.0,0.0,0.0,0.0,0.0,0.0,0.0,-7.3574,-7.3837,-7.4422,-7.6044,-7.6145,-7.5716,-7.4784,-7.385,-7.2946,0.0,0.0,0.0,0.0,0.0,0.0,0.0,0.0,0.0,0.0,0.0,0.0,0.0,0.0,0.0,0.0,0.0,0.0,0.0,0.0,0.0,0.0,0.0,0.0,0.0,0.0,0.0,0.0,0.0,0.0,0.0,0.0,0.0,0.0,0.0,0.0,0.0,0.0,0.0,0.0,0.0,0.0,0.0,0.0,0.0,0.0,0.0,0.0,0.0,0.0,0.0,0.0,0.0,0.0,0.0,0.0,0.0,0.0,0.0,0.0,0.0,0.0,0.0,0.0,0.0,0.0,0.0,0.0,0.0,0.0,0.0,0.0,0.0,0.0,0.0,0.0,0.0,0.0,0.0,0.0,0.0,0.0,0.0,0.0,0.0,0.0,0.0,0.0,0.0,0.0,0.0,0.0,0.0,0.0,0.0,0.0,0.0,0.0,0.0,0.0,0.0,0.0,0.0,-7.3728,-7.434,-7.504,-7.6083,-7.6145,-7.5985,-7.563,-7.4293,-7.3274,-7.2855,0.0,0.0,0.0,0.0,0.0,0.0,0.0,0.0,0.0,0.0,0.0,0.0,0.0,0.0,0.0,0.0,0.0,0.0,0.0,0.0,0.0,0.0,0.0,0.0,0.0,0.0,0.0,0.0,0.0,0.0,0.0,0.0,0.0,0.0,0.0,0.0,0.0,0.0,0.0,0.0,0.0,0.0,0.0,0.0,0.0,0.0,0.0,0.0,0.0,0.0,0.0,0.0,0.0,0.0,0.0,0.0,0.0,0.0,0.0,0.0,0.0,0.0,0.0,0.0,0.0,0.0,0.0,0.0,0.0,0.0,0.0,0.0,0.0,0.0,0.0,0.0,0.0,0.0,0.0,0.0,0.0,0.0,0.0,0.0,0.0,0.0,0.0,0.0,0.0,0.0,0.0,0.0,0.0,0.0,0.0,0.0,0.0,0.0,0.0,0.0,0.0,0.0,-7.3806,-7.4572,-7.5335,-7.6173,-7.6172,-7.6118,-7.6034,-7.4745,-7.3764,-7.3261,0.0,0.0,0.0,0.0,0.0,0.0,0.0,0.0,0.0,0.0,0.0,0.0,0.0,0.0,0.0,0.0,0.0,0.0,0.0,0.0,0.0,0.0,0.0,0.0,0.0,0.0,0.0,0.0,0.0,0.0,0.0,0.0,0.0,0.0,0.0,0.0,0.0,0.0,0.0,0.0,0.0,0.0,0.0,0.0,0.0,0.0,0.0,0.0,0.0,0.0,0.0,0.0,0.0,0.0,0.0,0.0,0.0,0.0,0.0,0.0,0.0,0.0,0.0,0.0,0.0,0.0,0.0,0.0,0.0,0.0,0.0,0.0,0.0,0.0,0.0,0.0,0.0,0.0,0.0,0.0,0.0,0.0,0.0,0.0,0.0,0.0,0.0,0.0,0.0,0.0,0.0,0.0,0.0,0.0,0.0,0.0,0.0,0.0,0.0,0.0,0.0,0.0,-7.3906,-7.4734,-7.5523,-7.6224,-7.6225,-7.6172,-7.609,-7.5264,-7.4293,-7.336,0.0,0.0,0.0,0.0,0.0,0.0,0.0,0.0,0.0,0.0,0.0,0.0,0.0,0.0,0.0,0.0,0.0,0.0,0.0,0.0,0.0,0.0,0.0,0.0,0.0,0.0,0.0,0.0,0.0,0.0,0.0,0.0,0.0,0.0,0.0,0.0,0.0,0.0,0.0,0.0,0.0,0.0,0.0,0.0,0.0,0.0,0.0,0.0,0.0,0.0,0.0,0.0,0.0,0.0,0.0,0.0,0.0,0.0,0.0,0.0,-7.5514,-7.4328,0.0,0.0,0.0,0.0,0.0,0.0,0.0,0.0,0.0,0.0,0.0,0.0,0.0,0.0,0.0,0.0,0.0,0.0,0.0,0.0,0.0,0.0,0.0,0.0,0.0,0.0,0.0,0.0,0.0,0.0,0.0,0.0,0.0,0.0,0.0,0.0,0.0,0.0,0.0,0.0,-7.4823,-7.5608,-7.6181,-7.6301,-7.6225,-7.6172,-7.609,-7.5264,-7.4293,-7.336,-7.1688,0.0,0.0,0.0,0.0,0.0,0.0,0.0,0.0,0.0,0.0,0.0,0.0,0.0,0.0,0.0,0.0,0.0,0.0,0.0,0.0,0.0,0.0,0.0,0.0,0.0,0.0,0.0,0.0,0.0,0.0,0.0,0.0,0.0,0.0,0.0,0.0,0.0,0.0,0.0,0.0,0.0,0.0,0.0,0.0,0.0,0.0,0.0,0.0,0.0,0.0,0.0,0.0,0.0,0.0,0.0,0.0,0.0,0.0,0.0,-7.7684,-7.6382,0.0,0.0,0.0,0.0,0.0,0.0,0.0,0.0,0.0,0.0,0.0,0.0,0.0,0.0,0.0,0.0,0.0,0.0,0.0,0.0,0.0,0.0,0.0,0.0,0.0,0.0,0.0,0.0,0.0,0.0,0.0,0.0,0.0,0.0,0.0,0.0,0.0,0.0,0.0,0.0,-7.5133,-7.6289,-7.7016,-7.6968,-7.6919,-7.6842,-7.6762,-7.5936,-7.4966,-7.4034,-7.2677,0.0,0.0,0.0,0.0,0.0,0.0,0.0,0.0,0.0,0.0,0.0,0.0,0.0,0.0,0.0,0.0,0.0,0.0,0.0,0.0,0.0,0.0,0.0,0.0,0.0,0.0,0.0,0.0,0.0,0.0,0.0,0.0,0.0,0.0,0.0,0.0,0.0,0.0,0.0,0.0,0.0,0.0,0.0,0.0,0.0,0.0,0.0,0.0,0.0,0.0,0.0,0.0,0.0,-8.1311,-8.1943,-8.2914,-8.2987,-8.3117,-8.3244,-8.0392,-7.9088,-7.8952,-7.8985,0.0,0.0,0.0,0.0,0.0,0.0,0.0,0.0,0.0,0.0,0.0,0.0,0.0,0.0,0.0,0.0,0.0,0.0,0.0,0.0,0.0,0.0,-7.3504,-7.3452,-7.3985,-7.3727,-7.0823,0.0,0.0,0.0,0.0,0.0,0.0,0.0,0.0,0.0,0.0,0.0,-7.5658,-7.6985,-7.793,-7.7945,-7.7896,-7.7743,-7.7537,-7.68,-7.587,-7.4784,-7.3812,-7.2524,0.0,0.0,0.0,0.0,0.0,0.0,0.0,0.0,0.0,0.0,0.0,0.0,0.0,0.0,0.0,0.0,0.0,0.0,0.0,0.0,0.0,0.0,0.0,0.0,0.0,0.0,0.0,0.0,0.0,0.0,0.0,0.0,-5.5466,-5.7918,0.0,0.0,0.0,0.0,0.0,0.0,0.0,0.0,0.0,0.0,0.0,0.0,0.0,-7.7839,-7.8778,-8.0467,-8.1807,-8.2896,-8.3747,-8.4732,-8.5721,-8.5132,-8.53,-8.6036,-8.5054,0.0,-8.1521,-8.1661,0.0,0.0,0.0,0.0,0.0,0.0,0.0,0.0,0.0,0.0,0.0,0.0,0.0,0.0,0.0,0.0,0.0,0.0,0.0,0.0,0.0,0.0,-7.433,-7.433,-7.4435,-7.4375,-7.3922,-7.3768,-7.3726,-7.3726,-7.382,-7.3899,0.0,0.0,0.0,0.0,0.0,0.0,-7.7465,-7.8331,-7.8905,-7.8834,-7.8785,-7.84,-7.7575,-7.734,-7.6524,-7.4822,-7.3812,-7.2524,-7.0746,-6.9728,0.0,0.0,0.0,0.0,0.0,0.0,0.0,0.0,0.0,0.0,0.0,0.0,0.0,0.0,0.0,0.0,0.0,0.0,0.0,0.0,0.0,0.0,0.0,0.0,0.0,0.0,0.0,0.0,0.0,-5.5003,-5.7307,-5.8424,-6.0246,-6.1916,0.0,0.0,0.0,0.0,0.0,0.0,0.0,0.0,0.0,-7.7426,-7.9116,-8.0581,-8.1895,-8.3213,-8.4607,-8.6028,-8.6555,-8.7354,-8.8349,-8.8143,-8.8314,-8.8705,-8.8651,-8.8002,-8.6851,-8.5109,-8.4003,-8.3413,0.0,0.0,0.0,0.0,-8.0864,-8.024,-7.9734,-7.9403,-7.9032,-7.8213,0.0,0.0,0.0,0.0,0.0,0.0,0.0,-7.7454,-7.7485,-7.7434,-7.7425,-7.7414,-7.7401,-7.7418,-7.7363,-7.7326,-7.6749,-7.4778,-7.4404,-7.4678,-7.5609,-7.5697,0.0,0.0,0.0,-7.8244,-7.8592,-7.9305,-7.9757,-7.9734,-7.9685,-7.9456,-7.9018,-7.805,-7.7081,-7.6293,-7.4899,-7.3475,-7.2165,-7.0793,-6.9437,0.0,0.0,0.0,0.0,0.0,0.0,0.0,0.0,0.0,0.0,0.0,0.0,0.0,0.0,0.0,0.0,0.0,0.0,0.0,0.0,0.0,0.0,0.0,0.0,0.0,0.0,0.0,0.0,-5.6762,-5.8659,-5.9553,-6.19,-6.3799,0.0,0.0,0.0,0.0,0.0,0.0,-7.4973,-7.6243,-7.7891,-7.998,-8.1482,-8.3021,-8.4711,-8.5884,-8.7283,-8.882,-8.9251,-8.9866,-9.0675,-9.1034,-9.1133,-9.12,-9.164,-9.1759,-9.1337,-8.8367,-8.6839,-8.6345,-8.6036,-8.5268,-8.4289,-8.4078,-8.3544,-8.2886,-8.2225,-8.1974,-8.1763,-8.0865,-8.0509,-8.0386,-8.0363,0.0,0.0,0.0,0.0,-8.0386,-8.0381,-8.0371,-8.0358,-8.0386,-8.0367,-8.0353,-8.0298,-8.0076,-7.9071,-7.627,-7.569,-7.6093,-7.7336,-7.7501,0.0,-7.9131,-7.9465,-7.9544,-7.9524,-8.0179,-8.0655,-8.0632,-8.0561,-8.0434,-8.0113,-7.8914,-7.7907,-7.74,-7.5918,-7.461,-7.3576,-7.1927,-7.057,-6.9572,0.0,0.0,0.0,0.0,0.0,0.0,0.0,0.0,0.0,0.0,0.0,0.0,0.0,0.0,0.0,0.0,0.0,0.0,0.0,0.0,0.0,0.0,0.0,0.0,0.0,0.0,0.0,0.0,0.0,-6.2604,-6.3215,0.0,0.0,0.0,0.0,-7.2889,-7.3261,-7.4867,-7.826,-7.8521,-7.9837,-8.2571,-8.3509,-8.4749,-8.6363,-8.8248,-8.965,-9.0593,-9.1609,-9.2288,-9.2603,-9.344,-9.3549,-9.3207,-9.4134,-9.4138,-9.3255,-9.0894,-8.9915,-8.9779,-8.8334,-8.7771,-8.7739,-8.6993,-8.6224,-8.561,-8.5571,-8.513,-8.4454,-8.3596,-8.278,-8.2159,-8.2171,-8.218,0.0,0.0,-8.2187,-8.2182,-8.2178,-8.2168,-8.2159,-8.2182,-8.2176,-8.2131,-8.2078,-8.1429,-8.0534,-7.9466,-7.9259,-7.9286,-7.9325,0.0,-7.9291,-7.9359,-8.0064,-8.0514,-8.0417,-8.1152,-8.1591,-8.1523,-8.1475,-8.1092,-8.019,-7.9957,-7.918,-7.7477,-7.6496,-7.5524,-7.4551,-7.2847,-7.1482,-7.0547,-6.9534,0.0,0.0,0.0,0.0,0.0,0.0,0.0,0.0,0.0,0.0,0.0,0.0,0.0,0.0,0.0,0.0,0.0,0.0,0.0,0.0,0.0,0.0,0.0,0.0,0.0,0.0,0.0,0.0,-6.2903,-6.498,0.0,-6.8148,-7.0286,-7.2043,-7.3298,-7.5341,-7.7212,-7.8633,-8.0688,-8.242,-8.3622,-8.5988,-8.7582,-8.8254,-9.0599,-9.2307,-9.3245,-9.4235,-9.5174,-9.5952,-9.6257,-9.6409,-9.6538,-9.6971,-9.7055,-9.6751,-9.5546,-9.3759,-9.1778,-9.1406,-9.0611,-8.9678,-8.9438,-8.8905,-8.8218,-8.7673,-8.7376,-8.7008,-8.5634,-8.4615,-8.3906,-8.3968,-8.3974,-8.3977,-8.3984,-8.3984,-8.3983,-8.3979,-8.3974,-8.3964,-8.3911,-8.39,-8.3887,-8.3873,-8.3614,-8.3313,-8.292,-8.1025,-7.9676,-8.0221,-8.027,-8.0614,-8.167,-8.2046,-8.2398,-8.2961,-8.3191,-8.3087,-8.256,-8.239,-8.1968,-8.1092,-8.0381,-7.972,-7.9103,-7.768,-7.6408,-7.5472,-7.4259,-7.2901,-7.1389,-7.0451,-6.9513,0.0,0.0,0.0,0.0,0.0,0.0,0.0,0.0,0.0,0.0,0.0,0.0,0.0,0.0,0.0,0.0,0.0,0.0,0.0,0.0,0.0,0.0,0.0,0.0,0.0,-6.1484,-6.3209,-6.4412,-6.6574,-6.8409,-6.9762,-7.2108,-7.3993,-7.497,-7.757,-7.9483,-8.0314,-8.2929,-8.4853,-8.5725,-8.8128,-8.9874,-9.0867,-9.2689,-9.4249,-9.5453,-9.6233,-9.7123,-9.816,-9.8476,-9.883,-9.9228,-9.927,-9.9243,-9.9057,-9.8471,-9.6917,-9.4789,-9.4209,-9.3142,-9.1912,-9.2022,-9.1607,-9.0825,-8.9707,-8.9196,-8.888,-8.775,-8.7003,-8.6555,-8.662,-8.6627,-8.663,-8.6601,-8.6601,-8.6601,-8.6639,-8.6633,-8.6624,-8.6576,-8.6561,-8.6464,-8.6183,-8.5886,-8.5546,-8.5214,-8.3025,-8.1429,-8.2039,-8.2075,-8.238,-8.3476,-8.358,-8.3776,-8.434,-8.4298,-8.4001,-8.3474,-8.3304,-8.2883,-8.2006,-8.1323,-8.0663,-8.0057,-7.8864,-7.763,-7.6417,-7.5411,-7.4204,-7.2722,-7.1713,-7.0625,-6.9489,0.0,0.0,0.0,0.0,0.0,0.0,0.0,0.0,0.0,0.0,0.0,0.0,0.0,0.0,0.0,0.0,0.0,0.0,0.0,0.0,0.0,0.0,0.0,-6.2755,-6.2915,-6.4127,-6.732,-6.792,-6.9352,-7.2687,-7.3868,-7.555,-7.8128,-7.9837,-8.1643,-8.3527,-8.5245,-8.7061,-8.8954,-8.9855,-9.1564,-9.418,-9.4424,-9.5403,-9.7193,-9.7513,-9.8174,-9.915,-10.0098,-10.0727,-10.1077,-10.1115,-10.0781,-10.0211,-9.9509,-9.9232,-9.8957,-9.6704,-9.53,-9.4549,-9.4707,-9.4231,-9.3333,-9.1743,-9.0713,-8.9993,-8.9983,-9.0008,-9.003,-9.0017,-8.9986,-8.9989,-8.9999,-9.0,-9.0,-8.9998,-8.9992,-8.9982,-9.0013,-8.9997,-8.975,-8.893,-8.8002,-8.7107,-8.6288,-8.5426,-8.4832,-8.4715,-8.4649,-8.4567,-8.456,-8.4527,0.0,-8.4495,-8.4417,-8.4355,-8.425,-8.4204,-8.3784,-8.2896,-8.2767,-8.1953,-8.0172,-7.9972,-7.9143,-7.7438,-7.6325,-7.5347,-7.4504,-7.3361,-7.1967,-7.0261,0.0,0.0,0.0,0.0,0.0,0.0,0.0,0.0,0.0,0.0,0.0,0.0,0.0,0.0,0.0,0.0,0.0,0.0,0.0,0.0,0.0,-6.1693,-6.2344,-6.2603,-6.4705,-6.6589,-6.7577,-6.9798,-7.171,-7.2908,-7.5365,-7.7513,-7.9056,-8.1248,-8.3132,-8.4461,-8.6665,-8.8259,-8.8992,-9.1545,-9.3388,-9.4349,-9.6177,-9.7724,-9.906,-9.9866,-10.0836,-10.17,-10.2118,-10.2523,-10.2802,-10.2802,-10.2896,-10.2905,-10.2822,-10.2006,-10.0794,-9.9172,-9.8014,-9.7187,-9.6687,-9.5631,-9.4384,-9.3974,-9.3341,-9.2568,-9.1954,-9.1397,-9.0811,-9.0203,-9.0017,-8.9989,-8.9996,-8.9999,-9.0,-9.0,-8.9994,-8.9986,-8.9982,-9.0003,-8.9945,-8.9672,-8.9423,-8.9125,-8.8862,-8.8635,-8.7663,-8.5143,-8.4649,-8.4801,-8.5338,-8.546,-8.564,-8.6205,-8.6242,-8.5907,-8.5219,-8.5095,-8.4674,-8.3824,-8.3115,-8.2455,-8.1908,-8.0627,-7.9682,-7.9131,-7.7578,-7.5993,-7.4446,-7.3433,-7.2647,0.0,0.0,0.0,0.0,0.0,0.0,0.0,0.0,0.0,0.0,0.0,0.0,0.0,0.0,0.0,0.0,0.0,0.0,0.0,0.0,0.0,0.0,-6.2948,-6.3821,-6.4366,-6.6244,-6.8037,-6.9448,-7.1301,-7.3162,-7.4789,-7.7045,-7.9046,-8.0798,-8.2935,-8.4882,-8.6366,-8.8458,-9.0093,-9.1057,-9.331,-9.4988,-9.5951,-9.7724,-9.9216,-10.0403,-10.1415,-10.2409,-10.3298,-10.3502,-10.3861,-10.4489,-10.4183,-10.4205,-10.4484,-10.4211,-10.3623,-10.2605,0.0,0.0,0.0,0.0,-9.6993,-9.5863,-9.5557,-9.494,-9.4167,-9.3699,-9.327,-9.2795,-9.2306,-9.1892,-9.1626,-9.1635,-9.1366,-9.1094,-9.1094,-9.1092,-9.1083,-9.108,-9.1106,-9.1012,-9.0609,-9.0477,-9.0335,-8.9965,-8.9894,0.0,-8.717,-8.6494,-8.6271,-8.6327,-8.6333,-8.6493,-8.6962,-8.6961,-8.6726,-8.6156,-8.601,-8.5614,-8.4727,-8.4108,0.0,0.0,0.0,-8.0645,-7.9792,-7.8391,0.0,0.0,0.0,-7.4287,-7.3763,-7.3382,0.0,0.0,-7.0264,-7.0599,0.0,0.0,0.0,0.0,0.0,0.0,0.0,0.0,0.0,0.0,0.0,0.0,0.0,0.0,0.0,0.0,-6.4101,-6.6025,-6.7106,-6.7684,-6.9079,-7.197,-7.271,-7.4243,-7.7326,-7.8758,-8.0526,-8.2867,-8.4829,-8.6743,-8.8607,-9.0326,0.0,0.0,0.0,-9.638,-9.8253,-9.9083,-10.0199,-10.1405,-10.2433,-10.3298,-10.4226,-10.4403,-10.5103,-10.5985,-10.5295,-10.5089,-10.5409,-10.4712,-10.4395,-10.43,-10.2814,-10.1193,-9.9695,-9.9112,-9.8374,-9.7557,-9.6764,0.0,0.0,-9.5221,-9.5183,-9.5222,-9.5118,-9.4582,-9.4048,-9.4057,-9.3474,-9.2851,-9.2773,-9.2733,-9.2729,-9.2606,-9.2595,-9.2384,-9.1591,-9.1375,-9.1124,-9.0355,-9.0167,-9.0144,-8.9989,-8.9235,-8.835,-8.7534,-8.74,-8.7327,-8.7157,-8.7137,-8.7078,-8.6899,-8.6832,0.0,-8.5628,-8.5423,-8.4623,-8.3017,-8.268,-8.1754,-7.9921,-7.8941,-7.8343,-7.8126,-7.7291,-7.6422,-7.5513,-7.4714,-7.3878,-7.3001,-7.2614,-7.2377,0.0,0.0,0.0,0.0,0.0,0.0,0.0,0.0,0.0,0.0,0.0,0.0,0.0,0.0,0.0,-6.3423,-6.5177,-6.6921,-6.8549,-7.0155,-7.145,-7.2226,-7.4689,-7.6704,-7.7547,-8.0271,-8.256,-8.3756,-8.6239,-8.8232,-8.9504,-9.1745,-9.3349,-9.3986,-9.617,-9.7965,-9.912,-10.0104,-10.1504,-10.3298,-10.3626,0.0,-10.5167,-10.5505,-10.5809,-10.5985,-10.5882,-10.6097,-10.6371,-10.6292,-10.5967,-10.54,-10.3801,-10.2203,-10.0711,-10.0688,-10.0203,-9.9327,-9.8556,-9.8254,-9.7912,-9.6508,-9.6071,-9.6035,-9.53,-9.5006,0.0,-9.4868,-9.4801,-9.4531,-9.3828,-9.3632,-9.3471,-9.2762,-9.2595,-9.2541,-9.2333,-9.2248,-9.2202,-9.2021,-9.1993,-9.1738,-9.1002,-9.0145,-8.9455,-8.9216,-8.9224,-8.8901,-8.8147,-8.805,-8.7738,-8.6976,-8.6832,-8.6708,-8.648,-8.5733,-8.5152,-8.4723,-8.3268,-8.1955,-8.0869,-7.9818,-7.8952,-7.8267,-7.7903,-7.7568,-7.7303,-7.7075,-7.6845,-7.6458,-7.4926,-7.4157,0.0,0.0,0.0,0.0,0.0,0.0,0.0,0.0,0.0,0.0,0.0,-5.7391,-5.9523,0.0,-6.2175,-6.4783,-6.6271,-6.7872,-7.0046,-7.2023,-7.3398,-7.3934,-7.591,-7.8027,-7.983,-8.1637,-8.3633,-8.5793,-8.7316,-8.8915,-9.0923,-9.2567,-9.4023,-9.5187,-9.7358,-9.9004,-9.9988,-10.1409,-10.2621,-10.3808,-10.4806,-10.5483,-10.6096,-10.6815,-10.7235,-10.7289,-10.7423,-10.7408,-10.7295,-10.7018,-10.6525,-10.5807,-10.4993,-10.3678,-10.2195,-10.1486,-10.0903,-10.0416,-9.9725,-9.9215,-9.877,-9.7873,-9.7368,-9.6972,-9.6542,-9.61,-9.5766,-9.5766,-9.5465,-9.5117,-9.4648,-9.4531,-9.4412,-9.3973,-9.3536,-9.3215,-9.3153,-9.2795,-9.2514,-9.2498,-9.251,-9.2323,-9.182,-9.1405,-9.078,-8.9854,-8.9691,-8.9523,-8.9002,-8.8925,-8.8554,-8.7679,-8.7514,-8.725,-8.68,-8.5823,-8.5214,-8.513,-8.3817,-8.284,-8.2362,-8.1354,-8.0601,-8.0217,-7.9201,-7.8597,-7.8447,-7.7951,-7.7644,-7.7486,-7.6903,-7.6317,0.0,0.0,0.0,0.0,0.0,0.0,0.0,-5.3731,-5.4735,-5.5719,-5.6834,-5.8307,-6.0427,-6.1248,-6.263,-6.574,-6.7184,-6.8713,-7.1142,-7.3188,-7.4832,-7.5999,-7.7118,-7.8982,-8.2076,-8.2892,-8.4421,-8.7572,-8.8281,-8.9659,-9.2343,-9.3389,-9.4809,-9.6614,-9.8411,-9.9833,-10.0781,-10.2467,-10.3624,-10.409,-10.5719,-10.6602,-10.6795,-10.7935,-10.8499,-10.8592,-10.8701,-10.8488,-10.799,-10.7508,-10.6782,-10.6117,-10.6001,-10.5191,-10.3904,-10.2303,-10.1604,-10.1312,-10.0582,-9.9917,-9.9317,-9.9005,-9.8461,-9.7909,-9.7753,-9.7193,-9.6665,-9.6665,-9.6207,-9.5664,-9.5508,-9.5469,-9.539,-9.5145,-9.4595,-9.4083,-9.3856,-9.3263,-9.2709,-9.2537,-9.251,-9.2479,-9.2417,-9.2419,-9.191,-9.0439,-9.0197,-9.0107,-8.9876,-8.978,-8.9429,-8.8613,-8.8274,-8.7739,-8.6839,-8.5978,-8.5429,-8.5342,-8.4473,-8.3919,-8.3862,-8.2924,-8.2361,-8.2326,-8.0844,-8.0009,-7.9858,-7.9056,-7.8633,-7.8514,-7.9111,-7.8636,-4.9922,-5.0425,-5.1044,-5.1526,-5.1898,-5.2347,0.0,-5.4235,-5.5364,-5.6315,-5.7832,-5.938,-6.058,-6.2017,-6.3672,-6.5734,-6.7465,-6.9237,-7.1059,-7.3062,-7.5233,-7.7531,-7.8839,-8.0268,-8.2186,-8.3888,-8.5641,-8.7646,-8.9321,-9.1173,-9.3239,-9.4771,-9.6231,-9.7515,-9.9434,-10.0894,-10.1686,-10.2999,-10.4078,-10.5125,-10.6001,-10.6616,-10.6908,-10.8107,-10.8592,-10.8638,-10.8988,-10.8685,-10.799,-10.8088,-10.7711,-10.7009,-10.6194,-10.5889,-10.5707,-10.4092,-10.3005,-10.2207,-10.1517,-10.1217,-10.0916,-9.9395,-9.889,-9.8729,-9.7948,-9.7623,-9.7563,-9.7563,-9.7496,-9.7265,-9.6523,-9.6367,-9.6132,-9.5301,-9.5024,-9.4743,-9.3973,-9.3732,-9.3419,-9.2639,-9.249,-9.249,-9.249,-9.2432,-9.2352,-9.2104,-9.2004,-9.1681,-9.0941,-9.0733,-9.0323,-8.9468,-8.8623,-8.7691,-8.6713,-8.6494,-8.6373,-8.6268,-8.5458,-8.4867,-8.4747,-8.3841,-8.3312,-8.317,-8.2909,-8.2683,-8.2569,-8.2297,-8.2136,-8.2095,-8.1995,-8.0649,-5.0047,-5.0627,-5.1319,-5.1953,-5.2375,-5.306,-5.4425,-5.5161,-5.6063,-5.7534,-5.8843,-6.0192,-6.1805,-6.3066,-6.4678,-6.6996,-6.8147,-6.9605,-7.2322,-7.4115,-7.6036,-7.8442,-8.0194,-8.1948,-8.3788,-8.4626,-8.6296,-8.9145,-9.0191,-9.1683,-9.4061,-9.542,-9.6618,-9.7749,-10.0096,-10.1594,-10.1955,-10.3624,-10.4871,-10.6001,-10.6906,-10.7697,-10.8398,-10.9534,-11.0103,-11.0315,-11.0111,-10.9803,-10.9379,-10.8591,-10.8175,-10.79,-10.7009,-10.651,-10.5978,-10.4404,-10.3588,-10.3102,-10.2413,-10.1788,-10.1306,-10.0604,-9.9748,-9.8924,-9.8572,-9.8085,-9.7711,-9.7719,-9.7689,-9.7616,-9.7304,-9.7187,-9.7109,-9.6713,-9.6239,-9.5763,-9.5391,-9.491,-9.4317,-9.3419,-9.3231,-9.3036,-9.2568,-9.2444,-9.2391,-9.2391,-9.2276,-9.207,-9.1759,-9.1627,-9.1195,-9.0319,-8.9337,-8.8413,-8.75,-8.7371,-8.7097,-8.6423,-8.6075,-8.5753,-8.5593,-8.472,-8.4157,-8.4052,-8.352,-8.3141,-8.299,-8.283,-8.2707,-8.2707,-8.2494,-8.1831,-5.0674,-5.1093,-5.1664,-5.2336,-5.2867,-5.3597,-5.5128,-5.5835,-5.6646,-5.8288,-5.9529,-6.0909,-6.257,-6.3648,-6.5219,-6.7796,-6.855,-6.9857,-7.3158,-7.4841,-7.6546,-7.8917,-8.1,-8.2941,-8.4949,-8.5503,-8.7073,-9.0276,-9.0913,-9.2268,-9.4883,-9.5782,-9.6966,-9.8546,-10.0721,-10.2106,-10.2412,-10.4098,-10.5496,-10.6495,-10.7493,-10.8488,-10.948,-11.0616,-11.1307,-11.1483,-11.0998,-11.069,-11.0382,-10.9093,-10.8601,-10.8404,-10.7513,-10.6898,-10.643,-10.4987,-10.4211,-10.3725,-10.288,-10.2178,-10.1696,-10.1501,-10.049,-9.9314,-9.908,-9.8391,-9.7701,-9.7715,-9.7687,-9.7691,-9.7695,-9.7695,-9.7695,-9.7691,-9.7218,-9.67,-9.6456,-9.5893,-9.5215,-9.4317,-9.3934,-9.3554,-9.2919,-9.26,-9.2405,-9.2391,-9.2293,-9.2243,-9.2187,-9.2132,-9.1739,-9.078,-9.0074,-8.9305,-8.8403,-8.8287,-8.7831,-8.6838,-8.6731,-8.6555,-8.6126,-8.5483,-8.5074,-8.4934,-8.4248,-8.3868,-8.3677,-8.3516,-8.3434,-8.3392,-8.3177,-8.3126,-5.2026,-5.2241,-5.2383,-5.3008,-5.3281,-5.3653,-5.4836,-5.5988,-5.7075,-5.8198,-5.9753,-6.1345,-6.2481,-6.3453,-6.4923,-6.75,-6.8356,-6.9793,-7.2921,-7.474,-7.6546,-7.8917,-8.1,-8.2941,-8.4949,-8.6574,-8.8331,-9.0387,-9.1434,-9.3088,-9.5742,-9.6119,-9.7492,-10.0202,-10.1287,-10.2333,-10.3281,-10.4363,-10.5496,-10.6495,-10.7493,-10.8615,-10.9591,-11.0832,-11.139,-11.1483,-11.1731,-11.1308,-11.0382,-10.9789,-10.9105,-10.8404,-10.7513,-10.7286,-10.7324,-10.6504,-10.5184,-10.3725,-10.288,-10.2607,-10.2515,-10.1696,-10.0919,-10.0095,-9.9275,-9.8391,-9.7701,-9.7715,-9.7687,-9.7691,-9.7695,-9.7695,-9.7695,-9.7691,-9.7687,-9.7442,-9.6574,-9.64,-9.6113,-9.5215,-9.438,-9.3768,-9.366,-9.2975,-9.2393,-9.2391,-9.2347,-9.2276,-9.2226,-9.2132,-9.1739,-9.078,-9.0617,-9.0196,-8.923,-8.9178,-8.8748,-8.7814,-8.761,-8.7164,-8.6223,-8.6088,-8.5954,-8.5777,-8.5739,-8.5628,-8.5435,-8.5352,-8.527,-8.5143,-8.4975,-8.4878,-5.1835,-5.2092,-5.2378,-5.2903,-5.3179,-5.3822,-5.5485,-5.6267,-5.7049,-5.866,-5.9937,-6.1145,-6.2314,-6.3388,-6.4923,-6.75,-6.8356,-6.9793,-7.2921,-7.5212,-7.713,-7.8989,-8.1915,-8.4117,-8.4995,-8.6611,-8.8368,-9.0387,-9.1497,-9.3252,-9.578,-9.6181,-9.7614,-10.042,-10.1422,-10.2371,-10.353,-10.4605,-10.5909,-10.7371,-10.906,-11.0192,-11.0616,-11.1063,-11.1396,-11.1609,-11.1692,-11.1693,-11.1305,-10.9982,-10.9414,-10.9219,-10.7784,-10.7286,-10.7324,-10.6582,-10.5612,-10.4503,-10.3698,-10.3113,-10.271,-10.2398,-10.17,-10.0915,-10.0095,-9.9236,-9.843,-9.7872,-9.7684,-9.7687,-9.7695,-9.7695,-9.7695,-9.7695,-9.7689,-9.7602,-9.7325,-9.7265,-9.7011,-9.6113,-9.5746,-9.5134,-9.3905,-9.3443,-9.3055,-9.2469,-9.2293,-9.2226,-9.219,-9.2151,-9.1993,-9.1661,-9.1533,-9.1112,-9.0196,-9.0056,-8.9599,-8.8664,-8.8498,-8.8321,-8.7918,-8.7314,-8.6838,-8.6659,-8.6084,-8.5704,-8.5511,-8.5429,-8.5346,-8.5219,-8.5051,-8.4999,-5.1614,-5.198,-5.2269,-5.2694,-5.3041,-5.3686,-5.5621,-5.6235,-5.6951,-5.877,-6.0043,-6.1078,-6.215,-6.3322,-6.4923,-6.7366,-6.8291,-6.9793,-7.2921,-7.5175,-7.713,-7.8989,-8.2238,-8.4477,-8.506,-8.7193,-8.9127,-9.0488,-9.192,-9.3613,-9.5881,-9.6305,-9.7944,-10.1007,-10.167,-10.2601,-10.4003,-10.5078,-10.6587,-10.8407,-11.0104,-11.0989,-11.1085,-11.1307,-11.1522,-11.1612,-11.1693,-11.1808,-11.1805,-11.021,-10.9608,-10.9606,-10.79,-10.7286,-10.7324,-10.6893,-10.6001,-10.4892,-10.4205,-10.3386,-10.2698,-10.271,-10.2197,-10.1297,-10.0485,-9.9705,-9.8814,-9.7945,-9.768,-9.7684,-9.7695,-9.7695,-9.7695,-9.7695,-9.7691,-9.768,-9.768,-9.7701,-9.7518,-9.6972,-9.6613,-9.6002,-9.4841,-9.4094,-9.3393,-9.2547,-9.2276,-9.2208,-9.219,-9.2151,-9.211,-9.211,-9.196,-9.1655,-9.1112,-9.0946,-9.045,-8.9571,-8.9416,-8.9208,-8.8868,-8.8199,-8.7795,-8.7614,-8.7004,-8.6661,-8.643,-8.6388,-8.6265,-8.6095,-8.5969,-8.5918,-5.1573,-5.1762,-5.1941,-5.2483,-5.2764,-5.3341,-5.5207,-5.5996,-5.6816,-5.8599,-5.9838,-6.0976,-6.1948,-6.3221,-6.4822,-6.7194,-6.8189,-6.9793,-7.2921,-7.474,-7.6546,-7.8917,-8.1827,-8.4055,-8.5023,-8.822,-9.0407,-9.0789,-9.2542,-9.4311,-9.6106,-9.6562,-9.8304,-10.1762,-10.2013,-10.2961,-10.4799,-10.6007,-10.7531,-10.9392,-11.0596,-11.1085,-11.1085,-11.139,-11.1487,-11.1573,-11.1693,-11.1808,-11.1766,-11.021,-10.9608,-10.9606,-10.79,-10.7286,-10.7401,-10.7593,-10.6507,-10.4892,-10.4205,-10.3411,-10.2698,-10.2698,-10.2187,-10.1397,-10.0595,-9.9705,-9.8892,-9.7945,-9.768,-9.7684,-9.7695,-9.7695,-9.7695,-9.7695,-9.7691,-9.768,-9.768,-9.7701,-9.7714,-9.7714,-9.7011,-9.6371,-9.6324,-9.4862,-9.3405,-9.2586,-9.2315,-9.2187,-9.2187,-9.2132,-9.211,-9.211,-9.196,-9.1888,-9.1888,-9.1798,-9.1367,-9.0516,-9.0334,-8.9895,-8.9046,-8.8848,-8.8714,-8.857,-8.846,-8.8347,-8.8193,-8.8112,-8.7989,-8.7693,-8.7693,-8.7559,-5.1199,-5.154,-5.1908,-5.2269,-5.2624,-5.3207,-5.4599,-5.5656,-5.6645,-5.7809,-5.9009,-6.0282,-6.1708,-6.2732,-6.422,-6.7123,-6.8189,-6.9793,-7.2921,-7.474,-7.6546,-7.8917,-8.1827,-8.4055,-8.5023,-8.822,-9.0472,-9.0937,-9.309,-9.4909,-9.6144,-9.7088,-9.8966,-10.1799,-10.2013,-10.2981,-10.4892,-10.6686,-10.8207,-10.9392,-11.0596,-11.1085,-11.1085,-11.139,-11.1568,-11.1809,-11.1809,-11.1923,-11.1912,-11.0206,-10.9608,-10.9606,-10.79,-10.7286,-10.7401,-10.7593,-10.6507,-10.5009,-10.4906,-10.3917,-10.2698,-10.2698,-10.2616,-10.2207,-10.0712,-10.0095,-9.9634,-9.814,-9.768,-9.7684,-9.7695,-9.7695,-9.7695,-9.7695,-9.7691,-9.768,-9.768,-9.7701,-9.7714,-9.7714,-9.6948,-9.6334,-9.6313,-9.4862,-9.3599,-9.3405,-9.2705,-9.2187,-9.2187,-9.2132,-9.211,-9.211,-9.196,-9.1888,-9.1888,-9.1798,-9.16,-9.1367,-9.1222,-9.0975,-9.0782,-9.0004,-8.956,-8.9453,-8.8729,-8.8347,-8.8193,-8.8112,-8.7989,-8.7862,-8.7737,-8.7604,-5.1199,-5.1573,-5.1868,-5.2125,-5.2553,-5.3174,-5.4121,-5.5077,-5.6132,-5.733,-5.8388,-5.9551,-6.1083,-6.2244,-6.376,-6.6167,-6.7761,-6.9649,-7.2454,-7.4196,-7.6109,-7.888,-8.1562,-8.3778,-8.4986,-8.8349,-9.06,-9.0998,-9.3277,-9.5158,-9.6206,-9.7395,-9.9213,-10.1762,-10.2109,-10.3473,-10.6197,-10.7402,-10.8665,-11.0003,-11.0673,-11.1085,-11.1085,-11.139,-11.1609,-11.1809,-11.1809,-11.1884,-11.2024,-11.0206,-10.9608,-10.9606,-10.79,-10.7286,-10.7401,-10.7593,-10.6507,-10.5009,-10.5217,-10.4097,-10.2685,-10.2698,-10.2683,-10.2509,-10.1219,-10.0603,-9.9985,-9.8643,-9.7989,-9.7684,-9.7693,-9.7695,-9.7695,-9.7695,-9.7691,-9.768,-9.768,-9.7701,-9.7714,-9.7714,-9.7251,-9.6742,-9.6352,-9.5446,-9.4651,-9.4262,-9.3717,-9.3198,-9.2809,-9.2365,-9.211,-9.211,-9.196,-9.1888,-9.1888,-9.1798,-9.1716,-9.1716,-9.1531,-9.14,-9.14,-9.0813,-9.0444,-9.0409,-8.9802,-8.9458,-8.9382,-8.9261,-8.9138,-8.8972,-8.8841,-8.8752,-5.1275,-5.1647,-5.1868,-5.2013,-5.2516,-5.3071,-5.3707,-5.4533,-5.5449,-5.6816,-5.7771,-5.8855,-6.0282,-6.1893,-6.3477,-6.5035,-6.7189,-6.9505,-7.1842,-7.3506,-7.5598,-7.8844,-8.1176,-8.3176,-8.4912,-8.8265,-9.0515,-9.0998,-9.3389,-9.5271,-9.6328,-9.7588,-9.9384,-10.1859,-10.2375,-10.434,-10.7599,-10.7874,-10.8908,-11.05,-11.0864,-11.1085,-11.1085,-11.139,-11.1609,-11.1809,-11.1809,-11.1807,-11.1792,-11.0206,-10.9608,-10.949,-10.7823,-10.7286,-10.7401,-10.7593,-10.6507,-10.5009,-10.5217,-10.4121,-10.2616,-10.2686,-10.271,-10.2488,-10.1679,-10.0915,-10.0102,-9.9257,-9.8375,-9.7684,-9.7689,-9.7694,-9.7695,-9.7695,-9.7691,-9.768,-9.768,-9.7701,-9.7714,-9.7714,-9.7641,-9.7366,-9.6586,-9.6304,-9.5937,-9.5197,-9.4941,-9.4522,-9.3782,-9.2832,-9.2226,-9.211,-9.1999,-9.1888,-9.1888,-9.1798,-9.1716,-9.1716,-9.1531,-9.14,-9.14,-9.1275,-9.121,-9.121,-9.1029,-9.0915,-9.0915,-9.0676,-9.0551,-9.0427,-9.0295,-9.0159,-5.1124,-5.1499,-5.1868,-5.2013,-5.2516,-5.2937,-5.3071,-5.4093,-5.5176,-5.5415,-5.7078,-5.8681,-5.9586,-6.1541,-6.3477,-6.5035,-6.7189,-6.9505,-7.1842,-7.3506,-7.5598,-7.888,-8.0735,-8.2585,-8.4875,-8.7784,-8.9919,-9.0923,-9.3912,-9.5869,-9.6328,-9.8153,-10.0104,-10.2204,-10.3808,-10.53,-10.6686,-10.7711,-10.8742,-10.9621,-11.0596,-11.1085,-11.1085,-11.139,-11.1609,-11.1809,-11.1809,-11.1498,-11.0902,-10.9896,-10.9182,-10.8598,-10.759,-10.7286,-10.7401,-10.7593,-10.6507,-10.5009,-10.5217,-10.4121,-10.2616,-10.2686,-10.271,-10.2488,-10.1679,-10.0915,-10.0102,-9.9257,-9.8375,-9.7684,-9.7689,-9.7694,-9.7695,-9.7695,-9.7691,-9.768,-9.768,-9.7701,-9.7714,-9.7714,-9.7641,-9.7561,-9.7405,-9.6733,-9.6132,-9.6015,-9.5362,-9.4807,-9.4599,-9.3765,-9.2887,-9.2187,-9.2044,-9.1936,-9.1888,-9.1812,-9.1771,-9.1716,-9.1629,-9.15,-9.14,-9.1341,-9.1241,-9.121,-9.1029,-9.0915,-9.0915,-9.0676,-9.0593,-9.0551,-9.0295,-9.0205,-5.1275,-5.1573,-5.1868,-5.2125,-5.2553,-5.2903,-5.3041,-5.3788,-5.4629,-5.5005,-5.6249,-5.7602,-5.8751,-6.0487,-6.2238,-6.3831,-6.636,-6.875,-7.0692,-7.2998,-7.5452,-7.8297,-8.0367,-8.2437,-8.4875,-8.7699,-8.9858,-9.0923,-9.3713,-9.5694,-9.6508,-9.9251,-10.1315,-10.2298,-10.4204,-10.562,-10.6495,-10.7597,-10.8601,-10.9492,-11.0606,-11.1132,-11.1178,-11.1396,-11.1609,-11.1809,-11.1809,-11.1382,-11.0709,-10.9896,-10.9105,-10.8404,-10.7513,-10.7286,-10.7401,-10.7593,-10.6507,-10.5009,-10.5217,-10.4121,-10.2616,-10.2686,-10.271,-10.2605,-10.2304,-10.1618,-10.0798,-9.9914,-9.9034,-9.8266,-9.7804,-9.7693,-9.7695,-9.7695,-9.7691,-9.7715,-9.7701,-9.7689,-9.7714,-9.7714,-9.7641,-9.76,-9.76,-9.7201,-9.6873,-9.6873,-9.6492,-9.6014,-9.5533,-9.5049,-9.4444,-9.3547,-9.3387,-9.3318,-9.3206,-9.2768,-9.2456,-9.2373,-9.1861,-9.1531,-9.14,-9.1341,-9.1275,-9.121,-9.1028,-9.0915,-9.0915,-9.0719,-9.0635,-9.0631,-9.0383,-9.025,-5.1424,-5.1721,-5.1908,-5.2269,-5.259,-5.2972,-5.3179,-5.3584,-5.4151,-5.4732,-5.5593,-5.6593,-5.7915,-5.9503,-6.1105,-6.2698,-6.5573,-6.8031,-6.9649,-7.2527,-7.5306,-7.7786,-7.9963,-8.2253,-8.4838,-8.7576,-8.9733,-9.0923,-9.3672,-9.5848,-9.6948,-10.016,-10.2166,-10.2298,-10.4204,-10.5506,-10.6191,-10.7482,-10.8563,-10.9399,-11.0501,-11.117,-11.1307,-11.1401,-11.1609,-11.1809,-11.1616,-11.1112,-11.0515,-10.9587,-10.8795,-10.8211,-10.7513,-10.7286,-10.7401,-10.7282,-10.6312,-10.5009,-10.4906,-10.3887,-10.2616,-10.2725,-10.2698,-10.2683,-10.2811,-10.2203,-10.1305,-10.0485,-9.9653,-9.8813,-9.7915,-9.7691,-9.7695,-9.7695,-9.7689,-9.7715,-9.7682,-9.7714,-9.7714,-9.7714,-9.7641,-9.76,-9.76,-9.7552,-9.7496,-9.7496,-9.7465,-9.716,-9.6467,-9.6313,-9.604,-9.5317,-9.4862,-9.4559,-9.4408,-9.3775,-9.3335,-9.3263,-9.2548,-9.2072,-9.1978,-9.1914,-9.1814,-9.1748,-9.1602,-9.1528,-9.1452,-9.1334,-9.1212,-9.1128,-9.0999,-9.0873,-5.1647,-5.1941,-5.2158,-5.2483,-5.2764,-5.2972,-5.3179,-5.3584,-5.4014,-5.4083,-5.5213,-5.6419,-5.7283,-5.9116,-6.1105,-6.2698,-6.5573,-6.8031,-6.9649,-7.2527,-7.5306,-7.7786,-7.9485,-8.1625,-8.4801,-8.7093,-8.9099,-9.0886,-9.4553,-9.7064,-9.7951,-10.0557,-10.2166,-10.2298,-10.4204,-10.5201,-10.5315,-10.7177,-10.8295,-10.848,-11.0309,-11.117,-11.1307,-11.1401,-11.1609,-11.1809,-11.0999,-11.0185,-10.9587,-10.8697,-10.7982,-10.7319,-10.7202,-10.7286,-10.7324,-10.6699,-10.5807,-10.4892,-10.4205,-10.3419,-10.2601,-10.2685,-10.2686,-10.2683,-10.2811,-10.2203,-10.1305,-10.0485,-9.9653,-9.8813,-9.7915,-9.7691,-9.7695,-9.7687,-9.768,-9.7715,-9.7682,-9.7714,-9.7714,-9.7714,-9.7641,-9.76,-9.76,-9.7552,-9.7496,-9.7496,-9.7496,-9.7426,-9.7303,-9.7284,-9.7207,-9.6988,-9.5606,-9.4629,-9.4408,-9.433,-9.424,-9.4075,-9.3998,-9.3871,-9.3753,-9.3753,-9.3654,-9.348,-9.3407,-9.3294,-9.3178,-9.3095,-9.3013,-9.2886,-9.2716,-9.2627,-5.0555,-5.0768,-5.0979,-5.1393,-5.1597,-5.1866,-5.2097,-5.2796,-5.3396,-5.3587,-5.4614,-5.5889,-5.7359,-5.8527,-6.0129,-6.2835,-6.5207,-6.7374,-6.9245,-7.2325,-7.5187,-7.7222,-7.9179,-8.1551,-8.4801,-8.6696,-8.8869,-9.1821,-9.5045,-9.7045,-9.7347,-10.0483,-10.2204,-10.2298,-10.4204,-10.5201,-10.5201,-10.7177,-10.8307,-10.8461,-11.0318,-11.1178,-11.1396,-11.1478,-11.1609,-11.1809,-11.0883,-11.0107,-10.9393,-10.8581,-10.7904,-10.7202,-10.7202,-10.7286,-10.7299,-10.6499,-10.5708,-10.4873,-10.4092,-10.3325,-10.2601,-10.2685,-10.2686,-10.2722,-10.2792,-10.2585,-10.2086,-10.1305,-10.0395,-9.9594,-9.8696,-9.8082,-9.7695,-9.7684,-9.768,-9.7715,-9.7682,-9.7714,-9.7714,-9.7714,-9.7641,-9.76,-9.76,-9.7552,-9.7496,-9.7496,-9.7496,-9.7465,-9.742,-9.7401,-9.7363,-9.7221,-9.6616,-9.6144,-9.5959,-9.5494,-9.5132,-9.4965,-9.4501,-9.4133,-9.3985,-9.3985,-9.3885,-9.371,-9.3674,-9.3563,-9.3408,-9.3368,-9.3284,-9.3115,-9.3071,-9.29,-4.9879,-5.0085,-5.029,-5.0693,-5.0925,-5.1121,-5.141,-5.2009,-5.274,-5.3294,-5.4052,-5.5323,-5.7438,-5.8058,-5.9384,-6.2816,-6.5044,-6.6967,-6.8959,-7.2205,-7.5041,-7.6909,-7.8958,-8.1551,-8.4801,-8.7092,-8.9548,-9.2521,-9.5291,-9.6894,-9.6894,-10.0085,-10.207,-10.2391,-10.422,-10.5201,-10.5292,-10.6999,-10.8126,-10.8592,-11.0011,-11.0993,-11.1522,-11.1522,-11.1494,-11.1385,-11.0497,-10.9683,-10.9084,-10.831,-10.7595,-10.7202,-10.7202,-10.7286,-10.7299,-10.6205,-10.5493,-10.4912,-10.3801,-10.3114,-10.2601,-10.2709,-10.2712,-10.271,-10.2811,-10.2802,-10.2593,-10.1696,-10.0903,-10.0102,-9.9249,-9.8552,-9.8007,-9.7762,-9.768,-9.7715,-9.7682,-9.7714,-9.7714,-9.7714,-9.7641,-9.76,-9.76,-9.7552,-9.7496,-9.7496,-9.7496,-9.7465,-9.742,-9.7401,-9.7363,-9.7221,-9.7199,-9.7153,-9.7031,-9.6424,-9.6023,-9.5893,-9.5313,-9.4906,-9.4756,-9.4756,-9.4617,-9.448,-9.448,-9.4406,-9.4214,-9.4136,-9.4094,-9.3884,-9.3841,-9.3708,-5.0085,-5.0257,-5.0493,-5.0925,-5.0991,-5.1121,-5.141,-5.16,-5.2027,-5.3191,-5.3636,-5.4695,-5.7333,-5.8058,-5.9384,-6.2816,-6.5044,-6.6967,-6.8959,-7.2205,-7.5041,-7.6909,-7.8958,-8.1551,-8.4801,-8.8654,-9.1418,-9.2634,-9.5291,-9.6894,-9.6894,-9.9556,-10.1481,-10.2516,-10.4311,-10.5292,-10.5524,-10.64,-10.7514,-10.8592,-10.9397,-11.0417,-11.1522,-11.1522,-11.1109,-11.0497,-10.961,-10.891,-10.8194,-10.7382,-10.7091,-10.7202,-10.7202,-10.7286,-10.7183,-10.5583,-10.4987,-10.4795,-10.3217,-10.2607,-10.2601,-10.2601,-10.262,-10.271,-10.271,-10.2714,-10.2593,-10.1696,-10.0903,-10.0105,-9.9218,-9.8984,-9.8789,-9.7918,-9.768,-9.7715,-9.7682,-9.7714,-9.7714,-9.7714,-9.7641,-9.76,-9.76,-9.7552,-9.7496,-9.7496,-9.7496,-9.7465,-9.742,-9.7401,-9.7363,-9.7221,-9.7199,-9.7153,-9.7031,-9.7006,-9.6953,-9.6783,-9.6783,-9.6684,-9.6492,-9.6454,-9.639,-9.6288,-9.6288,-9.6212,-9.6059,-9.5941,-9.5859,-9.5772,-9.5643,-9.5425,-4.8795,-4.9057,-4.9349,-4.9476,-4.9632,-4.982,-5.0066,-5.0659,-5.1485,-5.2666,-5.3435,-5.4755,-5.7575,-5.8213,-5.9503,-6.3119,-6.5166,-6.7029,-6.9163,-7.2292,-7.5165,-7.7182,-8.1157,-8.4299,-8.5663,-8.8936,-9.1231,-9.1845,-9.499,-9.6894,-9.6894,-9.9556,-10.1481,-10.2516,-10.3702,-10.4683,-10.5485,-10.64,-10.7208,-10.771,-10.8592,-10.9189,-10.9713,-10.9713,-10.9722,-10.961,-10.8684,-10.8292,-10.8194,-10.7382,-10.7091,-10.7202,-10.7202,-10.7286,-10.7183,-10.5497,-10.4983,-10.4795,-10.3102,-10.2612,-10.2601,-10.2601,-10.262,-10.271,-10.271,-10.2714,-10.2601,-10.1801,-10.1386,-10.1004,-10.0117,-9.9883,-9.9687,-9.8816,-9.8579,-9.8418,-9.7838,-9.7714,-9.7714,-9.7714,-9.7641,-9.76,-9.76,-9.7552,-9.7496,-9.7496,-9.7496,-9.7465,-9.742,-9.7401,-9.7363,-9.7221,-9.7199,-9.7153,-9.7031,-9.7006,-9.6953,-9.6783,-9.6783,-9.6723,-9.6492,-9.6492,-9.6429,-9.6288,-9.6288,-9.6251,-9.6098,-9.5941,-9.5818,-9.5643,-9.5509,-9.5371,-4.8289,-4.8644,-4.8832,-4.8956,-4.9046,-4.929,-4.953,-5.0292,-5.1321,-5.2462,-5.338,-5.4839,-5.7789,-5.8332,-5.9503,-6.3334,-6.5226,-6.7053,-6.9304,-7.2352,-7.5446,-7.8307,-8.2634,-8.5683,-8.6458,-8.9242,-9.1231,-9.192,-9.5027,-9.6894,-9.6894,-9.9253,-10.1232,-10.257,-10.3474,-10.4506,-10.5574,-10.6209,-10.671,-10.7289,-10.7902,-10.8421,-10.8906,-10.8906,-10.8798,-10.8684,-10.8182,-10.7906,0.0,-10.7189,-10.7091,-10.7202,-10.7202,-10.7092,-10.6794,-10.5396,-10.4805,-10.4406,-10.3005,-10.2477,-10.2601,-10.2601,-10.262,-10.271,-10.2694,-10.2802,-10.2718,-10.2202,-10.2094,-10.1902,-10.1015,-10.0781,-10.0585,-9.9715,-9.9477,-9.9356,-9.8814,-9.8416,-9.8182,-9.8182,-9.7875,-9.76,-9.76,-9.7552,-9.7496,-9.7496,-9.7496,-9.7465,-9.742,-9.7401,-9.7363,-9.7221,-9.7199,-9.7153,-9.7031,-9.7006,-9.6953,-9.6783,-9.6783,-9.6723,-9.6597,-9.6564,-9.6463,-9.6361,-9.6288,-9.6251,-9.6213,-9.5981,-9.5776,-9.5598,-9.5509,-9.5371,0.0,-4.8798,-4.8894,-4.9107,-4.9229,-4.935,-4.9649,-5.041,0.0,-5.2462,-5.3533,-5.5027,-5.7789,-5.8403,-5.9645,-6.3334,-6.5298,-6.7162,-6.9413,-7.2595,-7.613,-7.9939,-8.3362,-8.5966,-8.7263,-8.9579,-9.1455,-9.2634,-9.5291,-9.6894,-9.6894,-9.8723,-10.0663,-10.2689,-10.3489,-10.4519,-10.5724,-10.5724,-10.6213,-10.7173,-10.7173,-10.7691,-10.8713,-10.8713,-10.8413,-10.7912,-10.7912,-10.7597,-10.6995,-10.6995,-10.7091,-10.7202,-10.7202,-10.6782,-10.6095,-10.5202,-10.4378,-10.3705,-10.281,-10.2477,-10.2601,-10.2601,-10.262,-10.2683,-10.2811,-10.2789,-10.2796,-10.2905,-10.2914,-10.2683,-10.1914,-10.1719,-10.1484,-10.0613,-10.0414,-10.0406,-10.0298,-9.9666,-9.908,-9.908,-9.8383,-9.7795,-9.7795,-9.7747,-9.7691,-9.7691,-9.7691,-9.766,-9.7575,-9.7596,-9.7519,-9.7415,-9.7393,-9.7347,-9.7225,-9.7083,-9.6953,-9.6783,-9.6783,-9.6792,-9.6699,-9.6564,-9.6497,-9.6394,-9.6363,-9.6403,-9.6366,-9.6212,-9.5968,-9.5789,-9.5789,-9.5616,-4.8132,0.0,-4.9107,-4.9168,-4.9411,-4.959,0.0,-5.0528,-5.1523,-5.2521,-5.3952,-5.5694,-5.7895,-5.9228,-6.0889,-6.3513,-6.5766,-6.7992,-7.0288,-7.4882,-7.8809,-8.096,-8.3756,-8.6311,-8.8122,-8.9915,-9.1455,-9.2634,-9.5291,-9.6894,-9.6894,-9.8723,-10.0663,-10.2689,-10.2994,-10.3909,-10.5724,-10.5724,-10.5907,-10.6292,-10.6292,-10.6501,-10.7021,-10.7021,-10.6988,-10.6986,-10.6986,-10.6979,-10.6995,-10.6995,-10.7091,-10.7202,-10.7202,-10.6782,-10.6095,-10.5202,-10.4378,-10.3705,-10.281,-10.2477,-10.2616,-10.2712,-10.2698,-10.2683,-10.2811,-10.2789,-10.2796,-10.2905,-10.2914,-10.2917,-10.2617,-10.2617,-10.2382,-10.1511,-10.1312,-10.1109,-10.0415,-10.0095,-9.9978,-9.9978,-9.9788,-9.959,-9.959,-9.954,-9.9483,-9.9483,-9.9483,-9.9452,-9.9327,-9.9308,-9.9269,-9.9203,-9.918,-9.9134,-9.9009,-9.7781,-9.6953,-9.6783,-9.6783,-9.6792,-9.6699,-9.6564,-9.6497,-9.6394,-9.694,-9.7135,-9.6978,-9.759,-9.7729,-9.7509,-9.7509,-9.7417,-4.7946,-4.8651,-4.9229,-4.9411,-4.959,-4.987,-5.0297,-5.1222,-5.2219,-5.316,-5.4769,-5.6505,-5.806,-5.9608,-6.1519,-6.4052,-6.6161,-6.8641,-7.2036,-7.6287,-7.9727,-8.1292,-8.3928,-8.6534,-8.8944,-9.0251,-9.1605,-9.3197,-9.5517,-9.6894,-9.6894,-9.8723,-10.0473,-10.2194,-10.2575,-10.3719,-10.5724,-10.5724,-10.583,-10.5985,-10.5985,-10.6117,-10.6405,-10.6405,-10.6487,-10.6716,-10.6716,-10.6786,-10.6995,-10.6995,-10.7091,-10.7202,-10.6815,-10.62,-10.5512,-10.458,-10.3794,-10.3121,-10.2693,-10.2477,-10.2616,-10.2686,-10.271,-10.2683,-10.2811,-10.2789,-10.2796,-10.2905,-10.2914,-10.2917,-10.289,-10.289,-10.2812,-10.2293,-10.2211,-10.2085,-10.1586,-10.111,-10.0915,-10.0915,-10.049,-10.0214,-10.0214,-10.0086,-10.0107,-10.0107,-10.0091,-10.002,-9.991,-9.9872,-9.9832,-9.9802,-9.9802,-9.9755,-9.963,-9.875,-9.8115,-9.7943,-9.7943,-9.7913,-9.7882,-9.7755,-9.762,-9.7477,-9.7902,-9.7981,-9.7779,-9.8278,-9.8342,-9.812,-9.812,-9.8028,-4.7826,-4.8643,-4.935,-4.9649,-4.9811,-5.0169,-5.1083,-5.2091,-5.3136,-5.408,-5.5777,-5.7388,-5.845,-6.0118,-6.2139,-6.4842,-6.704,-6.9813,-7.4004,-7.7316,-7.9949,-8.1625,-8.4076,-8.672,-8.9728,-9.0587,-9.1792,-9.3873,-9.5781,-9.6894,-9.6894,-9.8723,-10.0283,-10.1509,-10.2309,-10.3719,-10.5495,-10.5609,-10.583,-10.5985,-10.5985,-10.6117,-10.6405,-10.6405,-10.6487,-10.6716,-10.6716,-10.6786,-10.6995,-10.6995,-10.7091,-10.7086,-10.6194,-10.5501,-10.4813,-10.3881,-10.3095,-10.2499,-10.2518,-10.2612,-10.2616,-10.2686,-10.271,-10.2683,-10.2811,-10.2789,-10.2796,-10.2905,-10.2914,-10.2917,-10.289,-10.289,-10.289,-10.2917,-10.2914,-10.291,-10.2796,-10.2203,-10.1696,-10.1696,-10.1114,-10.0604,-10.0604,-10.0515,-10.0497,-10.0497,-10.0387,-10.0414,-10.0281,-10.0203,-10.0218,-10.019,-10.019,-10.0104,-10.0018,-9.9991,-9.9898,-9.9723,-9.9452,-9.9267,-9.9267,-9.9145,-9.9011,-9.8788,-9.8942,-9.8904,-9.8703,-9.8814,-9.8768,-9.8502,-9.8502,-9.8418,-4.7501,-4.862,-4.9649,-4.9708,-5.0341,-5.0942,-5.1222,-5.2542,-5.3973,-5.4919,-5.6526,-5.8341,-5.9972,-6.1654,-6.3565,-6.5776,-6.9647,-7.313,-7.5197,-7.8162,-8.096,-8.325,-8.4744,-8.6943,-9.0513,-9.0923,-9.1792,-9.3873,-9.5781,-9.6894,-9.6894,-9.8723,-10.0283,-10.1509,-10.2309,-10.3414,-10.4616,-10.5303,-10.583,-10.5985,-10.5985,-10.6117,-10.6405,-10.6405,-10.6487,-10.6716,-10.6716,-10.6786,-10.6995,-10.6995,-10.7091,-10.7086,-10.6194,-10.5501,-10.4813,-10.3881,-10.3095,-10.2518,-10.2591,-10.2585,-10.2616,-10.2686,-10.271,-10.2683,-10.2811,-10.2789,-10.2796,-10.2905,-10.2914,-10.2917,-10.289,-10.289,-10.289,-10.2917,-10.2914,-10.291,-10.2796,-10.2711,-10.2593,-10.2593,-10.2402,-10.2281,-10.2281,-10.2295,-10.2211,-10.2211,-10.2218,-10.2205,-10.211,-10.1992,-10.2006,-10.1899,-10.1899,-10.1891,-10.1724,-10.1697,-10.1719,-10.1502,-10.011,-9.9274,-9.9111,-9.9077,-9.9011,-9.8788,-9.9519,-9.9827,-9.9667,-10.0275,-10.0492,-10.0397,-10.0306,-10.0222,-4.7992,-4.9251,-5.0445,-5.0445,-5.0838,-5.1464,-5.2507,-5.3729,-5.4895,-5.5809,-5.7832,-5.9663,-6.0432,-6.2871,-6.5708,-6.8526,-7.1791,-7.4431,-7.6072,-7.8639,-8.1181,-8.3582,-8.4929,-8.7018,-9.0662,-9.0998,-9.1852,-9.3952,-9.5838,-9.6951,-9.6969,-9.8778,-10.0094,-10.0786,-10.1585,-10.2613,-10.3699,-10.4616,-10.5333,-10.5985,-10.5985,-10.6117,-10.6405,-10.6405,-10.6487,-10.6716,-10.6716,-10.6786,-10.6995,-10.6995,-10.6782,-10.6388,-10.5613,-10.4803,-10.4075,-10.3289,-10.2809,-10.2518,-10.2607,-10.2601,-10.2616,-10.2686,-10.271,-10.2683,-10.2811,-10.2789,-10.2796,-10.2905,-10.2914,-10.2917,-10.289,-10.289,-10.289,-10.2917,-10.2914,-10.291,-10.2796,-10.2789,-10.2789,-10.2789,-10.2714,-10.271,-10.271,-10.2607,-10.2601,-10.2601,-10.2612,-10.2479,-10.2499,-10.2378,-10.2311,-10.2288,-10.2303,-10.219,-10.2085,-10.2096,-10.201,-10.1889,-10.1115,-10.0627,-10.0505,-10.0505,-10.0398,-10.0212,-10.0519,-10.0711,-10.0591,-10.0889,-10.0919,-10.0787,-10.0688,-10.0604,-4.8461,-4.9825,-5.1149,-5.1381,-5.1613,-5.2275,-5.3808,-5.4834,-5.5889,-5.7193,-5.9152,-6.0822,-6.153,-6.4769,-6.8147,-7.0815,-7.3352,-7.5452,-7.6911,-7.9154,-8.1477,-8.3878,-8.504,-8.7018,-9.0662,-9.0998,-9.1852,-9.4067,-9.5895,-9.6951,-9.7079,-9.8833,-9.9904,-10.0215,-10.1015,-10.1927,-10.2896,-10.389,-10.4912,-10.5985,-10.5985,-10.6117,-10.6405,-10.6405,-10.6487,-10.6716,-10.6716,-10.6709,-10.6686,-10.6686,-10.6278,-10.5497,-10.4721,-10.3911,-10.3205,-10.2692,-10.2499,-10.2518,-10.2607,-10.2601,-10.2616,-10.2686,-10.271,-10.2683,-10.2811,-10.2789,-10.2796,-10.2905,-10.2914,-10.2917,-10.289,-10.289,-10.289,-10.2917,-10.2914,-10.291,-10.2796,-10.2789,-10.2789,-10.2789,-10.2714,-10.271,-10.271,-10.2607,-10.2601,-10.2601,-10.2477,-10.2499,-10.2499,-10.2395,-10.2288,-10.2288,-10.2201,-10.2203,-10.2096,-10.2,-10.1989,-10.1889,-10.1928,-10.1793,-10.1585,-10.1588,-10.1516,-10.1289,-10.1289,-10.1288,-10.1208,-10.1123,-10.0919,-10.0793,-10.0734,-10.0604,-4.8574,-4.9942,-5.1346,-5.2156,-5.2909,-5.3697,-5.4713,-5.5637,-5.7009,-5.9369,-6.0219,-6.1459,-6.4397,-6.8082,-7.0793,-7.124,-7.4296,-7.6947,-7.7859,-8.0,-8.2289,-8.4727,-8.5374,-8.7018,-9.0662,-9.0998,-9.1852,-9.4067,-9.5895,-9.6951,-9.7079,-9.8833,-9.9904,-10.0215,-10.1015,-10.1699,-10.2018,-10.3622,-10.4912,-10.5985,-10.5985,-10.6117,-10.6405,-10.6405,-10.6487,-10.6716,-10.6716,-10.64,-10.5796,-10.5796,-10.5388,-10.4721,-10.3791,-10.2979,-10.2404,-10.2498,-10.2499,-10.2518,-10.2607,-10.2601,-10.2616,-10.2686,-10.271,-10.2683,-10.2811,-10.2789,-10.2796,-10.2905,-10.2914,-10.2917,-10.289,-10.289,-10.289,-10.2917,-10.2914,-10.291,-10.2796,-10.2789,-10.2789,-10.2789,-10.2714,-10.271,-10.271,-10.2607,-10.2601,-10.2601,-10.2477,-10.2499,-10.2499,-10.2395,-10.2288,-10.2288,-10.2201,-10.21,-10.2,-10.1912,-10.1889,-10.1889,-10.1826,-10.1688,-10.1585,-10.1514,-10.1404,-10.1289,-10.1289,-10.1327,-10.1327,-10.1126,-10.1,-10.1,-10.0696,-10.0604,-4.9907,-5.1011,-5.1977,-5.2918,-5.4183,-5.5313,-5.5776,-5.7359,-5.899,-5.9931,-6.1488,-6.3712,-6.6832,-6.9412,-7.1434,-7.2742,-7.5124,-7.7275,-7.8588,-8.0809,-8.2954,-8.4875,-8.5856,-8.7538,-9.0737,-9.0998,-9.1912,-9.418,-9.546,-9.6402,-9.7188,-9.8378,-9.9373,-10.0215,-10.0482,-10.1127,-10.1903,-10.2514,-10.342,-10.4489,-10.5486,-10.6117,-10.6405,-10.6405,-10.6487,-10.6716,-10.6099,-10.5821,-10.5719,-10.51,-10.4497,-10.3791,-10.2979,-10.2512,-10.2288,-10.2498,-10.2499,-10.2518,-10.2607,-10.2601,-10.2616,-10.2686,-10.271,-10.2683,-10.2811,-10.2789,-10.2796,-10.2905,-10.2914,-10.2917,-10.289,-10.289,-10.289,-10.2917,-10.2914,-10.291,-10.2796,-10.2789,-10.2789,-10.2789,-10.2714,-10.271,-10.271,-10.2607,-10.2601,-10.2601,-10.2477,-10.2499,-10.2499,-10.2395,-10.2288,-10.2288,-10.219,-10.2096,-10.1912,-10.192,-10.1889,-10.1889,-10.1826,-10.1688,-10.1585,-10.1478,-10.1404,-10.1289,-10.1289,-10.1289,-10.1289,-10.1126,-10.1,-10.1,-10.127,-10.1406,-5.07,-5.1666,-5.252,-5.3706,-5.5313,-5.6725,-5.7429,-5.8885,-6.0247,-6.0739,-6.3146,-6.6048,-6.8844,-7.0692,-7.2407,-7.426,-7.625,-7.8041,-7.9391,-8.1553,-8.3582,-8.4949,-8.6115,-8.791,-9.0737,-9.0998,-9.1912,-9.418,-9.5159,-9.6062,-9.715,-9.8075,-9.9069,-10.0215,-10.0177,-10.0631,-10.1521,-10.1788,-10.231,-10.3109,-10.4489,-10.5388,-10.5597,-10.5597,-10.5717,-10.579,-10.5212,-10.501,-10.4906,-10.4287,-10.3607,-10.2926,-10.2512,-10.2288,-10.2288,-10.2498,-10.2499,-10.2518,-10.2607,-10.2601,-10.2616,-10.2686,-10.271,-10.2683,-10.2811,-10.2789,-10.2796,-10.2905,-10.2914,-10.2917,-10.289,-10.289,-10.289,-10.2917,-10.2914,-10.291,-10.2796,-10.2789,-10.2789,-10.282,-10.2704,-10.271,-10.2698,-10.2607,-10.2601,-10.2601,-10.2477,-10.2499,-10.2499,-10.2395,-10.2303,-10.2201,-10.2177,-10.199,-10.192,-10.1889,-10.1889,-10.1889,-10.1793,-10.1616,-10.1585,-10.1516,-10.1404,-10.1289,-10.1289,-10.1404,-10.1712,-10.151,-10.1498,-10.1805,-10.2073,-10.2285,-5.07,-5.1666,-5.2658,-5.4548,-5.614,-5.7799,-5.9657,-6.0107,-6.0563,-6.2108,-6.5223,-6.8285,-7.0364,-7.2211,-7.396,-7.5751,-7.7819,-7.95,-8.0302,-8.2398,-8.421,-8.5023,-8.6115,-8.791,-9.0737,-9.0998,-9.1852,-9.4067,-9.5103,-9.6007,-9.7041,-9.8075,-9.9069,-10.0215,-10.0177,-10.0326,-10.0604,-10.1521,-10.2004,-10.2189,-10.3109,-10.3622,-10.3905,-10.3905,-10.3984,-10.4093,-10.4093,-10.3812,-10.3204,-10.3204,-10.2794,-10.2112,-10.2201,-10.2288,-10.2288,-10.2498,-10.2499,-10.2518,-10.2607,-10.2601,-10.2616,-10.2686,-10.271,-10.2683,-10.2811,-10.2789,-10.2796,-10.2905,-10.2914,-10.2917,-10.289,-10.289,-10.289,-10.2917,-10.2914,-10.291,-10.2796,-10.2789,-10.2781,-10.2792,-10.2694,-10.2698,-10.2698,-10.2592,-10.2601,-10.2601,-10.2477,-10.2499,-10.2499,-10.2395,-10.2201,-10.2112,-10.2085,-10.199,-10.192,-10.1889,-10.1889,-10.1889,-10.1688,-10.1585,-10.1585,-10.1404,-10.1289,-10.1289,-10.1289,-10.1712,-10.2597,-10.2274,-10.2687,-10.3492,-10.3305,-10.3202,-5.1632,-5.2459,-5.3487,-5.5382,-5.6976,-5.8497,-5.9797,-6.0914,-6.235,-6.4729,-6.7373,-6.9494,-7.0579,-7.2678,-7.4608,-7.5859,-7.7819,-7.95,-8.0302,-8.2847,-8.471,-8.506,-8.6508,-8.8418,-9.0751,-9.0998,-9.1852,-9.4067,-9.4575,-9.544,-9.7041,-9.7453,-9.8424,-10.0101,-10.0177,-10.0326,-10.0604,-10.0909,-10.1124,-10.1383,-10.1614,-10.2508,-10.3905,-10.3905,-10.3984,-10.4093,-10.3514,-10.3194,-10.3204,-10.2591,-10.229,-10.2112,-10.2201,-10.2288,-10.2288,-10.2498,-10.2499,-10.2518,-10.2607,-10.2601,-10.2616,-10.2686,-10.271,-10.2683,-10.2811,-10.2789,-10.2796,-10.2905,-10.2914,-10.2917,-10.289,-10.289,-10.289,-10.2917,-10.2914,-10.291,-10.2796,-10.2789,-10.2781,-10.2792,-10.2694,-10.2698,-10.2698,-10.2592,-10.2585,-10.2591,-10.2498,-10.2498,-10.2395,-10.2311,-10.2201,-10.2112,-10.2085,-10.199,-10.192,-10.1889,-10.2199,-10.2779,-10.2615,-10.2202,-10.1585,-10.202,-10.2212,-10.2212,-10.2789,-10.3211,-10.3398,-10.3195,-10.318,-10.3397,-10.3832,-10.4004,-5.2011,-5.3011,-5.4281,-5.6182,-5.784,-5.9474,-6.1481,-6.2635,-6.4104,-6.6807,-6.8716,-7.0239,-7.1368,-7.3252,-7.5112,-7.6586,-7.815,-7.9573,-8.074,-8.3184,-8.494,-8.5096,-8.6666,-8.8615,-9.0751,-9.0998,-9.1852,-9.3952,-9.4293,-9.5025,-9.6402,-9.6999,-9.8007,-9.9682,-9.9987,-10.0326,-10.0604,-10.0604,-10.0703,-10.1,-10.1,-10.1702,-10.2904,-10.2904,-10.3021,-10.309,-10.2697,-10.2605,-10.2701,-10.23,-10.2085,-10.2112,-10.2201,-10.2288,-10.2288,-10.2498,-10.2499,-10.2518,-10.2607,-10.2601,-10.2616,-10.2686,-10.271,-10.2683,-10.2811,-10.2789,-10.2796,-10.2905,-10.2914,-10.2917,-10.289,-10.289,-10.289,-10.2917,-10.2914,-10.291,-10.2796,-10.2789,-10.282,-10.2782,-10.2995,-10.3205,-10.3191,-10.3396,-10.3598,-10.3586,-10.3491,-10.3488,-10.3298,-10.3298,-10.3288,-10.312,-10.3093,-10.3114,-10.2895,-10.2895,-10.3088,-10.3591,-10.3503,-10.309,-10.2588,-10.2905,-10.3097,-10.3097,-10.3597,-10.4018,-10.4202,-10.4073,-10.41,-10.4308,-10.4702,-10.4921,-5.2046,-5.3391,-5.5006,-5.6843,-5.8607,-6.0729,-6.4146,-6.4917,-6.5653,-6.8328,-6.9531,-7.07,-7.2549,-7.3972,-7.551,-7.7739,-7.8771,-7.9828,-8.136,-8.3478,-8.494,-8.5096,-8.6666,-8.8615,-9.0788,-9.0998,-9.1792,-9.3873,-9.4236,-9.4744,-9.5574,-9.6604,-9.7741,-9.8959,-9.9682,-10.0326,-10.0604,-10.0604,-10.0703,-10.1,-10.1,-10.1088,-10.1289,-10.1289,-10.1404,-10.1585,-10.1826,-10.1889,-10.1889,-10.199,-10.2085,-10.2112,-10.2201,-10.2288,-10.2288,-10.2498,-10.2499,-10.2518,-10.2607,-10.2601,-10.2616,-10.2686,-10.271,-10.2683,-10.2811,-10.2789,-10.2796,-10.2905,-10.2914,-10.2917,-10.289,-10.3008,-10.3007,-10.2996,-10.2992,-10.291,-10.2913,-10.2906,-10.2889,-10.2917,-10.3608,-10.409,-10.4019,-10.4705,-10.5195,-10.5104,-10.5008,-10.5,-10.4891,-10.4891,-10.4803,-10.4682,-10.4721,-10.4596,-10.4403,-10.4403,-10.4403,-10.4519,-10.4314,-10.4286,-10.4286,-10.4099,-10.3982,-10.3982,-10.4097,-10.4403,-10.4966,-10.4917,-10.5166,-10.5916,-10.5811,-10.5724,-5.2183,-5.377,-5.5662,-5.6982,-5.9569,-6.2638,-6.5794,-6.6532,-6.713,-6.9248,-7.077,-7.219,-7.3511,-7.5227,-7.6768,-7.7883,-7.9139,-8.0385,-8.1469,-8.3208,-8.4572,-8.5032,-8.6602,-8.8451,-9.0788,-9.0998,-9.1792,-9.3873,-9.4236,-9.4744,-9.5574,-9.6074,-9.7134,-9.8921,-9.915,-9.9717,-10.0604,-10.0604,-10.0703,-10.1,-10.1,-10.1088,-10.1289,-10.1289,-10.1404,-10.1585,-10.1826,-10.1889,-10.1889,-10.199,-10.2085,-10.2112,-10.2201,-10.2288,-10.2288,-10.2498,-10.2499,-10.2518,-10.2607,-10.2601,-10.2616,-10.2686,-10.271,-10.2683,-10.2811,-10.2789,-10.2796,-10.2905,-10.2914,-10.2917,-10.289,-10.3398,-10.3906,-10.3894,-10.3382,-10.3105,-10.3694,-10.3804,-10.3991,-10.4595,-10.4895,-10.4987,-10.4916,-10.5095,-10.5178,-10.5009,-10.4983,-10.4915,-10.4891,-10.488,-10.4829,-10.4682,-10.4587,-10.4497,-10.4403,-10.4403,-10.4713,-10.5409,-10.5203,-10.5405,-10.6099,-10.5293,-10.4789,-10.4789,-10.5482,-10.5823,-10.5799,-10.5678,-10.5695,-10.5696,-10.5686,-10.5724,-5.2218,-5.4149,-5.6698,-5.8963,-6.0932,-6.3196,-6.6321,-6.7023,-6.7727,-7.034,-7.1652,-7.2687,-7.3797,-7.555,-7.7128,-7.7955,-7.9284,-8.0535,-8.1506,-8.3139,-8.4505,-8.5032,-8.65,-8.8238,-9.0069,-9.0713,-9.1642,-9.3192,-9.3954,-9.4593,-9.5008,-9.5696,-9.6792,-9.8312,-9.8769,-9.9526,-10.0604,-10.0604,-10.0703,-10.1,-10.1,-10.1088,-10.1289,-10.1404,-10.1478,-10.1585,-10.1826,-10.1889,-10.1889,-10.199,-10.2085,-10.2112,-10.2201,-10.2288,-10.2288,-10.2498,-10.2499,-10.2518,-10.2607,-10.2601,-10.2616,-10.2686,-10.271,-10.2683,-10.2811,-10.2789,-10.2796,-10.2905,-10.2914,-10.2996,-10.3398,-10.3906,-10.4296,-10.4597,-10.4398,-10.4198,-10.4592,-10.4702,-10.4802,-10.518,-10.5597,-10.5884,-10.5812,-10.6113,-10.6293,-10.6273,-10.6205,-10.6095,-10.6095,-10.6007,-10.6006,-10.5884,-10.5827,-10.5697,-10.568,-10.5603,-10.5802,-10.6194,-10.6094,-10.6178,-10.6603,-10.5986,-10.5713,-10.5713,-10.6213,-10.628,-10.5985,-10.5985,-10.5886,-10.5724,-10.5724,-10.5724,-5.239,-5.4626,-5.7728,-6.1049,-6.2121,-6.3196,-6.6321,-6.7023,-6.7973,-7.1325,-7.2144,-7.2722,-7.3902,-7.5765,-7.7308,-7.7991,-7.9322,-8.0612,-8.1506,-8.3139,-8.4437,-8.4968,-8.6537,-8.8026,-8.9349,-9.0391,-9.1395,-9.2436,-9.3671,-9.4349,-9.4404,-9.5355,-9.6337,-9.7475,-9.8312,-9.9297,-10.0413,-10.0489,-10.0703,-10.1,-10.1004,-10.1129,-10.1289,-10.1478,-10.1585,-10.1585,-10.1826,-10.1889,-10.1889,-10.199,-10.2085,-10.2112,-10.2201,-10.2288,-10.2288,-10.2498,-10.2499,-10.2518,-10.2607,-10.2601,-10.2577,-10.2686,-10.271,-10.2694,-10.2811,-10.2789,-10.2796,-10.2905,-10.2914,-10.3113,-10.3984,-10.4297,-10.4609,-10.5417,-10.5687,-10.58,-10.5685,-10.5599,-10.5582,-10.5687,-10.6287,-10.6806,-10.6708,-10.7207,-10.7597,-10.7597,-10.7487,-10.7416,-10.7416,-10.7301,-10.7298,-10.7202,-10.7114,-10.7098,-10.6995,-10.6995,-10.6885,-10.6783,-10.6676,-10.6602,-10.6488,-10.6369,-10.6405,-10.6405,-10.6405,-10.628,-10.5985,-10.5985,-10.6001,-10.5915,-10.5915,-10.5991,-5.3046,-5.5196,-5.802,-6.1117,-6.2121,-6.3196,-6.6321,-6.7023,-6.7973,-7.1325,-7.2144,-7.2791,-7.4467,-7.6369,-7.7737,-7.8063,-7.9576,-8.0947,-8.151,-8.3107,-8.4337,-8.4874,-8.6472,-8.7961,-8.9198,-9.0329,-9.1395,-9.2436,-9.3556,-9.4293,-9.4404,-9.4681,-9.5362,-9.6637,-9.7437,-9.8421,-9.9534,-10.0298,-10.0703,-10.1,-10.1208,-10.1288,-10.1289,-10.1478,-10.1585,-10.1585,-10.1826,-10.1889,-10.1889,-10.199,-10.2085,-10.2112,-10.2201,-10.2288,-10.2288,-10.2498,-10.2499,-10.2518,-10.2607,-10.2577,-10.2698,-10.2698,-10.2683,-10.2792,-10.2781,-10.2789,-10.2796,-10.2905,-10.2914,-10.3113,-10.3984,-10.4804,-10.5507,-10.6315,-10.7093,-10.7401,-10.67,-10.6497,-10.6714,-10.7403,-10.7611,-10.7605,-10.7589,-10.7597,-10.7597,-10.7597,-10.7487,-10.7416,-10.7416,-10.7313,-10.7202,-10.7202,-10.7122,-10.7028,-10.6995,-10.6995,-10.6885,-10.6783,-10.6676,-10.6602,-10.6488,-10.6369,-10.6405,-10.6405,-10.6405,-10.628,-10.5985,-10.5985,-10.6269,-10.6679,-10.6679,-10.7099,-5.4736,-5.6206,-5.789,-6.1117,-6.2088,-6.3096,-6.6321,-6.7023,-6.776,-7.0613,-7.1752,-7.2826,-7.461,-7.6512,-7.788,-7.8099,-7.9612,-8.0948,-8.1408,-8.2968,-8.4268,-8.4639,-8.6406,-8.7776,-8.8377,-8.9597,-9.0722,-9.1605,-9.2784,-9.3747,-9.4366,-9.4513,-9.5158,-9.6387,-9.6779,-9.7763,-9.9288,-9.9678,-10.0321,-10.1,-10.117,-10.1289,-10.1289,-10.1478,-10.1585,-10.1585,-10.1826,-10.1889,-10.1889,-10.199,-10.2085,-10.2112,-10.2201,-10.2288,-10.2288,-10.2498,-10.2499,-10.2518,-10.2607,-10.2592,-10.2698,-10.2698,-10.2694,-10.2792,-10.2781,-10.2796,-10.281,-10.291,-10.2917,-10.3197,-10.4609,-10.5195,-10.5781,-10.7097,-10.7718,-10.7904,-10.7481,-10.7395,-10.7495,-10.7794,-10.7806,-10.7783,-10.7783,-10.7714,-10.7597,-10.7597,-10.7487,-10.7416,-10.7416,-10.7286,-10.7202,-10.7202,-10.7091,-10.6995,-10.6995,-10.6995,-10.689,-10.6789,-10.6714,-10.6603,-10.6486,-10.6407,-10.6405,-10.6405,-10.6405,-10.628,-10.5985,-10.6483,-10.6805,-10.6908,-10.7405,-10.7787,-5.6081,-5.6902,-5.7825,-6.1117,-6.2055,-6.3063,-6.625,-6.7023,-6.769,-7.0043,-7.1431,-7.2681,-7.4251,-7.6152,-7.7556,-7.8063,-7.9432,-8.0623,-8.1269,-8.2785,-8.3943,-8.4468,-8.6119,-8.7341,-8.7693,-8.8915,-9.0041,-9.0923,-9.2105,-9.3276,-9.4366,-9.4513,-9.4992,-9.5945,-9.6322,-9.7257,-9.885,-9.9496,-10.0174,-10.1,-10.117,-10.1289,-10.1289,-10.1478,-10.1585,-10.1585,-10.1826,-10.1889,-10.1889,-10.199,-10.2085,-10.2112,-10.2201,-10.2288,-10.2272,-10.2498,-10.2499,-10.2498,-10.2607,-10.2592,-10.2712,-10.2698,-10.2694,-10.2802,-10.2781,-10.2803,-10.2822,-10.291,-10.3116,-10.3591,-10.5117,-10.5703,-10.621,-10.7683,-10.7991,-10.7982,-10.7989,-10.8011,-10.7993,-10.7911,-10.7806,-10.7783,-10.7783,-10.7714,-10.7597,-10.7597,-10.7487,-10.7416,-10.7416,-10.7286,-10.7202,-10.7202,-10.7091,-10.6995,-10.6995,-10.6995,-10.689,-10.6678,-10.6716,-10.6603,-10.6405,-10.6597,-10.6713,-10.6713,-10.6902,-10.6818,-10.6292,-10.7204,-10.7562,-10.7596,-10.8207,-10.8589,-5.6357,-5.6902,-5.7825,-6.1117,-6.2055,-6.3063,-6.625,-6.7023,-6.769,-7.0043,-7.1282,-7.2317,-7.3319,-7.5146,-7.6836,-7.7883,-7.8782,-7.9829,-8.1196,-8.2206,-8.3216,-8.4191,-8.5508,-8.6648,-8.7423,-8.8753,-8.9919,-9.0923,-9.1964,-9.3084,-9.4366,-9.4404,-9.4621,-9.5072,-9.6018,-9.6952,-9.7973,-9.9944,-10.0923,-10.1,-10.117,-10.1289,-10.1289,-10.1478,-10.1585,-10.1585,-10.1826,-10.1889,-10.1889,-10.199,-10.2085,-10.2112,-10.2201,-10.2311,-10.2417,-10.2518,-10.2479,-10.2612,-10.2585,-10.2607,-10.271,-10.271,-10.2704,-10.2789,-10.2789,-10.2803,-10.2822,-10.291,-10.3507,-10.4294,-10.5312,-10.6093,-10.6914,-10.78,-10.7991,-10.7982,-10.7989,-10.7983,-10.7899,-10.7899,-10.7806,-10.7783,-10.7783,-10.7714,-10.7597,-10.7597,-10.7487,-10.7416,-10.7416,-10.7286,-10.7202,-10.7202,-10.7091,-10.6995,-10.6995,-10.6995,-10.689,-10.6678,-10.6716,-10.6603,-10.6405,-10.7213,-10.7598,-10.7598,-10.8278,-10.8114,-10.7212,-10.7992,-10.8738,-10.9315,-10.9315,-10.9812,-5.6495,-5.7216,-5.825,-6.1188,-6.1952,-6.2786,-6.5619,-6.6672,-6.7374,-6.8744,-7.0191,-7.154,-7.254,-7.4606,-7.6577,-7.7737,-7.8673,-7.972,-8.084,-8.2029,-8.311,-8.4089,-8.5404,-8.6611,-8.7423,-8.8207,-8.9137,-9.0139,-9.1141,-9.2258,-9.3574,-9.4102,-9.453,-9.4844,-9.5399,-9.6429,-9.799,-9.9452,-10.0386,-10.1,-10.117,-10.1289,-10.1289,-10.1478,-10.1585,-10.1585,-10.1826,-10.1881,-10.2019,-10.2096,-10.2112,-10.2203,-10.2303,-10.2272,-10.2378,-10.2518,-10.2498,-10.2612,-10.2585,-10.2607,-10.271,-10.271,-10.2714,-10.2789,-10.2789,-10.281,-10.291,-10.2914,-10.3509,-10.4414,-10.5312,-10.6093,-10.6914,-10.78,-10.8016,-10.7996,-10.7981,-10.7905,-10.7899,-10.7899,-10.7806,-10.7783,-10.7783,-10.7714,-10.7597,-10.7597,-10.7487,-10.7416,-10.7416,-10.7286,-10.7202,-10.7202,-10.7091,-10.6995,-10.6995,-10.6995,-10.7199,-10.7488,-10.7488,-10.7721,-10.7982,-10.829,-10.8482,-10.8482,-10.9118,-10.9022,-10.8094,-10.8796,-10.9186,-10.9392,-11.0003,-11.041,-5.6874,-5.7529,-5.8528,-6.1155,-6.1883,-6.2544,-6.5198,-6.6391,-6.7234,-6.8041,-6.9484,-7.1043,-7.2077,-7.3928,-7.568,-7.716,-7.8278,-7.9251,-8.0298,-8.1559,-8.2709,-8.3548,-8.497,-8.614,-8.7017,-8.7736,-8.8567,-8.9728,-9.0632,-9.175,-9.3121,-9.3951,-9.453,-9.4946,-9.5399,-9.6324,-9.77,-9.9031,-10.0003,-10.0578,-10.1093,-10.1289,-10.1289,-10.1478,-10.1585,-10.1585,-10.1826,-10.1912,-10.1971,-10.2096,-10.21,-10.219,-10.2303,-10.2412,-10.2399,-10.2479,-10.2498,-10.2591,-10.2585,-10.2607,-10.271,-10.271,-10.2714,-10.2789,-10.2789,-10.2816,-10.2914,-10.2914,-10.3707,-10.4804,-10.5312,-10.6289,-10.73,-10.7913,-10.8003,-10.802,-10.802,-10.7905,-10.7899,-10.7899,-10.7806,-10.7783,-10.7783,-10.7714,-10.7597,-10.7597,-10.7487,-10.7416,-10.7416,-10.7286,-10.7202,-10.7202,-10.7285,-10.7382,-10.7382,-10.7691,-10.8011,-10.8375,-10.8414,-10.8608,-10.8906,-10.9213,-10.929,-10.929,-10.9918,-11.0011,-10.9397,-10.9782,-10.9913,-10.9889,-11.0385,-11.0587,0.0,0.0,0.0,-6.1017,-6.1745,-6.2544,-6.4952,-6.6284,-6.7199,-6.8006,-6.9376,-7.0824,-7.2041,-7.2858,-7.4109,-7.6265,-7.7415,-7.8423,-7.9468,-8.0724,-8.187,-8.2709,-8.3991,-8.5235,-8.6204,-8.7147,-8.8281,-8.9691,-9.0513,-9.1634,-9.3083,-9.3951,-9.4636,-9.5191,-9.6029,-9.6582,-9.6898,-9.8687,-9.9658,-9.9696,-10.0785,-10.1289,-10.1289,-10.1478,-10.1585,-10.1585,-10.1826,-10.1912,-10.1971,-10.2096,-10.21,-10.2215,-10.2303,-10.2395,-10.2499,-10.2499,-10.2477,-10.2601,-10.2601,-10.2607,-10.271,-10.271,-10.2714,-10.2789,-10.2789,-10.2816,-10.2914,-10.2914,-10.4215,-10.5508,-10.5586,-10.6793,-10.7987,-10.8016,-10.7996,-10.802,-10.802,-10.7905,-10.7899,-10.7899,-10.7806,-10.7783,-10.7783,-10.7714,-10.7597,-10.7597,-10.7487,-10.7416,-10.7416,-10.7286,-10.7202,-10.7319,-10.7904,-10.831,-10.831,-10.9084,-10.9403,-10.9186,-10.9186,-10.9225,-10.8983,-10.979,-11.0214,-11.0214,-11.0801,-11.1085,-11.1085,-11.0804,-11.0691,-11.0691,-11.0691,-11.0611,-5.7771,0.0,0.0,0.0,0.0,0.0,-6.4253,-6.5479,-6.6426,-6.7199,-6.8147,-6.9417,-7.1087,-7.2044,-7.3077,-7.4511,-7.6123,-7.7775,-7.9143,-8.0078,-8.115,-8.2636,-8.3448,-8.4441,-8.6168,-8.6693,-8.749,-8.8735,-8.9653,-9.0713,-9.2052,-9.3666,-9.4779,-9.5191,-9.542,-9.6019,-9.6898,-9.7538,-9.8201,-9.8814,-9.9941,-10.0404,-10.0481,-10.1205,-10.1585,-10.1585,-10.1826,-10.2019,-10.2096,-10.2085,-10.2203,-10.2303,-10.2327,-10.2395,-10.2499,-10.2499,-10.2477,-10.2601,-10.2601,-10.2607,-10.271,-10.271,-10.2714,-10.2789,-10.2789,-10.2816,-10.2914,-10.2914,-10.4215,-10.5781,-10.6991,-10.7689,-10.7987,-10.8016,-10.7996,-10.8011,-10.7885,-10.7883,-10.7899,-10.7899,-10.7806,-10.7783,-10.7783,-10.7714,-10.7597,-10.7597,-10.7487,-10.761,-10.8309,-10.8179,-10.8404,-10.8986,-10.9105,-10.92,-10.92,-10.9393,-10.9712,-11.0073,-11.0112,-11.0304,-11.0791,-11.1021,-11.1098,-11.1098,-11.1108,-11.1085,-11.1085,-11.0804,-11.0691,-11.0691,-11.1092,-11.1195,-5.8288,-5.8909,-5.9806,-6.1119,0.0,0.0,-6.4008,-6.5093,-6.611,-6.6848,-6.7655,-6.8819,-7.0733,-7.1478,-7.2297,-7.3761,-7.5048,-7.641,-7.8063,-7.9392,-8.0608,-8.1688,-8.269,-8.3794,-8.5143,-8.6037,-8.6882,-8.7913,-8.913,-9.0526,-9.2202,-9.3456,-9.4452,-9.5191,-9.5191,-9.56,-9.6363,-9.6925,-9.7434,-9.7971,-9.9057,-9.9558,-9.9558,-10.0319,-10.0582,-10.0582,-10.0705,-10.0897,-10.1077,-10.1077,-10.1505,-10.2288,-10.2288,-10.2395,-10.2499,-10.2499,-10.2477,-10.2601,-10.2601,-10.2607,-10.271,-10.271,-10.2714,-10.2789,-10.2789,-10.2816,-10.2992,-10.3304,-10.4683,-10.6289,-10.7689,-10.7995,-10.7987,-10.8003,-10.7989,-10.8011,-10.7915,-10.7883,-10.7886,-10.7912,-10.7791,-10.7822,-10.7806,-10.7695,-10.7597,-10.7593,-10.7798,-10.8115,-10.8581,-10.8877,-10.9219,-10.9684,-10.9879,-11.0012,-11.0012,-11.0399,-11.0717,-11.0999,-11.0999,-11.123,-11.1483,-11.1522,-11.1522,-11.1522,-11.1224,-11.1191,-11.1515,-11.1022,-11.0882,-11.1302,-11.1783,-11.2014,-5.9081,-5.9771,-6.0496,-6.1254,-6.2229,0.0,-6.4006,-6.4987,-6.6005,-6.6848,-6.7585,-6.8678,-7.0591,-7.1018,-7.1693,-7.3476,-7.4047,-7.4904,-7.6661,-7.8632,-7.9994,-8.0344,-8.1824,-8.3111,-8.3814,-8.517,-8.6412,-8.7242,-8.8891,-9.0755,-9.2819,-9.3245,-9.3921,-9.5039,-9.5153,-9.5333,-9.5598,-9.6542,-9.705,-9.705,-9.8173,-9.8673,-9.8673,-9.8969,-9.9116,-9.9116,-9.9236,-9.9425,-9.9603,-9.9603,-10.0612,-10.221,-10.221,-10.2278,-10.2499,-10.2499,-10.2477,-10.2601,-10.2601,-10.2607,-10.271,-10.271,-10.2714,-10.2789,-10.2789,-10.2816,-10.3109,-10.4011,-10.5386,-10.6914,-10.78,-10.7991,-10.7987,-10.7989,-10.802,-10.8011,-10.7905,-10.7922,-10.7886,-10.7806,-10.7815,-10.7806,-10.7675,-10.7714,-10.7692,-10.7705,-10.8319,-10.8892,-10.9009,-10.9498,-10.9994,-11.011,-11.0614,-11.0902,-11.0902,-11.1714,-11.2031,-11.1771,-11.1809,-11.1731,-11.1483,-11.1522,-11.1522,-11.1598,-11.1531,-11.1592,-11.2105,-11.1302,-11.1302,-11.2105,-11.2715,-11.289,-6.0806,-6.0978,-6.1289,-6.2048,-6.2645,0.0,-6.4006,-6.4568,-6.5338,-6.6707,-6.7129,-6.7869,-6.9778,-7.0664,-7.1339,-7.2014,-7.3332,-7.4904,-7.6661,-7.7377,-7.8448,-8.0198,-8.0703,-8.1732,-8.3704,-8.4173,-8.5164,-8.713,-8.9065,-9.04,-9.1159,-9.2496,-9.3553,-9.424,-9.4849,-9.5333,-9.5598,-9.5968,-9.613,-9.6169,-9.7251,-9.775,-9.7788,-9.8699,-9.9116,-9.9116,-9.9236,-9.9425,-9.9603,-9.9603,-10.0302,-10.1317,-10.1317,-10.1812,-10.2499,-10.2499,-10.2477,-10.2601,-10.2601,-10.2607,-10.271,-10.271,-10.2714,-10.2789,-10.2789,-10.2816,-10.3191,-10.4802,-10.5898,-10.6914,-10.78,-10.7991,-10.7987,-10.7989,-10.802,-10.8011,-10.7922,-10.7899,-10.7912,-10.7815,-10.78,-10.7806,-10.7675,-10.8221,-10.8587,-10.8599,-10.9213,-11.0019,-11.0718,-11.0778,-11.1002,-11.17,-11.1815,-11.1792,-11.1792,-11.2024,-11.2031,-11.1771,-11.1809,-11.1731,-11.1483,-11.1522,-11.1791,-11.2522,-11.2913,-11.3085,-11.3022,-11.2105,-11.2181,-11.3022,-11.3515,-11.3803,-6.1289,-6.1599,-6.1979,-6.2393,-6.3026,0.0,0.0,-6.4463,-6.5162,-6.6707,-6.7023,-6.7623,-6.953,-7.0239,-7.0771,-7.1551,-7.2404,-7.3544,-7.4901,-7.6334,-7.7691,-7.9032,-7.9901,-8.1007,-8.256,-8.3434,-8.483,-8.713,-8.8316,-8.9423,-9.0669,-9.1499,-9.2541,-9.3878,-9.4344,-9.4905,-9.5509,-9.5776,-9.59,-9.59,-9.6559,-9.6903,-9.6903,-9.7543,-9.7804,-9.7804,-9.7998,-9.8148,-9.8285,-9.8285,-9.8866,-9.984,-10.0695,-10.1306,-10.1915,-10.2304,-10.2477,-10.2601,-10.2601,-10.2607,-10.271,-10.271,-10.2714,-10.2789,-10.2789,-10.3402,-10.4284,-10.5195,-10.6406,-10.7382,-10.7917,-10.7991,-10.7987,-10.7989,-10.802,-10.8002,-10.7911,-10.7899,-10.7912,-10.78,-10.8212,-10.839,-10.8318,-10.859,-10.9015,-10.9291,-11.0121,-11.0796,-11.1184,-11.1477,-11.1816,-11.232,-11.2202,-11.2101,-11.2101,-11.2101,-11.2031,-11.1771,-11.1809,-11.1924,-11.2099,-11.2099,-11.2401,-11.3112,-11.3395,-11.3698,-11.3786,-11.3404,-11.348,-11.39,-11.443,-11.4602,-6.2186,-6.2668,-6.3151,-6.3151,-6.3892,-6.4633,0.0,0.0,0.0,-6.6953,-6.7234,-6.7798,-6.9566,-6.9885,-7.0275,-7.1301,-7.1585,-7.2045,-7.3033,-7.5073,-7.6755,-7.7648,-7.9062,-8.0276,-8.1157,-8.2758,-8.4657,-8.6644,-8.7323,-8.8391,-9.014,-9.0518,-9.1596,-9.3514,-9.385,-9.4439,-9.5417,-9.5734,-9.59,-9.59,-9.6136,-9.6288,-9.6288,-9.6429,-9.6492,-9.6492,-9.6723,-9.687,-9.7006,-9.7006,-9.747,-9.8442,-10.0112,-10.0879,-10.1293,-10.2188,-10.2477,-10.2601,-10.2601,-10.2607,-10.271,-10.271,-10.2714,-10.2789,-10.2991,-10.4189,-10.5417,-10.5703,-10.6797,-10.8007,-10.7995,-10.7991,-10.7987,-10.7989,-10.802,-10.8002,-10.7911,-10.7899,-10.7912,-10.7994,-10.8602,-10.9074,-10.8901,-10.9192,-10.9577,-11.0199,-11.099,-11.1612,-11.1612,-11.1981,-11.232,-11.232,-11.2202,-11.2101,-11.2101,-11.2101,-11.2109,-11.2002,-11.2002,-11.2309,-11.2906,-11.3099,-11.3388,-11.3807,-11.3999,-11.4273,-11.4703,-11.4703,-11.4703,-11.4703,-11.5116,-11.5288,-6.5283,-6.5428,-6.5497,-6.5497,-6.5867,-6.6234,-6.6234,0.0,-6.6988,-6.7901,0.0,-6.8467,-6.9672,0.0,0.0,-7.0552,-7.1228,-7.183,-7.2243,-7.3173,-7.4596,-7.67,-7.7713,-7.8812,-8.0198,-8.2267,-8.3934,-8.5096,-8.6687,-8.7865,-8.848,-8.9876,-9.1331,-9.2603,-9.3545,-9.4439,-9.5417,-9.5734,-9.59,-9.59,-9.6136,-9.6288,-9.6288,-9.6429,-9.6492,-9.6492,-9.6723,-9.687,-9.7006,-9.7006,-9.712,-9.751,-9.9258,-10.049,-10.1293,-10.2188,-10.2477,-10.2601,-10.2601,-10.2607,-10.271,-10.271,-10.2714,-10.2913,-10.3686,-10.4593,-10.5612,-10.6289,-10.7304,-10.8007,-10.7995,-10.7991,-10.7987,-10.7989,-10.802,-10.8002,-10.7911,-10.7899,-10.8107,-10.8813,-10.8991,-10.9074,-10.8901,-11.0087,-11.1094,-11.1093,-11.1883,-11.2505,-11.2505,-11.2408,-11.232,-11.232,-11.2202,-11.2101,-11.2101,-11.2101,-11.2302,-11.2774,-11.2889,-11.3234,-11.3791,-11.4599,-11.4933,-11.4804,-11.5494,-11.569,-11.5582,-11.5582,-11.5582,-11.562,-11.5421,-11.5288,-6.5937,-6.5876,-6.5876,-6.5876,-6.6179,-6.6512,-6.6512,-6.677,-6.7234,-6.8041,0.0,0.0,0.0,0.0,0.0,0.0,-7.08,-7.1115,-7.1416,-7.2202,-7.3549,-7.5826,-7.6801,-7.8044,-8.0013,-8.1556,-8.2888,-8.405,-8.5302,-8.6667,-8.8141,-8.8857,-8.9994,-9.167,-9.2699,-9.3716,-9.46,-9.5462,-9.59,-9.59,-9.6136,-9.6325,-9.6361,-9.6463,-9.6564,-9.6629,-9.6723,-9.687,-9.7006,-9.7006,-9.7082,-9.7354,-9.9102,-10.0101,-10.0592,-10.1993,-10.2477,-10.2601,-10.2601,-10.2607,-10.271,-10.2714,-10.2811,-10.2991,-10.3803,-10.471,-10.5612,-10.6484,-10.7304,-10.8007,-10.7995,-10.7991,-10.7987,-10.7989,-10.802,-10.8002,-10.7911,-10.8289,-10.8692,-10.9008,-10.9888,-11.0476,-11.0419,-11.0904,-11.1483,-11.1987,-11.2388,-11.2583,-11.2583,-11.2408,-11.232,-11.232,-11.2202,-11.2295,-11.2797,-11.2797,-11.3114,-11.37,-11.408,-11.4494,-11.4676,-11.5599,-11.5932,-11.5609,-11.5916,-11.5996,-11.5696,-11.5696,-11.5696,-11.5696,-11.5421,-11.5288,-6.7177,-6.7118,-6.7118,-6.7118,-6.7288,-6.7452,-6.7452,-6.7539,-6.7831,-6.8428,-6.8533,0.0,0.0,0.0,-7.0062,-7.041,0.0,-7.0615,-7.0913,-7.1483,-7.2611,-7.4696,-7.598,-7.7536,-7.9644,-8.0622,-8.1694,-8.3191,-8.405,-8.5525,-8.7763,-8.8065,-8.9125,-9.1041,-9.1929,-9.2907,-9.3973,-9.5041,-9.567,-9.59,-9.6136,-9.6325,-9.6394,-9.6459,-9.6597,-9.6699,-9.6753,-9.687,-9.7006,-9.7006,-9.7082,-9.7354,-9.9125,-9.985,-10.0086,-10.1915,-10.2477,-10.2601,-10.2616,-10.2712,-10.2694,-10.2811,-10.2789,-10.2991,-10.4116,-10.4906,-10.5612,-10.6718,-10.75,-10.8007,-10.7995,-10.7991,-10.7987,-10.7989,-10.802,-10.8002,-10.7911,-10.8601,-10.9199,-10.9398,-11.0589,-11.1606,-11.1704,-11.1799,-11.1911,-11.2492,-11.2583,-11.2583,-11.2583,-11.2408,-11.232,-11.232,-11.2395,-11.272,-11.33,-11.3494,-11.3926,-11.4587,-11.5307,-11.5599,-11.5599,-11.6176,-11.6432,-11.6108,-11.6108,-11.5996,-11.5696,-11.5696,-11.5696,-11.5696,-11.5421,-11.5288,-7.0175,-7.0256,-7.0256,-7.0256,-7.0025,-6.9784,-6.9784,-6.9532,-6.9305,-6.934,-6.934,-6.9487,-6.9813,-6.9885,-7.0062,-7.041,-7.0514,0.0,0.0,-7.1015,-7.16,-7.313,-7.5115,-7.7091,-7.8892,-7.9253,-8.0245,-8.2277,-8.3191,-8.4625,-8.6933,-8.7763,-8.9125,-9.1041,-9.1359,-9.2337,-9.3973,-9.4505,-9.5133,-9.59,-9.6136,-9.6325,-9.6394,-9.6459,-9.6597,-9.6699,-9.6753,-9.687,-9.7006,-9.7006,-9.7082,-9.7354,-9.913,-9.9853,-10.0086,-10.1915,-10.2477,-10.2601,-10.2685,-10.2698,-10.2792,-10.2781,-10.2789,-10.3109,-10.4784,-10.5413,-10.5808,-10.7499,-10.8008,-10.8007,-10.7995,-10.7991,-10.7987,-10.7989,-10.802,-10.8002,-10.7911,-10.8601,-10.9394,-11.0099,-11.1018,-11.1801,-11.2521,-11.2694,-11.2611,-11.2608,-11.2583,-11.2583,-11.2583,-11.2408,-11.232,-11.232,-11.2899,-11.33,-11.33,-11.4113,-11.4815,-11.5474,-11.6115,-11.6484,-11.6484,-11.6484,-11.6432,-11.6108,-11.6108,-11.5996,-11.5696,-11.5696,-11.5696,-11.5696,-11.5421,-11.5288,-7.1174,-7.0774,-7.0394,-7.0394,-7.051,-7.0619,-7.0619,-7.0756,-7.078,-7.0253,-7.0113,-7.0121,-6.992,-6.9885,-7.0062,-7.041,-7.0514,-7.0615,0.0,-7.1368,-7.2035,-7.3118,-7.4982,-7.6493,-7.734,-7.8433,-7.9834,-8.1455,-8.2332,-8.3801,-8.6028,-8.6933,-8.8066,-8.9411,-9.0751,-9.1766,-9.2337,-9.3931,-9.4826,-9.5133,-9.5906,-9.6361,-9.6497,-9.6492,-9.6597,-9.6792,-9.6783,-9.687,-9.7006,-9.7006,-9.7082,-9.7354,-9.913,-9.9853,-10.0086,-10.1914,-10.2591,-10.2616,-10.2712,-10.2683,-10.2792,-10.2781,-10.3218,-10.3889,-10.5019,-10.5804,-10.6511,-10.7695,-10.8008,-10.8007,-10.7995,-10.7991,-10.7987,-10.7989,-10.802,-10.808,-10.8691,-10.9381,-11.0213,-11.0995,-11.1914,-11.2502,-11.2716,-11.2694,-11.2689,-11.2608,-11.2583,-11.2583,-11.2583,-11.2408,-11.2514,-11.3096,-11.3209,-11.3803,-11.4886,-11.5706,-11.6209,-11.64,-11.65,-11.6484,-11.6484,-11.6484,-11.6432,-11.6108,-11.6108,-11.5996,-11.5696,-11.5696,-11.5696,-11.5696,-11.6031,-11.6087,-7.2588,-7.2276,-7.2015,-7.2015,-7.1931,-7.1837,-7.1837,-7.1769,-7.1552,-7.1026,-7.092,-7.0824,-7.0415,-7.0345,-7.0381,0.0,0.0,-7.0615,0.0,-7.1557,-7.2206,-7.2717,-7.4262,-7.5588,-7.647,-7.7525,-7.8887,-8.0597,-8.151,-8.2939,-8.516,-8.6065,-8.7197,-8.8577,-8.9877,-9.089,-9.1499,-9.3315,-9.4364,-9.4711,-9.5713,-9.6322,-9.6492,-9.6492,-9.6629,-9.6783,-9.6783,-9.687,-9.7006,-9.7006,-9.7082,-9.7354,-9.9151,-9.9872,-10.0086,-10.1893,-10.2585,-10.2607,-10.2698,-10.2694,-10.2811,-10.2781,-10.3413,-10.428,-10.5097,-10.5999,-10.6901,-10.7812,-10.8008,-10.8007,-10.7995,-10.7991,-10.7987,-10.7989,-10.8215,-10.8588,-10.9081,-11.0083,-11.0993,-11.1502,-11.2304,-11.2892,-11.2716,-11.2694,-11.2689,-11.2608,-11.2583,-11.2583,-11.2583,-11.268,-11.3018,-11.3522,-11.3983,-11.4809,-11.6204,-11.6596,-11.6825,-11.6823,-11.6616,-11.6484,-11.6484,-11.6484,-11.6432,-11.6108,-11.6108,-11.5996,-11.5696,-11.6002,-11.6193,-11.6193,-11.666,-11.7114]},{"header":{"parameterUnit":"m.s-1","parameterCategory":1,"la1":30.6,"la2":29.2853,"lo1":-89.7004,"lo2":-87.6739,"dy":0.0162,"dx":0.0183,"nx":112,"ny":82,"refTime":"2024-03-22T00:00:00:Z","depth":0,"parameterNumber":3,"parameterNumberName":"V-component_of_WINDS"},"data":[0.0,0.0,0.0,0.0,0.0,0.0,0.0,0.0,0.0,0.0,0.0,0.0,0.0,0.0,0.0,0.0,0.0,0.0,0.0,0.0,0.0,0.0,0.0,0.0,0.0,0.0,0.0,0.0,0.0,0.0,0.0,0.0,0.0,0.0,0.0,0.0,0.0,0.0,0.0,0.0,0.0,0.0,0.0,0.0,0.0,0.0,0.0,0.0,0.0,0.0,0.0,0.0,0.0,0.0,0.0,0.0,0.0,0.0,0.0,0.0,0.0,0.0,0.0,0.0,0.0,0.0,0.0,0.0,0.0,0.0,0.0,0.0,0.0,0.0,0.0,0.0,0.0,0.0,0.0,0.0,0.0,0.0,0.0,0.0,0.0,0.0,0.0,0.0,0.0,0.0,1.1281,1.1436,1.236,1.3288,1.3627,1.4068,1.4444,1.4716,0.0,0.0,0.0,0.0,0.0,0.0,0.0,0.0,0.0,0.0,0.0,0.0,0.0,0.0,0.0,0.0,0.0,0.0,0.0,0.0,0.0,0.0,0.0,0.0,0.0,0.0,0.0,0.0,0.0,0.0,0.0,0.0,0.0,0.0,0.0,0.0,0.0,0.0,0.0,0.0,0.0,0.0,0.0,0.0,0.0,0.0,0.0,0.0,0.0,0.0,0.0,0.0,0.0,0.0,0.0,0.0,0.0,0.0,0.0,0.0,0.0,0.0,0.0,0.0,0.0,0.0,0.0,0.0,0.0,0.0,0.0,0.0,0.0,0.0,0.0,0.0,0.0,0.0,0.0,0.0,0.0,0.0,0.0,0.0,0.0,0.0,0.0,0.0,0.0,0.0,0.0,0.0,0.0,0.0,0.0,0.0,0.0,0.0,0.0,0.0,0.0,0.0,0.0,0.0,1.1472,1.2351,1.2576,1.3021,1.3945,1.3826,1.413,1.4716,0.0,0.0,0.0,0.0,0.0,0.0,0.0,0.0,0.0,0.0,0.0,0.0,0.0,0.0,0.0,0.0,0.0,0.0,0.0,0.0,0.0,0.0,0.0,0.0,0.0,0.0,0.0,0.0,0.0,0.0,0.0,0.0,0.0,0.0,0.0,0.0,0.0,0.0,0.0,0.0,0.0,0.0,0.0,0.0,0.0,0.0,0.0,0.0,0.0,0.0,0.0,0.0,0.0,0.0,0.0,0.0,0.0,0.0,0.0,0.0,0.0,0.0,0.0,0.0,0.0,0.0,0.0,0.0,0.0,0.0,0.0,0.0,0.0,0.0,0.0,0.0,0.0,0.0,0.0,0.0,0.0,0.0,0.0,0.0,0.0,0.0,0.0,0.0,0.0,0.0,0.0,0.0,0.0,0.0,0.0,0.0,0.0,0.0,0.0,0.0,0.0,0.0,0.0,1.0892,1.1648,1.2239,1.2588,1.3061,1.3519,1.3767,1.4121,1.4565,1.4437,0.0,0.0,0.0,0.0,0.0,0.0,0.0,0.0,0.0,0.0,0.0,0.0,0.0,0.0,0.0,0.0,0.0,0.0,0.0,0.0,0.0,0.0,0.0,0.0,0.0,0.0,0.0,0.0,0.0,0.0,0.0,0.0,0.0,0.0,0.0,0.0,0.0,0.0,0.0,0.0,0.0,0.0,0.0,0.0,0.0,0.0,0.0,0.0,0.0,0.0,0.0,0.0,0.0,0.0,0.0,0.0,0.0,0.0,0.0,0.0,0.0,0.0,0.0,0.0,0.0,0.0,0.0,0.0,0.0,0.0,0.0,0.0,0.0,0.0,0.0,0.0,0.0,0.0,0.0,0.0,0.0,0.0,0.0,0.0,0.0,0.0,0.0,0.0,0.0,0.0,0.0,0.0,0.0,0.0,0.0,0.0,0.0,0.0,0.0,0.0,0.0,0.0,1.1088,1.1653,1.2192,1.2749,1.3075,1.3426,1.3698,1.4079,1.4376,1.4334,0.0,0.0,0.0,0.0,0.0,0.0,0.0,0.0,0.0,0.0,0.0,0.0,0.0,0.0,0.0,0.0,0.0,0.0,0.0,0.0,0.0,0.0,0.0,0.0,0.0,0.0,0.0,0.0,0.0,0.0,0.0,0.0,0.0,0.0,0.0,0.0,0.0,0.0,0.0,0.0,0.0,0.0,0.0,0.0,0.0,0.0,0.0,0.0,0.0,0.0,0.0,0.0,0.0,0.0,0.0,0.0,0.0,0.0,0.0,0.0,0.0,0.0,0.0,0.0,0.0,0.0,0.0,0.0,0.0,0.0,0.0,0.0,0.0,0.0,0.0,0.0,0.0,0.0,0.0,0.0,0.0,0.0,0.0,0.0,0.0,0.0,0.0,0.0,0.0,0.0,0.0,0.0,0.0,0.0,0.0,0.0,0.0,0.0,0.0,0.0,0.0,0.0,1.1142,1.1721,1.2462,1.2708,1.3116,1.3575,1.3763,1.4079,1.4376,1.4334,0.0,0.0,0.0,0.0,0.0,0.0,0.0,0.0,0.0,0.0,0.0,0.0,0.0,0.0,0.0,0.0,0.0,0.0,0.0,0.0,0.0,0.0,0.0,0.0,0.0,0.0,0.0,0.0,0.0,0.0,0.0,0.0,0.0,0.0,0.0,0.0,0.0,0.0,0.0,0.0,0.0,0.0,0.0,0.0,0.0,0.0,0.0,0.0,0.0,0.0,0.0,0.0,0.0,0.0,0.0,0.0,0.0,0.0,0.0,0.0,0.0,0.0,0.0,0.0,0.0,0.0,0.0,0.0,0.0,0.0,0.0,0.0,0.0,0.0,0.0,0.0,0.0,0.0,0.0,0.0,0.0,0.0,0.0,0.0,0.0,0.0,0.0,0.0,0.0,0.0,0.0,0.0,0.0,0.0,0.0,0.0,0.0,0.0,0.0,0.0,0.0,0.0,1.1066,1.1826,1.2169,1.288,1.3356,1.3415,1.3596,1.3914,1.4072,0.0,0.0,0.0,0.0,0.0,0.0,0.0,0.0,0.0,0.0,0.0,0.0,0.0,0.0,0.0,0.0,0.0,0.0,0.0,0.0,0.0,0.0,0.0,0.0,0.0,0.0,0.0,0.0,0.0,0.0,0.0,0.0,0.0,0.0,0.0,0.0,0.0,0.0,0.0,0.0,0.0,0.0,0.0,0.0,0.0,0.0,0.0,0.0,0.0,0.0,0.0,0.0,0.0,0.0,0.0,0.0,0.0,0.0,0.0,0.0,0.0,0.0,0.0,0.0,0.0,0.0,0.0,0.0,0.0,0.0,0.0,0.0,0.0,0.0,0.0,0.0,0.0,0.0,0.0,0.0,0.0,0.0,0.0,0.0,0.0,0.0,0.0,0.0,0.0,0.0,0.0,0.0,0.0,0.0,0.0,0.0,0.0,0.0,0.0,0.0,0.0,0.0,1.0226,1.0976,1.1577,1.191,1.2675,1.3171,1.3186,1.3514,1.3684,1.4005,0.0,0.0,0.0,0.0,0.0,0.0,0.0,0.0,0.0,0.0,0.0,0.0,0.0,0.0,0.0,0.0,0.0,0.0,0.0,0.0,0.0,0.0,0.0,0.0,0.0,0.0,0.0,0.0,0.0,0.0,0.0,0.0,0.0,0.0,0.0,0.0,0.0,0.0,0.0,0.0,0.0,0.0,0.0,0.0,0.0,0.0,0.0,0.0,0.0,0.0,0.0,0.0,0.0,0.0,0.0,0.0,0.0,0.0,0.0,0.0,0.0,0.0,0.0,0.0,0.0,0.0,0.0,0.0,0.0,0.0,0.0,0.0,0.0,0.0,0.0,0.0,0.0,0.0,0.0,0.0,0.0,0.0,0.0,0.0,0.0,0.0,0.0,0.0,0.0,0.0,0.0,0.0,0.0,0.0,0.0,0.0,0.0,0.0,0.0,0.0,0.0,0.0,1.034,1.0706,1.1288,1.2044,1.2401,1.284,1.3186,1.3521,1.3684,0.0,0.0,0.0,0.0,0.0,0.0,0.0,0.0,0.0,0.0,0.0,0.0,0.0,0.0,0.0,0.0,0.0,0.0,0.0,0.0,0.0,0.0,0.0,0.0,0.0,0.0,0.0,0.0,0.0,0.0,0.0,0.0,0.0,0.0,0.0,0.0,0.0,0.0,0.0,0.0,0.0,0.0,0.0,0.0,0.0,0.0,0.0,0.0,0.0,0.0,0.0,0.0,0.0,0.0,0.0,0.0,0.0,0.0,0.0,0.0,0.0,0.0,0.0,0.0,0.0,0.0,0.0,0.0,0.0,0.0,0.0,0.0,0.0,0.0,0.0,0.0,0.0,0.0,0.0,0.0,0.0,0.0,0.0,0.0,0.0,0.0,0.0,0.0,0.0,0.0,0.0,0.0,0.0,0.0,0.0,0.0,0.0,0.0,0.0,0.0,0.0,0.0,0.0,1.0362,1.0779,1.1382,1.205,1.2401,1.2886,1.3336,1.3267,1.3415,1.4162,0.0,0.0,0.0,0.0,0.0,0.0,0.0,0.0,0.0,0.0,0.0,0.0,0.0,0.0,0.0,0.0,0.0,0.0,0.0,0.0,0.0,0.0,0.0,0.0,0.0,0.0,0.0,0.0,0.0,0.0,0.0,0.0,0.0,0.0,0.0,0.0,0.0,0.0,0.0,0.0,0.0,0.0,0.0,0.0,0.0,0.0,0.0,0.0,0.0,0.0,0.0,0.0,0.0,0.0,0.0,0.0,0.0,0.0,0.0,0.0,0.0,0.0,0.0,0.0,0.0,0.0,0.0,0.0,0.0,0.0,0.0,0.0,0.0,0.0,0.0,0.0,0.0,0.0,0.0,0.0,0.0,0.0,0.0,0.0,0.0,0.0,0.0,0.0,0.0,0.0,0.0,0.0,0.0,0.0,0.0,0.0,0.0,0.0,0.0,0.0,0.0,0.0,1.0373,1.0812,1.1259,1.1724,1.2235,1.2567,1.3065,1.318,1.3339,1.3909,0.0,0.0,0.0,0.0,0.0,0.0,0.0,0.0,0.0,0.0,0.0,0.0,0.0,0.0,0.0,0.0,0.0,0.0,0.0,0.0,0.0,0.0,0.0,0.0,0.0,0.0,0.0,0.0,0.0,0.0,0.0,0.0,0.0,0.0,0.0,0.0,0.0,0.0,0.0,0.0,0.0,0.0,0.0,0.0,0.0,0.0,0.0,0.0,0.0,0.0,0.0,0.0,0.0,0.0,0.0,0.0,0.0,0.0,0.0,0.0,0.0,0.0,0.0,0.0,0.0,0.0,0.0,0.0,0.0,0.0,0.0,0.0,0.0,0.0,0.0,0.0,0.0,0.0,0.0,0.0,0.0,0.0,0.0,0.0,0.0,0.0,0.0,0.0,0.0,0.0,0.0,0.0,0.0,0.0,0.0,0.0,0.0,0.0,0.0,0.0,0.0,0.0,1.0222,1.0503,1.0782,1.1392,1.1902,1.2235,1.2733,1.2933,1.3267,1.3596,0.0,0.0,0.0,0.0,0.0,0.0,0.0,0.0,0.0,0.0,0.0,0.0,0.0,0.0,0.0,0.0,0.0,0.0,0.0,0.0,0.0,0.0,0.0,0.0,0.0,0.0,0.0,0.0,0.0,0.0,0.0,0.0,0.0,0.0,0.0,0.0,0.0,0.0,0.0,0.0,0.0,0.0,0.0,0.0,0.0,0.0,0.0,0.0,0.0,0.0,0.0,0.0,0.0,0.0,0.0,0.0,0.0,0.0,0.0,0.0,-1.7434,-1.6478,0.0,0.0,0.0,0.0,0.0,0.0,0.0,0.0,0.0,0.0,0.0,0.0,0.0,0.0,0.0,0.0,0.0,0.0,0.0,0.0,0.0,0.0,0.0,0.0,0.0,0.0,0.0,0.0,0.0,0.0,0.0,0.0,0.0,0.0,0.0,0.0,0.0,0.0,0.0,0.0,0.9851,1.0458,1.0876,1.1403,1.1902,1.2235,1.2733,1.2933,1.3267,1.3596,1.361,0.0,0.0,0.0,0.0,0.0,0.0,0.0,0.0,0.0,0.0,0.0,0.0,0.0,0.0,0.0,0.0,0.0,0.0,0.0,0.0,0.0,0.0,0.0,0.0,0.0,0.0,0.0,0.0,0.0,0.0,0.0,0.0,0.0,0.0,0.0,0.0,0.0,0.0,0.0,0.0,0.0,0.0,0.0,0.0,0.0,0.0,0.0,0.0,0.0,0.0,0.0,0.0,0.0,0.0,0.0,0.0,0.0,0.0,0.0,-1.7756,-1.641,0.0,0.0,0.0,0.0,0.0,0.0,0.0,0.0,0.0,0.0,0.0,0.0,0.0,0.0,0.0,0.0,0.0,0.0,0.0,0.0,0.0,0.0,0.0,0.0,0.0,0.0,0.0,0.0,0.0,0.0,0.0,0.0,0.0,0.0,0.0,0.0,0.0,0.0,0.0,0.0,0.9891,1.0382,1.0824,1.116,1.1496,1.1999,1.2501,1.2707,1.305,1.3387,1.3634,0.0,0.0,0.0,0.0,0.0,0.0,0.0,0.0,0.0,0.0,0.0,0.0,0.0,0.0,0.0,0.0,0.0,0.0,0.0,0.0,0.0,0.0,0.0,0.0,0.0,0.0,0.0,0.0,0.0,0.0,0.0,0.0,0.0,0.0,0.0,0.0,0.0,0.0,0.0,0.0,0.0,0.0,0.0,0.0,0.0,0.0,0.0,0.0,0.0,0.0,0.0,0.0,0.0,-2.1787,-2.1383,-2.1058,-2.0115,-1.9572,-1.9027,-1.7822,-1.645,-1.5347,-1.5174,0.0,0.0,0.0,0.0,0.0,0.0,0.0,0.0,0.0,0.0,0.0,0.0,0.0,0.0,0.0,0.0,0.0,0.0,0.0,0.0,0.0,0.0,0.2727,0.3046,0.3392,0.3864,0.4022,0.0,0.0,0.0,0.0,0.0,0.0,0.0,0.0,0.0,0.0,0.0,0.9793,1.0477,1.0779,1.0954,1.1294,1.1792,1.2107,1.2508,1.2866,1.3186,1.3514,1.3605,0.0,0.0,0.0,0.0,0.0,0.0,0.0,0.0,0.0,0.0,0.0,0.0,0.0,0.0,0.0,0.0,0.0,0.0,0.0,0.0,0.0,0.0,0.0,0.0,0.0,0.0,0.0,0.0,0.0,0.0,0.0,0.0,-1.8022,-1.8819,0.0,0.0,0.0,0.0,0.0,0.0,0.0,0.0,0.0,0.0,0.0,0.0,0.0,-2.232,-2.2589,-2.2505,-2.2495,-2.2212,-2.2049,-2.1519,-2.0778,-2.0046,-1.9497,-1.9074,-1.7885,0.0,-1.5846,-1.5319,0.0,0.0,0.0,0.0,0.0,0.0,0.0,0.0,0.0,0.0,0.0,0.0,0.0,0.0,0.0,0.0,0.0,0.0,0.0,0.0,0.0,0.0,0.2596,0.2596,0.2925,0.341,0.3874,0.4512,0.5155,0.5155,0.5486,0.5978,0.0,0.0,0.0,0.0,0.0,0.0,0.9511,1.0139,1.0563,1.1079,1.1423,1.1892,1.2113,1.2596,1.2977,1.3193,1.3514,1.3605,1.3752,1.387,0.0,0.0,0.0,0.0,0.0,0.0,0.0,0.0,0.0,0.0,0.0,0.0,0.0,0.0,0.0,0.0,0.0,0.0,0.0,0.0,0.0,0.0,0.0,0.0,0.0,0.0,0.0,0.0,0.0,-1.8671,-1.9175,-1.9407,-1.9866,-2.0417,0.0,0.0,0.0,0.0,0.0,0.0,0.0,0.0,0.0,-2.2202,-2.2686,-2.3106,-2.3483,-2.3273,-2.3067,-2.3051,-2.2586,-2.1982,-2.1211,-2.0552,-1.9983,-1.9666,-1.8238,-1.7305,-1.6882,-1.5582,-1.4434,-1.3211,0.0,0.0,0.0,0.0,-0.8678,-0.702,-0.6976,-0.5727,-0.4142,-0.4099,0.0,0.0,0.0,0.0,0.0,0.0,0.0,0.1014,0.1522,0.2028,0.2366,0.2703,0.3041,0.3549,0.3885,0.456,0.503,0.5229,0.5529,0.6041,0.6615,0.6956,0.0,0.0,0.0,0.8915,0.9302,0.9913,1.0677,1.0851,1.1199,1.1698,1.1986,1.2362,1.2726,1.2938,1.3207,1.3618,1.4027,1.3921,1.4127,0.0,0.0,0.0,0.0,0.0,0.0,0.0,0.0,0.0,0.0,0.0,0.0,0.0,0.0,0.0,0.0,0.0,0.0,0.0,0.0,0.0,0.0,0.0,0.0,0.0,0.0,0.0,0.0,-1.9683,-2.0055,-2.0215,-2.0712,-2.1192,0.0,0.0,0.0,0.0,0.0,0.0,-2.2921,-2.331,-2.3257,-2.2934,-2.3365,-2.3806,-2.429,-2.402,-2.3796,-2.3799,-2.3082,-2.2406,-2.156,-2.1226,-2.0621,-1.9593,-1.8436,-1.7836,-1.7547,-1.578,-1.4532,-1.3676,-1.2858,-1.1605,-1.0349,-1.0137,-0.8965,-0.7252,-0.7194,-0.5912,-0.4285,-0.4238,-0.3515,-0.2632,-0.2104,0.0,0.0,0.0,0.0,0.0877,0.1228,0.1754,0.228,0.2632,0.3158,0.3508,0.3857,0.4372,0.4836,0.5166,0.5625,0.5989,0.6596,0.6951,0.0,0.7968,0.8527,0.8887,0.9061,0.9845,1.0439,1.0615,1.1143,1.1483,1.1794,1.2146,1.2514,1.2952,1.3045,1.3492,1.4135,1.3818,1.4037,1.4629,0.0,0.0,0.0,0.0,0.0,0.0,0.0,0.0,0.0,0.0,0.0,0.0,0.0,0.0,0.0,0.0,0.0,0.0,0.0,0.0,0.0,0.0,0.0,0.0,0.0,0.0,0.0,0.0,0.0,-2.1556,-2.1459,0.0,0.0,0.0,0.0,-2.3683,-2.3804,-2.3785,-2.3926,-2.4006,-2.3838,-2.3677,-2.3946,-2.4301,-2.4764,-2.4266,-2.4022,-2.4274,-2.3479,-2.237,-2.1379,-2.1572,-2.0739,-1.8963,-1.8511,-1.7873,-1.7284,-1.5618,-1.4845,-1.422,-1.2808,-1.175,-1.0773,-1.0104,-0.8872,-0.749,-0.7487,-0.614,-0.4426,-0.4381,-0.3433,-0.2151,-0.1614,-0.1076,0.0,0.0,0.0359,0.0897,0.1255,0.1793,0.2151,0.269,0.287,0.3047,0.3404,0.3911,0.4573,0.5383,0.5542,0.5718,0.6243,0.0,0.7111,0.7641,0.8062,0.864,0.9162,0.9605,1.0199,1.0733,1.1088,1.1577,1.1806,1.2307,1.2718,1.2965,1.3144,1.3487,1.3817,1.3995,1.4057,1.4353,1.4621,0.0,0.0,0.0,0.0,0.0,0.0,0.0,0.0,0.0,0.0,0.0,0.0,0.0,0.0,0.0,0.0,0.0,0.0,0.0,0.0,0.0,0.0,0.0,0.0,0.0,0.0,0.0,0.0,-2.2121,-2.2692,0.0,-2.2967,-2.3347,-2.3756,-2.3816,-2.448,-2.453,-2.4041,-2.4669,-2.461,-2.3978,-2.4657,-2.4907,-2.4682,-2.47,-2.4518,-2.4332,-2.3933,-2.3069,-2.2152,-2.2223,-2.1373,-1.9641,-1.9069,-1.8426,-1.7713,-1.5989,-1.506,-1.4331,-1.2846,-1.1728,-1.1011,-1.0388,-0.9148,-0.7718,-0.767,-0.6493,-0.4941,-0.4301,-0.3509,-0.2564,-0.1649,-0.1283,-0.1099,-0.0183,0.0183,0.0366,0.0916,0.1283,0.1832,0.238,0.2747,0.3113,0.3479,0.4016,0.4549,0.5253,0.5488,0.5746,0.6313,0.667,0.723,0.7684,0.8262,0.866,0.8903,0.9662,1.0202,1.032,1.103,1.152,1.1577,1.2372,1.2805,1.2706,1.3173,1.3645,1.3988,1.4099,1.4336,1.4524,1.4814,1.5093,0.0,0.0,0.0,0.0,0.0,0.0,0.0,0.0,0.0,0.0,0.0,0.0,0.0,0.0,0.0,0.0,0.0,0.0,0.0,0.0,0.0,0.0,0.0,0.0,0.0,-2.2378,-2.3006,-2.3126,-2.3575,-2.389,-2.3681,-2.4302,-2.4578,-2.4359,-2.5204,-2.5252,-2.4555,-2.5354,-2.5336,-2.4581,-2.527,-2.5559,-2.52,-2.5053,-2.4814,-2.4686,-2.3994,-2.3317,-2.2662,-2.2509,-2.1458,-1.9738,-1.9521,-1.8842,-1.7912,-1.6258,-1.535,-1.4801,-1.2821,-1.1643,-1.1082,-1.0485,-0.9224,-0.7946,-0.7257,-0.6237,-0.5047,-0.4215,-0.3418,-0.2834,-0.189,-0.1512,-0.1323,-0.0378,0.0,0.0189,0.0567,0.1134,0.1701,0.2078,0.2645,0.3208,0.3386,0.3938,0.4483,0.4839,0.5442,0.5873,0.6097,0.664,0.7207,0.767,0.8232,0.862,0.8864,0.9605,1.0128,1.0249,1.0967,1.1464,1.1525,1.2154,1.2595,1.268,1.3197,1.3688,1.3818,1.4317,1.4592,1.463,1.508,1.5496,1.5564,0.0,0.0,0.0,0.0,0.0,0.0,0.0,0.0,0.0,0.0,0.0,0.0,0.0,0.0,0.0,0.0,0.0,0.0,0.0,0.0,0.0,0.0,0.0,-2.2996,-2.2899,-2.334,-2.4502,-2.4219,-2.4389,-2.5028,-2.5075,-2.5096,-2.5385,-2.594,-2.5938,-2.5537,-2.6062,-2.5995,-2.5507,-2.5766,-2.604,-2.6118,-2.5522,-2.534,-2.5136,-2.3861,-2.3117,-2.289,-2.242,-2.1181,-1.9647,-1.9655,-1.8906,-1.7445,-1.6206,-1.5717,-1.5452,-1.2731,-1.1701,-1.14,-1.0372,-0.9281,-0.796,-0.6214,-0.5151,-0.4716,-0.4125,-0.3536,-0.2947,-0.1964,-0.1571,-0.1374,-0.0393,0.0,0.0196,0.0589,0.1178,0.1767,0.2161,0.275,0.3134,0.3106,0.3842,0.4565,0.4522,0.5225,0.5932,0.5924,0.6291,0.6841,0.7398,0.7767,0.0,0.8881,0.9245,0.9797,1.0345,1.0712,1.1216,1.165,1.2001,1.2431,1.2698,1.3203,1.3422,1.3654,1.4318,1.4646,1.4482,1.5593,1.6119,1.6221,0.0,0.0,0.0,0.0,0.0,0.0,0.0,0.0,0.0,0.0,0.0,0.0,0.0,0.0,0.0,0.0,0.0,0.0,0.0,0.0,0.0,-2.4146,-2.4088,-2.3406,-2.4031,-2.4566,-2.4596,-2.5232,-2.557,-2.5104,-2.5767,-2.6124,-2.5687,-2.6399,-2.6411,-2.5822,-2.6496,-2.6353,-2.5518,-2.625,-2.6338,-2.5501,-2.5771,-2.5729,-2.4928,-2.4437,-2.3744,-2.3479,-2.2873,-2.1558,-1.9983,-1.9983,-1.9071,-1.7451,-1.6516,-1.5928,-1.5064,-1.2836,-1.2035,-1.1718,-1.0589,-0.9419,-0.805,-0.6777,-0.5709,-0.4851,-0.4618,-0.399,-0.2973,-0.2362,-0.1964,-0.1374,-0.0785,-0.0393,0.0,0.0196,0.0982,0.1571,0.1767,0.2553,0.3141,0.3131,0.3513,0.4086,0.4657,0.5227,0.5746,0.5954,0.6291,0.686,0.7466,0.7853,0.8435,0.906,0.9445,0.9978,1.0464,1.0825,1.1336,1.1781,1.2051,1.2507,1.2973,1.3312,1.3513,1.3953,1.4203,1.46,1.4977,1.5441,1.5939,0.0,0.0,0.0,0.0,0.0,0.0,0.0,0.0,0.0,0.0,0.0,0.0,0.0,0.0,0.0,0.0,0.0,0.0,0.0,0.0,0.0,0.0,-2.5114,-2.514,-2.4708,-2.4933,-2.5269,-2.5621,-2.6128,-2.6268,-2.6118,-2.6529,-2.6833,-2.6643,-2.7148,-2.6967,-2.6405,-2.7044,-2.6901,-2.611,-2.6756,-2.6566,-2.571,-2.6185,-2.589,-2.5033,-2.4348,-2.3878,-2.3848,-2.2946,-2.184,-2.0311,-2.0251,-1.9078,-1.7485,-1.6739,-1.5949,-1.5106,0.0,0.0,0.0,0.0,-0.9126,-0.8176,-0.7101,-0.5807,-0.4935,-0.4911,-0.4072,-0.324,-0.2619,-0.2005,-0.1599,-0.1,-0.0399,0.0,0.0,0.0596,0.1391,0.159,0.2187,0.2781,0.3164,0.3555,0.4142,0.4518,0.5105,0.0,0.6096,0.6238,0.66,0.7363,0.7743,0.8138,0.8948,0.9332,0.969,1.0197,1.0751,1.1081,1.1531,1.2008,0.0,0.0,0.0,1.3676,1.4249,1.4529,0.0,0.0,0.0,1.6299,1.7029,1.6942,0.0,0.0,1.8335,1.8752,0.0,0.0,0.0,0.0,0.0,0.0,0.0,0.0,0.0,0.0,0.0,0.0,0.0,0.0,0.0,0.0,-2.6224,-2.6676,-2.6603,-2.5982,-2.5828,-2.6908,-2.6824,-2.6839,-2.7383,-2.7311,-2.7335,-2.7727,-2.7767,-2.7558,-2.709,-2.7615,0.0,0.0,0.0,-2.6955,-2.6327,-2.6549,-2.6147,-2.5048,-2.412,-2.3848,-2.3823,-2.2668,-2.1622,-2.0601,-2.0467,-1.924,-1.7403,-1.6819,-1.6068,-1.5123,-1.3308,-1.2425,-1.18,-0.9543,-0.8607,-0.8535,-0.7191,0.0,0.0,-0.499,-0.4156,-0.3117,-0.2698,-0.227,-0.1642,-0.1026,-0.0612,0.0,0.0,0.0405,0.1012,0.1414,0.202,0.2621,0.2998,0.359,0.3979,0.4538,0.512,0.5513,0.6095,0.624,0.6566,0.7466,0.7647,0.8024,0.8968,0.9158,0.9344,0.9901,1.0469,0.0,1.1273,1.1626,1.227,1.2963,1.3095,1.3681,1.4632,1.4987,1.5406,1.5895,1.6077,1.6593,1.726,1.7077,1.7396,1.8032,1.861,1.9055,0.0,0.0,0.0,0.0,0.0,0.0,0.0,0.0,0.0,0.0,0.0,0.0,0.0,0.0,0.0,-2.6433,-2.6997,-2.7378,-2.7522,-2.7282,-2.707,-2.7004,-2.7554,-2.7729,-2.7461,-2.7836,-2.8025,-2.8024,-2.8229,-2.8031,-2.7364,-2.8049,-2.7873,-2.695,-2.7123,-2.6938,-2.6559,-2.6355,-2.5779,-2.5038,-2.4162,0.0,-2.3556,-2.2185,-2.1287,-2.0601,-2.0102,-1.8708,-1.7085,-1.6835,-1.5601,-1.3409,-1.2975,-1.1871,-1.0807,-0.9473,-0.8767,-0.8472,-0.7324,-0.6009,-0.5131,-0.5058,-0.4405,-0.3354,-0.312,-0.2488,0.0,-0.1656,-0.0827,0.0,0.0,0.0409,0.102,0.1417,0.202,0.2625,0.3023,0.3221,0.3421,0.4018,0.462,0.5009,0.5566,0.6106,0.6451,0.7021,0.7414,0.7973,0.8488,0.906,0.9415,0.991,1.0469,1.0838,1.1385,1.1668,1.2157,1.2662,1.3375,1.3898,1.4441,1.4974,1.5347,1.5391,1.6204,1.6842,1.7138,1.7617,1.7918,1.8532,1.9029,1.9351,0.0,0.0,0.0,0.0,0.0,0.0,0.0,0.0,0.0,0.0,0.0,-2.6004,-2.6501,0.0,-2.6873,-2.7332,-2.762,-2.794,-2.83,-2.8189,-2.7991,-2.8011,-2.8193,-2.8207,-2.8269,-2.8309,-2.839,-2.8706,-2.8581,-2.8462,-2.7798,-2.8301,-2.8074,-2.7294,-2.7229,-2.6991,-2.6792,-2.6462,-2.5824,-2.4922,-2.4437,-2.411,-2.3521,-2.2218,-2.133,-2.0855,-2.0152,-1.8697,-1.6994,-1.6233,-1.4734,-1.2991,-1.2891,-1.2042,-1.0516,-0.9325,-0.8828,-0.8565,-0.7411,-0.6286,-0.5176,-0.5129,-0.4251,-0.3386,-0.3371,-0.2516,-0.1672,-0.1672,-0.0833,0.0,0.0,0.0206,0.0618,0.1435,0.1837,0.2237,0.305,0.324,0.3433,0.3836,0.4444,0.504,0.5616,0.5991,0.6547,0.6874,0.7453,0.8029,0.857,0.8954,0.9503,0.9602,1.0358,1.0906,1.1042,1.1871,1.2545,1.3103,1.3651,1.4049,1.4523,1.5262,1.5667,1.5593,1.6294,1.6886,1.7391,1.7639,1.8104,1.8603,1.9174,1.9737,0.0,0.0,0.0,0.0,0.0,0.0,0.0,-2.6789,-2.6696,-2.6726,-2.6653,-2.6726,-2.7538,-2.7429,-2.7395,-2.8075,-2.8172,-2.8462,-2.8924,-2.8645,-2.8725,-2.9173,-2.8642,-2.8552,-2.9065,-2.8744,-2.8863,-2.9301,-2.8897,-2.87,-2.8232,-2.8552,-2.8309,-2.7704,-2.7523,-2.7218,-2.7004,-2.6738,-2.5836,-2.475,-2.465,-2.4121,-2.3432,-2.2205,-2.1582,-2.1108,-1.9901,-1.8642,-1.7104,-1.5588,-1.4295,-1.303,-1.3015,-1.2218,-1.0692,-0.94,-0.8889,-0.8641,-0.7475,-0.633,-0.5205,-0.5189,-0.4299,-0.3419,-0.3414,-0.2545,-0.1687,-0.1687,-0.084,0.0,0.0,0.0,0.0208,0.1453,0.1651,0.1848,0.3073,0.3257,0.344,0.3838,0.4444,0.5049,0.545,0.6057,0.6628,0.6919,0.7495,0.8081,0.8456,0.904,0.9399,0.9314,1.0253,1.0773,1.1047,1.1892,1.2958,1.3517,1.3757,1.4231,1.4787,1.5369,1.5823,1.6003,1.6448,1.7006,1.7521,1.7889,1.8335,1.8668,1.9358,1.9971,-3.1195,-3.0299,-2.9322,-2.8709,-2.8032,-2.7687,0.0,-2.7783,-2.7453,-2.7467,-2.7739,-2.7847,-2.7768,-2.8099,-2.8515,-2.8582,-2.8811,-2.9033,-2.9434,-2.8964,-2.8879,-2.9761,-2.9281,-2.9017,-2.9104,-2.909,-2.928,-2.9326,-2.9238,-2.8966,-2.8506,-2.8974,-2.8734,-2.7962,-2.7342,-2.7034,-2.7247,-2.6398,-2.5468,-2.427,-2.4472,-2.388,-2.2724,-2.1749,-2.1108,-2.0871,-1.8728,-1.7457,-1.7104,-1.5672,-1.442,-1.3139,-1.3039,-1.2299,-1.111,-0.9565,-0.9012,-0.8717,-0.7544,-0.6191,-0.5289,-0.5209,-0.4318,-0.3448,-0.342,-0.2556,-0.1703,-0.1703,-0.0851,0.0,0.0,0.0,0.021,0.1456,0.1659,0.2067,0.3076,0.3273,0.3262,0.3235,0.4038,0.4847,0.4847,0.5856,0.6458,0.6643,0.7443,0.8021,0.7956,0.8936,0.9493,0.9403,1.0293,1.1156,1.1994,1.2156,1.2716,1.3664,1.3535,1.4012,1.4943,1.535,1.5629,1.6167,1.668,1.7198,1.7551,1.8433,1.8963,1.9142,2.0064,2.0295,-3.173,-3.057,-2.9629,-2.9543,-2.9032,-2.851,-2.8938,-2.8715,-2.8412,-2.8529,-2.87,-2.8871,-2.8656,-2.8907,-2.9135,-2.9305,-2.9102,-2.9367,-2.9957,-2.9382,-2.9187,-3.0111,-2.9784,-2.9422,-2.926,-2.9346,-2.9294,-2.9396,-2.9087,-2.8908,-2.8757,-2.8718,-2.839,-2.7568,-2.7289,-2.6985,-2.6843,-2.5836,-2.5177,-2.4472,-2.419,-2.3876,-2.3041,-2.1788,-2.0904,-2.0197,-1.8179,-1.7391,-1.7324,-1.5745,-1.4482,-1.3248,-1.3139,-1.2371,-1.1139,-0.9593,-0.9063,-0.8794,-0.7611,-0.6449,-0.5309,-0.5272,-0.4355,-0.3454,-0.3442,-0.2783,-0.2132,-0.1706,-0.1066,-0.0426,0.0,0.0,0.0212,0.1055,0.147,0.1881,0.2706,0.3107,0.3294,0.3262,0.4071,0.4876,0.4851,0.5654,0.6461,0.6461,0.7465,0.8055,0.8028,0.9024,0.9786,0.9892,1.0574,1.1052,1.1714,1.2085,1.2628,1.3688,1.3633,1.4158,1.5092,1.532,1.5788,1.6338,1.6613,1.7104,1.764,1.8553,1.9094,1.9094,1.9995,2.0403,-3.2127,-3.1157,-3.0432,-3.0522,-2.9911,-2.9404,-2.9777,-2.9532,-2.9331,-2.9379,-2.9518,-2.9543,-2.951,-2.951,-2.955,-3.0008,-2.9452,-2.9473,-3.049,-2.9669,-2.9383,-3.0293,-3.0083,-2.9779,-2.925,-2.9441,-2.9557,-2.9332,-2.8883,-2.8871,-2.9009,-2.8599,-2.8034,-2.7329,-2.7224,-2.6882,-2.6485,-2.5713,-2.5084,-2.4586,-2.4077,-2.3555,-2.3021,-2.1752,-2.063,-1.9657,-1.8077,-1.7532,-1.7483,-1.5818,-1.4539,-1.331,-1.3201,-1.2416,-1.0952,-0.9647,-0.9117,-0.8847,-0.7645,-0.6473,-0.533,-0.5319,-0.4387,-0.3468,-0.346,-0.3006,-0.2558,-0.1919,-0.1279,-0.0853,-0.0213,0.0,0.0213,0.0853,0.1273,0.1899,0.2315,0.293,0.3325,0.3294,0.4101,0.4698,0.487,0.5664,0.6259,0.6461,0.7264,0.7867,0.8065,0.9074,0.9845,1.0343,1.0661,1.1163,1.1442,1.2015,1.2735,1.356,1.3737,1.4096,1.4993,1.5265,1.5768,1.6509,1.6758,1.7063,1.7786,1.8706,1.9071,1.9253,2.0161,2.0533,-3.2985,-3.2644,-3.2416,-3.1536,-3.1073,-3.082,-3.0553,-3.0241,-3.0028,-2.9814,-3.0118,-3.0252,-2.9969,-2.9926,-3.0102,-3.0762,-2.99,-2.9625,-3.0953,-2.9818,-2.9383,-3.0293,-3.0083,-2.9779,-2.925,-2.981,-2.9984,-2.9369,-2.9048,-2.9127,-2.9271,-2.87,-2.8186,-2.7789,-2.7377,-2.6942,-2.671,-2.5779,-2.5084,-2.4586,-2.4077,-2.3335,-2.2296,-2.1042,-2.0394,-1.9657,-1.8197,-1.7629,-1.7483,-1.5919,-1.4606,-1.331,-1.3201,-1.2461,-1.1043,-0.9786,-0.9202,-0.8847,-0.7645,-0.65,-0.5373,-0.533,-0.4406,-0.3495,-0.3467,-0.3006,-0.2558,-0.1919,-0.1279,-0.0853,-0.0213,0.0,0.0213,0.0853,0.1279,0.1914,0.2318,0.2945,0.3356,0.3325,0.3708,0.4299,0.4909,0.528,0.5853,0.6461,0.7065,0.7465,0.8069,0.9074,0.9845,1.0343,1.0725,1.1275,1.1747,1.2137,1.267,1.3124,1.368,1.4,1.4429,1.4986,1.5737,1.6673,1.6666,1.7227,1.816,1.8727,1.9099,1.9657,2.0205,2.077,-3.3501,-3.3027,-3.2571,-3.1787,-3.1325,-3.0918,-3.0914,-3.0709,-3.0493,-3.0537,-3.0704,-3.0653,-3.0225,-3.0065,-3.0102,-3.0762,-2.99,-2.9625,-3.0953,-3.0006,-2.9607,-3.0321,-3.0423,-3.0201,-2.9474,-2.9822,-2.9997,-2.9369,-2.8849,-2.8733,-2.9283,-2.849,-2.776,-2.7142,-2.7176,-2.6952,-2.6053,-2.5114,-2.4694,-2.4788,-2.3679,-2.2669,-2.1752,-2.1086,-2.0144,-1.8927,-1.819,-1.7441,-1.6883,-1.5947,-1.4648,-1.341,-1.3234,-1.2461,-1.1043,-0.9794,-0.924,-0.8913,-0.7706,-0.6533,-0.5383,-0.5366,-0.444,-0.3524,-0.3495,-0.3465,-0.3007,-0.1922,-0.1492,-0.1279,-0.0213,0.0,0.0,0.0213,0.1066,0.1704,0.1911,0.2759,0.3388,0.3356,0.3762,0.4362,0.4716,0.5306,0.5895,0.6466,0.7264,0.8069,0.8471,0.9279,0.9669,0.9836,1.0631,1.1187,1.1275,1.2056,1.2792,1.3251,1.3819,1.4186,1.4712,1.5003,1.5899,1.6845,1.6733,1.7242,1.8176,1.8744,1.9116,1.9674,2.0223,2.0603,-3.384,-3.3275,-3.282,-3.2133,-3.1556,-3.1309,-3.1469,-3.1172,-3.0922,-3.1084,-3.0924,-3.0786,-3.0649,-3.0203,-3.0102,-3.1056,-3.0049,-2.9625,-3.0953,-2.9992,-2.9607,-3.0321,-3.0339,-3.0123,-2.9288,-2.981,-2.9822,-2.9183,-2.8542,-2.862,-2.9085,-2.807,-2.7162,-2.7065,-2.7005,-2.6534,-2.5931,-2.4985,-2.4363,-2.4282,-2.2902,-2.2077,-2.1593,-2.063,-1.9664,-1.8677,-1.794,-1.7209,-1.6709,-1.5734,-1.4673,-1.3458,-1.3248,-1.2461,-1.1043,-0.9822,-0.9274,-0.8946,-0.7744,-0.655,-0.5607,-0.5383,-0.4685,-0.3759,-0.3509,-0.3482,-0.3235,-0.2137,-0.1705,-0.1492,-0.0213,0.0,0.0,0.0,0.0853,0.1705,0.1705,0.2558,0.3405,0.3386,0.3585,0.4192,0.4763,0.5549,0.6121,0.6472,0.7465,0.827,0.8471,0.9279,0.9681,0.9681,1.0681,1.1254,1.1187,1.2175,1.2913,1.2987,1.3762,1.4329,1.4473,1.5155,1.5876,1.6634,1.6912,1.7238,1.8174,1.8559,1.9124,1.9876,2.0243,2.0627,-3.3974,-3.3614,-3.3409,-3.2477,-3.2018,-3.1892,-3.2035,-3.152,-3.117,-3.1322,-3.115,-3.0901,-3.1055,-3.0324,-3.0227,-3.1333,-3.0182,-2.9625,-3.0953,-2.9818,-2.9383,-3.0293,-2.9985,-2.9559,-2.9276,-2.9947,-2.9812,-2.8626,-2.8514,-2.8609,-2.8468,-2.7461,-2.7031,-2.7267,-2.662,-2.6388,-2.6129,-2.4961,-2.4085,-2.3252,-2.225,-2.1593,-2.1593,-2.0394,-1.9408,-1.8671,-1.794,-1.7209,-1.6704,-1.5734,-1.4673,-1.3458,-1.3248,-1.2461,-1.1051,-0.9886,-0.9318,-0.8946,-0.7744,-0.6778,-0.6281,-0.5607,-0.4908,-0.4205,-0.3733,-0.3482,-0.3237,-0.2137,-0.1705,-0.1492,-0.0213,0.0,0.0,0.0,0.0853,0.1705,0.1705,0.2558,0.3412,0.3412,0.3388,0.3786,0.4837,0.5802,0.6531,0.6474,0.7468,0.8065,0.8065,0.9074,0.9681,0.9681,1.0681,1.1282,1.1282,1.2289,1.2841,1.2721,1.3702,1.4238,1.4104,1.5067,1.5842,1.6415,1.6995,1.7373,1.7943,1.8528,1.9104,2.0246,2.0246,2.0819,-3.4534,-3.3952,-3.3388,-3.282,-3.2248,-3.1812,-3.1682,-3.1328,-3.1076,-3.1225,-3.0882,-3.0715,-3.1272,-3.0258,-2.9946,-3.13,-3.0182,-2.9625,-3.0953,-2.9818,-2.9383,-3.0293,-2.9985,-2.9559,-2.9276,-2.9947,-2.9614,-2.8019,-2.846,-2.879,-2.8479,-2.761,-2.6981,-2.7277,-2.662,-2.6154,-2.5425,-2.463,-2.3741,-2.3252,-2.225,-2.1593,-2.1593,-2.0394,-1.9171,-1.7959,-1.7709,-1.6977,-1.5977,-1.5488,-1.4673,-1.3458,-1.3248,-1.2461,-1.1051,-0.9886,-0.9318,-0.8956,-0.7796,-0.6811,-0.6281,-0.5607,-0.4929,-0.4462,-0.3737,-0.3495,-0.3262,-0.2141,-0.1705,-0.1492,-0.0213,0.0,0.0,0.0,0.0853,0.1705,0.1705,0.2558,0.3412,0.3412,0.4021,0.4627,0.5048,0.5802,0.6545,0.6531,0.75,0.8065,0.8065,0.9074,0.9681,0.9681,1.0681,1.1282,1.1282,1.2289,1.2873,1.2841,1.3837,1.4409,1.4378,1.5263,1.5993,1.6579,1.7046,1.7373,1.7943,1.8528,1.9104,1.968,2.0054,2.0628,-3.4534,-3.3974,-3.3523,-3.3048,-3.2363,-3.1792,-3.188,-3.132,-3.0955,-3.1452,-3.072,-3.0343,-3.1123,-3.0191,-2.9732,-3.0854,-2.9992,-2.9564,-3.0755,-2.9601,-2.9215,-3.0279,-2.9686,-2.9052,-2.9263,-2.9561,-2.9219,-2.7821,-2.8518,-2.8639,-2.8269,-2.7239,-2.6816,-2.7267,-2.6407,-2.5799,-2.5006,-2.4303,-2.3842,-2.3382,-2.2265,-2.1593,-2.1593,-2.0394,-1.8927,-1.7709,-1.7709,-1.6971,-1.5744,-1.5488,-1.4673,-1.3458,-1.3248,-1.2461,-1.1051,-0.9886,-0.9318,-0.8956,-0.7819,-0.7051,-0.6505,-0.5607,-0.5157,-0.47,-0.3756,-0.3513,-0.3273,-0.2368,-0.1924,-0.1492,-0.0639,-0.0213,0.0,0.0,0.0853,0.1705,0.1705,0.2558,0.3412,0.3412,0.4246,0.507,0.505,0.5838,0.6619,0.6591,0.7581,0.8154,0.812,0.9097,0.9681,0.9681,1.0681,1.1282,1.1282,1.2289,1.289,1.289,1.3884,1.4476,1.4476,1.5401,1.6151,1.6349,1.7049,1.7592,1.7779,1.8566,1.915,1.9725,2.0307,2.0694,-3.4423,-3.3861,-3.3523,-3.3296,-3.2498,-3.1888,-3.227,-3.1326,-3.0736,-3.1494,-3.0717,-2.9988,-3.0715,-3.002,-2.96,-3.0326,-2.9739,-2.9503,-3.0495,-2.9326,-2.9019,-3.0265,-2.9145,-2.864,-2.9237,-2.9319,-2.8974,-2.7821,-2.8552,-2.8673,-2.7849,-2.6835,-2.663,-2.7055,-2.6,-2.505,-2.4841,-2.4162,-2.3646,-2.3487,-2.2304,-2.1593,-2.1593,-2.0394,-1.8927,-1.7709,-1.7709,-1.6959,-1.5711,-1.5488,-1.4673,-1.3444,-1.3239,-1.2461,-1.1051,-0.9886,-0.9318,-0.8956,-0.7819,-0.7281,-0.6951,-0.5831,-0.5383,-0.5147,-0.3995,-0.3524,-0.3277,-0.2816,-0.2147,-0.1492,-0.1066,-0.0426,0.0,0.0,0.0853,0.1705,0.1705,0.2558,0.3412,0.3412,0.4263,0.5103,0.5062,0.589,0.6709,0.6657,0.7472,0.827,0.8205,0.9143,0.9693,0.9681,1.0685,1.1282,1.1282,1.2289,1.289,1.289,1.3884,1.4476,1.4476,1.5479,1.6083,1.6083,1.7077,1.7672,1.7672,1.8861,1.9454,1.984,2.0432,2.1022,-3.4646,-3.4086,-3.3523,-3.3296,-3.2498,-3.1808,-3.1888,-3.123,-3.0585,-3.0717,-3.0189,-2.9899,-3.0361,-2.985,-2.96,-3.0326,-2.9739,-2.9503,-3.0495,-2.9326,-2.9019,-3.0279,-2.8987,-2.8436,-2.9225,-2.9159,-2.8783,-2.7798,-2.8712,-2.8853,-2.7849,-2.699,-2.6355,-2.5719,-2.4922,-2.4553,-2.463,-2.3633,-2.3114,-2.3301,-2.225,-2.1593,-2.1593,-2.0394,-1.8927,-1.7709,-1.7709,-1.6912,-1.5586,-1.5445,-1.4616,-1.3334,-1.321,-1.2461,-1.1051,-0.9886,-0.9318,-0.8956,-0.7819,-0.7281,-0.6951,-0.5831,-0.5383,-0.5147,-0.3995,-0.3524,-0.3277,-0.2816,-0.2147,-0.1492,-0.1066,-0.0426,0.0,0.0,0.0853,0.1705,0.1705,0.2558,0.3412,0.3412,0.4263,0.5113,0.5105,0.5916,0.6722,0.6714,0.7087,0.767,0.8276,0.9235,0.9763,0.9689,1.0284,1.0881,1.1282,1.1884,1.2489,1.289,1.349,1.4083,1.4476,1.5081,1.5678,1.6083,1.7077,1.7672,1.7672,1.8861,1.9256,1.9454,2.0432,2.0826,-3.4423,-3.3974,-3.3523,-3.3048,-3.2363,-3.1787,-3.1556,-3.0898,-3.0282,-3.049,-2.9751,-2.935,-2.9935,-2.9338,-2.9022,-2.9765,-2.9199,-2.9183,-3.0007,-2.9123,-2.8963,-3.0055,-2.8855,-2.8385,-2.9225,-2.8919,-2.8332,-2.7798,-2.8427,-2.8346,-2.7218,-2.6826,-2.6202,-2.5506,-2.4777,-2.4384,-2.4586,-2.3607,-2.2836,-2.2774,-2.2001,-2.135,-2.1108,-2.0144,-1.8927,-1.7709,-1.7709,-1.6895,-1.5559,-1.5445,-1.4606,-1.331,-1.3201,-1.2461,-1.1051,-0.9886,-0.9318,-0.8956,-0.7819,-0.7281,-0.6951,-0.5831,-0.5383,-0.5153,-0.402,-0.3549,-0.352,-0.3053,-0.2377,-0.1715,-0.128,-0.0639,0.0,0.0,0.0853,0.1919,0.2558,0.2985,0.3412,0.3412,0.4263,0.5115,0.5115,0.5945,0.6774,0.6774,0.7171,0.7767,0.8358,0.8943,0.951,0.9832,1.0228,1.0838,1.1444,1.1802,1.2377,1.2982,1.3524,1.3884,1.4476,1.5081,1.5479,1.6083,1.6871,1.7466,1.7672,1.8457,1.9058,1.9264,2.0038,2.0629,-3.4199,-3.3749,-3.3388,-3.282,-3.2227,-3.1672,-3.1325,-3.0626,-3.0016,-3.0338,-2.9404,-2.8835,-2.9509,-2.8861,-2.8494,-2.9237,-2.8853,-2.8877,-2.9564,-2.8935,-2.8907,-2.9859,-2.871,-2.8322,-2.9212,-2.8666,-2.8078,-2.7798,-2.7747,-2.7258,-2.6658,-2.6604,-2.6184,-2.5506,-2.4777,-2.4358,-2.4516,-2.3582,-2.2828,-2.2258,-2.1729,-2.1358,-2.063,-1.9894,-1.8927,-1.7709,-1.7678,-1.6854,-1.5532,-1.5401,-1.4565,-1.3287,-1.3201,-1.2461,-1.1051,-0.9858,-0.9301,-0.8956,-0.7796,-0.7264,-0.6951,-0.5833,-0.5607,-0.5157,-0.4039,-0.3569,-0.3538,-0.3509,-0.261,-0.1725,-0.1709,-0.0853,0.0,0.0213,0.1066,0.1919,0.3198,0.3412,0.3412,0.3412,0.4263,0.5115,0.5115,0.5967,0.6818,0.6818,0.7243,0.7647,0.844,0.885,0.9248,0.9808,1.0389,1.0983,1.1592,1.193,1.2288,1.3107,1.3419,1.3966,1.4568,1.4969,1.557,1.6178,1.6771,1.717,1.7777,1.8375,1.8972,1.937,1.9966,2.0354,-3.3861,-3.3409,-3.3069,-3.2477,-3.2018,-3.1672,-3.1325,-3.0626,-2.9941,-2.9979,-2.9203,-2.8747,-2.903,-2.8673,-2.8494,-2.9237,-2.8853,-2.8877,-2.9564,-2.8935,-2.8907,-2.9859,-2.8538,-2.8106,-2.9199,-2.8509,-2.7879,-2.7787,-2.6667,-2.6235,-2.6246,-2.6475,-2.6184,-2.5506,-2.4777,-2.4288,-2.4314,-2.3515,-2.2772,-2.2071,-2.1692,-2.1358,-2.063,-1.9894,-1.8927,-1.7709,-1.7581,-1.6713,-1.5401,-1.5276,-1.4456,-1.3177,-1.3163,-1.2461,-1.1043,-0.9804,-0.9257,-0.8946,-0.7744,-0.7232,-0.7175,-0.6505,-0.5831,-0.5157,-0.4039,-0.3569,-0.3538,-0.3509,-0.261,-0.1725,-0.1709,-0.0853,0.0213,0.1279,0.1705,0.1919,0.3198,0.3412,0.3412,0.3412,0.4263,0.5115,0.5115,0.5967,0.6818,0.6818,0.6818,0.724,0.8299,0.8511,0.8932,0.998,1.0049,1.0364,1.1592,1.1582,1.1989,1.3221,1.3211,1.382,1.4849,1.4849,1.5462,1.6483,1.6891,1.7502,1.8112,1.8729,1.9135,1.9743,2.0343,2.0747,-3.2674,-3.2343,-3.201,-3.134,-3.1003,-3.0551,-3.0078,-2.9719,-2.9446,-2.9095,-2.8582,-2.8323,-2.8442,-2.7916,-2.772,-2.847,-2.8522,-2.8425,-2.8505,-2.849,-2.8673,-2.9257,-2.8233,-2.808,-2.9199,-2.796,-2.717,-2.6981,-2.6358,-2.6003,-2.6084,-2.5987,-2.5719,-2.5506,-2.4777,-2.4288,-2.4288,-2.3515,-2.2528,-2.1574,-2.1444,-2.1108,-2.0144,-1.9908,-1.8927,-1.7709,-1.7562,-1.6701,-1.5374,-1.526,-1.4445,-1.3163,-1.3163,-1.2461,-1.1278,-1.0255,-0.9481,-0.9175,-0.8192,-0.7452,-0.7175,-0.6505,-0.5831,-0.5159,-0.4488,-0.3806,-0.3565,-0.3538,-0.2629,-0.1738,-0.1723,-0.0856,0.0213,0.1492,0.1705,0.1919,0.3198,0.3412,0.3412,0.3412,0.4263,0.5115,0.5115,0.5967,0.6818,0.6818,0.6818,0.7243,0.8309,0.8521,0.8946,1.0004,1.0155,1.0529,1.1782,1.1725,1.2102,1.3346,1.3281,1.3649,1.4886,1.4886,1.55,1.6524,1.6728,1.7341,1.8157,1.836,1.8979,1.9792,1.9995,2.0596,-3.1776,-3.1449,-3.1121,-3.046,-3.0147,-2.9813,-2.9234,-2.9126,-2.8934,-2.8486,-2.8138,-2.7885,-2.8015,-2.7537,-2.7376,-2.8132,-2.8113,-2.8082,-2.7861,-2.8261,-2.8618,-2.8755,-2.8155,-2.808,-2.9199,-2.7878,-2.6951,-2.653,-2.6203,-2.5963,-2.5963,-2.5651,-2.5449,-2.5292,-2.4541,-2.4288,-2.4067,-2.3232,-2.2244,-2.1108,-2.1384,-2.0822,-1.9664,-1.9664,-1.8908,-1.7642,-1.7501,-1.6637,-1.5331,-1.5222,-1.4404,-1.3163,-1.3163,-1.2461,-1.1278,-1.046,-0.9693,-0.9179,-0.8397,-0.7663,-0.7175,-0.6732,-0.6057,-0.5383,-0.4938,-0.4264,-0.3583,-0.3551,-0.2642,-0.1747,-0.1299,-0.0645,0.0214,0.1493,0.1705,0.1919,0.3198,0.3412,0.3412,0.3412,0.4263,0.5115,0.5115,0.5967,0.6818,0.6818,0.6818,0.7243,0.8309,0.8521,0.8946,1.0004,1.0216,1.064,1.1699,1.1839,1.2216,1.3477,1.3395,1.3761,1.5008,1.5008,1.5621,1.6659,1.6659,1.7071,1.81,1.8298,1.8716,1.9742,1.9946,2.056,-3.1449,-3.11,-3.0791,-3.0147,-3.0036,-2.9813,-2.9234,-2.8897,-2.8691,-2.8431,-2.7921,-2.7568,-2.7963,-2.7537,-2.7376,-2.8132,-2.8113,-2.8082,-2.7861,-2.8261,-2.8618,-2.8755,-2.8155,-2.808,-2.9199,-2.8379,-2.7514,-2.6562,-2.6203,-2.5963,-2.5963,-2.5515,-2.5067,-2.4612,-2.4322,-2.4067,-2.3394,-2.2859,-2.2118,-2.1108,-2.1265,-2.0714,-1.9664,-1.9664,-1.8842,-1.7501,-1.7361,-1.652,-1.5206,-1.5092,-1.4337,-1.3163,-1.3163,-1.2461,-1.1265,-1.0399,-0.9647,-0.9168,-0.835,-0.7625,-0.7175,-0.7175,-0.6277,-0.5383,-0.5383,-0.4485,-0.3583,-0.3551,-0.2642,-0.1529,-0.0433,0.0,0.0216,0.1495,0.1705,0.1919,0.3198,0.3412,0.3412,0.3412,0.4263,0.5115,0.5115,0.5967,0.6818,0.6818,0.6818,0.7243,0.8309,0.8521,0.8946,1.0004,1.0216,1.064,1.1699,1.1911,1.2334,1.3602,1.3602,1.4019,1.5283,1.5277,1.5914,1.6978,1.6978,1.7181,1.7804,1.8432,1.885,1.9485,2.0111,2.0937,-3.0196,-2.9769,-2.9359,-2.9144,-2.88,-2.8474,-2.8038,-2.7936,-2.7809,-2.7416,-2.7374,-2.7449,-2.7462,-2.73,-2.7117,-2.7445,-2.7829,-2.7936,-2.7244,-2.7931,-2.829,-2.7901,-2.8143,-2.8002,-2.7215,-2.7615,-2.7457,-2.6336,-2.612,-2.5963,-2.5963,-2.5515,-2.5067,-2.4612,-2.418,-2.3927,-2.3386,-2.2859,-2.2055,-2.0937,-2.1108,-2.0483,-1.9345,-1.9345,-1.8607,-1.7361,-1.7214,-1.6426,-1.5206,-1.5092,-1.4337,-1.3163,-1.3163,-1.2461,-1.1265,-1.0856,-1.0109,-0.9168,-0.8794,-0.8076,-0.7175,-0.7175,-0.6277,-0.5383,-0.5383,-0.4485,-0.3359,-0.2666,-0.1991,-0.1543,-0.0218,0.0,0.0217,0.1509,0.1721,0.1933,0.3203,0.3412,0.3412,0.3412,0.4263,0.5115,0.5115,0.5967,0.6818,0.6818,0.6818,0.7243,0.8309,0.8521,0.8946,1.0004,1.0216,1.064,1.1699,1.1911,1.2334,1.3602,1.3602,1.4024,1.5283,1.5283,1.592,1.6978,1.6978,1.7188,1.7811,1.8432,1.9059,2.0111,2.0737,2.1362,-2.9303,-2.894,-2.8621,-2.8408,-2.8174,-2.7745,-2.7314,-2.7306,-2.7288,-2.6875,-2.7052,-2.7193,-2.7101,-2.7046,-2.7117,-2.7047,-2.7687,-2.7774,-2.6777,-2.7773,-2.8208,-2.7538,-2.8051,-2.8047,-2.6639,-2.7284,-2.7457,-2.6358,-2.613,-2.5963,-2.5963,-2.5438,-2.4771,-2.4388,-2.4127,-2.3647,-2.3164,-2.2818,-2.1953,-2.0855,-2.0974,-2.0339,-1.9203,-1.9203,-1.8451,-1.7214,-1.7134,-1.6367,0.0,-1.5064,-1.4337,-1.3163,-1.3163,-1.2438,-1.1225,-1.1078,-1.0322,-0.9134,-0.9012,-0.829,-0.7175,-0.7175,-0.6277,-0.5383,-0.4933,-0.4264,-0.3363,-0.223,-0.1782,-0.1556,-0.022,0.0,0.0219,0.1523,0.1736,0.1951,0.3235,0.3437,0.3429,0.3429,0.4273,0.5115,0.5115,0.5967,0.6818,0.6818,0.6818,0.7243,0.8309,0.8521,0.8946,1.0004,1.0216,1.064,1.1699,1.1911,1.2334,1.3602,1.3602,1.4024,1.4868,1.5078,1.571,1.6558,1.6978,1.7188,1.7398,1.8222,1.9268,2.032,2.0737,2.1362,0.0,-2.8601,-2.8514,-2.8067,-2.7853,-2.7638,-2.7098,-2.7086,0.0,-2.6875,-2.6836,-2.6987,-2.7101,-2.7079,-2.7182,-2.7047,-2.7717,-2.7819,-2.6819,-2.7685,-2.8275,-2.7721,-2.8095,-2.7932,-2.6679,-2.7387,-2.7525,-2.6562,-2.6203,-2.5963,-2.5963,-2.5302,-2.4632,-2.3708,-2.3892,-2.3411,-2.2472,-2.2472,-2.1851,-2.0832,-2.0832,-2.0203,-1.9169,-1.9169,-1.8385,-1.7092,-1.7092,-1.6321,-1.5037,-1.5037,-1.4337,-1.3163,-1.3163,-1.2402,-1.1151,-1.1057,-1.028,-0.9073,-0.8995,-0.829,-0.7175,-0.7175,-0.6277,-0.5157,-0.4039,-0.3589,-0.3365,-0.2245,-0.1796,-0.1568,-0.0222,0.0,0.0221,0.1537,0.1753,0.2191,0.3283,0.348,0.346,0.346,0.4295,0.5125,0.5125,0.5978,0.6831,0.6831,0.6831,0.7257,0.8322,0.8539,0.8961,1.0024,1.0236,1.0661,1.1723,1.192,1.2334,1.3602,1.3602,1.3819,1.4452,1.5078,1.55,1.6131,1.6775,1.6998,1.7209,1.8049,1.9307,2.0361,2.0361,2.0979,-2.7649,0.0,-2.8067,-2.796,-2.753,-2.7206,0.0,-2.6866,-2.6821,-2.6761,-2.7046,-2.7314,-2.7151,-2.7619,-2.7749,-2.7123,-2.7916,-2.8163,-2.7157,-2.7255,-2.7521,-2.7877,-2.8024,-2.7628,-2.6942,-2.749,-2.7525,-2.6562,-2.6203,-2.5963,-2.5963,-2.5302,-2.4632,-2.3708,-2.3778,-2.3274,-2.2472,-2.2472,-2.1788,-2.0661,-2.0661,-1.9979,-1.8871,-1.8871,-1.8144,-1.6945,-1.6945,-1.6227,-1.5037,-1.5037,-1.4337,-1.3163,-1.3163,-1.2402,-1.1151,-1.1057,-1.028,-0.9073,-0.8995,-0.829,-0.6951,-0.6057,-0.5607,-0.5157,-0.4039,-0.3589,-0.3365,-0.2245,-0.1796,-0.1572,-0.0224,0.0,0.0223,0.155,0.1768,0.2206,0.3287,0.3495,0.3491,0.3491,0.4357,0.5219,0.5219,0.6088,0.6957,0.6957,0.6957,0.7391,0.8472,0.8688,0.9122,1.0208,1.0424,1.0857,1.1938,1.2006,1.2334,1.3602,1.3602,1.3819,1.4452,1.5078,1.55,1.6131,1.6875,1.7565,1.8412,1.8749,1.9661,2.0726,2.0726,2.1151,-2.7265,-2.7526,-2.7853,-2.753,-2.7206,-2.6936,-2.6884,-2.6807,-2.675,-2.6795,-2.7158,-2.7255,-2.7074,-2.7637,-2.7874,-2.7354,-2.8084,-2.8432,-2.7833,-2.739,-2.7258,-2.7991,-2.7879,-2.77,-2.7193,-2.7593,-2.757,-2.6724,-2.6265,-2.5963,-2.5963,-2.5302,-2.4586,-2.3593,-2.3681,-2.3231,-2.2472,-2.2472,-2.1772,-2.0601,-2.0601,-1.9907,-1.8762,-1.8762,-1.8059,-1.6902,-1.6902,-1.6198,-1.5037,-1.5037,-1.4337,-1.3163,-1.3115,-1.2335,-1.109,-1.0992,-1.0223,-0.9022,-0.8985,-0.829,-0.6951,-0.5831,-0.5383,-0.5157,-0.4039,-0.3589,-0.3365,-0.2245,-0.1796,-0.1572,-0.0224,0.0,0.0224,0.1562,0.1784,0.2227,0.3326,0.3531,0.3524,0.3524,0.4387,0.5252,0.5252,0.6122,0.7,0.7,0.7219,0.7652,0.8521,0.8957,0.9393,1.049,1.049,1.0925,1.2012,1.2125,1.2482,1.3765,1.3765,1.3979,1.4192,1.5046,1.5898,1.675,1.7043,1.7939,1.9006,1.9103,1.9785,2.0856,2.0856,2.1284,-2.6921,-2.7381,-2.7638,-2.7098,-2.7045,-2.6957,-2.6734,-2.6828,-2.6928,-2.6964,-2.7054,-2.7219,-2.7256,-2.7556,-2.7829,-2.7691,-2.8112,-2.8561,-2.8593,-2.7759,-2.7334,-2.8106,-2.7928,-2.7759,-2.7433,-2.7695,-2.7626,-2.6918,-2.6337,-2.5963,-2.5963,-2.5302,-2.4539,-2.3435,-2.362,-2.3231,-2.2424,-2.2448,-2.1772,-2.0601,-2.0601,-1.9907,-1.8762,-1.8762,-1.8059,-1.6902,-1.6902,-1.6198,-1.5037,-1.5037,-1.4337,-1.3149,-1.3039,-1.2254,-1.1016,-1.0918,-1.0154,-0.8967,-0.8744,-0.8076,-0.6951,-0.5831,-0.5383,-0.5157,-0.4039,-0.3589,-0.3365,-0.2245,-0.1796,-0.1572,-0.0224,0.0,0.0224,0.1572,0.1796,0.2021,0.3365,0.3569,0.3551,0.3551,0.4415,0.5272,0.5272,0.6148,0.7027,0.7027,0.746,0.8123,0.8773,0.9207,0.9871,1.053,1.053,1.0963,1.2059,1.2277,1.2709,1.4015,1.3977,1.4172,1.4172,1.526,1.6347,1.7419,1.7446,1.7885,1.8962,1.9208,1.9646,2.0937,2.0937,2.1144,-2.606,-2.6536,-2.7098,-2.6989,-2.7049,-2.7086,-2.6807,-2.7061,-2.7352,-2.7382,-2.7569,-2.7671,-2.7965,-2.8423,-2.8467,-2.809,-2.8139,-2.8255,-2.8865,-2.8063,-2.7877,-2.8665,-2.8149,-2.7831,-2.7672,-2.7798,-2.7626,-2.6918,-2.6337,-2.5963,-2.5963,-2.5302,-2.4539,-2.3435,-2.362,-2.3163,-2.2237,-2.2383,-2.1772,-2.0601,-2.0601,-1.9907,-1.8762,-1.8762,-1.8059,-1.6902,-1.6902,-1.6198,-1.5037,-1.5037,-1.4337,-1.3149,-1.3039,-1.2254,-1.1016,-1.0918,-1.0154,-0.8744,-0.7849,-0.7398,-0.6951,-0.5831,-0.5383,-0.5157,-0.4039,-0.3589,-0.3365,-0.2245,-0.1796,-0.1572,-0.0224,0.0,0.0224,0.1572,0.1796,0.2021,0.3365,0.3587,0.3583,0.3583,0.4471,0.536,0.536,0.6481,0.7147,0.7147,0.7596,0.8268,0.8933,0.9372,1.0047,1.071,1.071,1.1159,1.2265,1.2487,1.294,1.4265,1.4069,1.4394,1.5476,1.5692,1.6347,1.7419,1.7548,1.7827,1.8697,1.9265,1.9989,2.0654,2.1092,2.1303,-2.6057,-2.6602,-2.7105,-2.7105,-2.7031,-2.6933,-2.7043,-2.7229,-2.7519,-2.7522,-2.7739,-2.798,-2.818,-2.8486,-2.8741,-2.8911,-2.846,-2.8571,-2.9201,-2.8234,-2.7953,-2.878,-2.8211,-2.7855,-2.7718,-2.7821,-2.7426,-2.6497,-2.6128,-2.5751,-2.553,-2.5086,-2.4493,-2.3268,-2.3453,-2.2984,-2.2042,-2.2237,-2.167,-2.0601,-2.0601,-1.9907,-1.8762,-1.8762,-1.8059,-1.6902,-1.6902,-1.6198,-1.5037,-1.5037,-1.4295,-1.3063,-1.2968,-1.2172,-1.0939,-1.0173,-0.9447,-0.8744,-0.7625,-0.7175,-0.6951,-0.5831,-0.5383,-0.5157,-0.4039,-0.3589,-0.3365,-0.2245,-0.1796,-0.1572,-0.0224,0.0,0.0224,0.1572,0.1796,0.2021,0.3365,0.3589,0.3589,0.3589,0.4485,0.5383,0.5383,0.65,0.7175,0.7175,0.8076,0.8741,0.8967,0.9858,1.0528,1.0751,1.0978,1.1643,1.2534,1.2762,1.343,1.432,1.4211,1.459,1.5918,1.5918,1.6576,1.767,1.7724,1.7985,1.8644,1.9383,1.9845,2.0505,2.1172,2.1384,-2.6175,-2.6772,-2.7196,-2.7176,-2.7155,-2.7068,-2.7417,-2.7639,-2.7713,-2.7895,-2.8056,-2.8362,-2.8692,-2.8837,-2.9102,-2.9513,-2.9079,-2.8963,-2.9523,-2.8419,-2.8055,-2.8881,-2.8248,-2.7855,-2.7718,-2.7821,-2.7426,-2.6087,-2.5919,-2.5751,-2.5106,-2.4871,-2.4446,-2.3137,-2.3321,-2.283,-2.1871,-2.2082,-2.1583,-2.0601,-2.0601,-1.9907,-1.8762,-1.8762,-1.8059,-1.6902,-1.6902,-1.6186,-1.4994,-1.4994,-1.4228,-1.2953,-1.2858,-1.2069,-1.062,-0.9436,-0.8967,-0.8744,-0.7625,-0.7175,-0.6951,-0.5831,-0.5383,-0.5157,-0.4039,-0.3589,-0.3365,-0.2245,-0.1796,-0.1572,-0.0224,0.0,0.0224,0.1572,0.1796,0.2021,0.3365,0.3589,0.3589,0.3589,0.4485,0.5383,0.5383,0.65,0.7175,0.7175,0.829,0.8967,0.8967,1.0085,1.0751,1.0751,1.1193,1.1871,1.2762,1.3202,1.388,1.432,1.4325,1.4986,1.6089,1.6317,1.676,1.786,1.786,1.8088,1.853,1.9199,1.9845,2.0278,2.0953,2.1384,-2.5964,-2.6554,-2.7158,-2.7296,-2.7543,-2.7804,-2.7878,-2.8043,-2.8268,-2.8956,-2.8723,-2.8659,-3.0029,-3.0134,-2.9868,-2.9508,-2.9454,-2.9537,-2.9887,-2.8723,-2.8335,-2.9174,-2.8359,-2.7855,-2.7718,-2.7821,-2.7426,-2.6087,-2.5919,-2.5751,-2.5106,-2.4871,-2.4446,-2.3137,-2.3321,-2.2779,-2.1684,-2.2026,-2.1583,-2.0601,-2.0601,-1.9907,-1.8762,-1.8762,-1.8059,-1.6902,-1.6902,-1.6139,-1.4869,-1.4869,-1.4109,-1.2858,-1.2744,-1.1961,-1.0763,-0.9418,-0.8967,-0.8744,-0.7625,-0.7175,-0.6951,-0.5831,-0.5383,-0.5157,-0.4039,-0.3589,-0.3365,-0.2245,-0.1796,-0.1572,-0.0224,0.0,0.0224,0.1572,0.1796,0.2021,0.3365,0.3589,0.3589,0.3589,0.4485,0.5383,0.5383,0.65,0.7175,0.7175,0.829,0.8967,0.8967,1.0085,1.0751,1.0751,1.1193,1.2084,1.3202,1.387,1.432,1.432,1.4764,1.5424,1.6089,1.6533,1.7197,1.786,1.786,1.7867,1.7867,1.8971,1.9632,1.9632,2.0945,2.1384,-2.6536,-2.7123,-2.7636,-2.7694,-2.8056,-2.8335,-2.8114,-2.8442,-2.8931,-2.923,-2.9328,-2.9372,-2.9581,-2.9822,-2.9955,-2.9759,-2.9592,-2.9663,-3.0167,-2.9013,-2.8563,-2.9225,-2.8519,-2.8021,-2.7741,-2.7821,-2.7225,-2.5676,-2.5579,-2.5381,-2.4683,-2.4756,-2.4316,-2.3137,-2.3198,-2.2651,-2.166,-2.179,-2.1276,-2.0311,-2.0504,-1.9907,-1.8762,-1.8762,-1.8059,-1.6902,-1.6804,-1.6051,-1.4858,-1.4771,-1.3989,-1.2744,-1.1961,-1.1227,-1.0751,-0.9418,-0.8967,-0.8744,-0.7625,-0.7175,-0.6951,-0.5831,-0.5383,-0.5157,-0.4039,-0.3589,-0.3365,-0.2245,-0.1796,-0.1572,-0.0224,0.0,0.0224,0.1572,0.1796,0.2021,0.3365,0.3589,0.3589,0.3589,0.4485,0.5383,0.5383,0.65,0.7175,0.7175,0.829,0.8967,0.8967,1.0085,1.0751,1.0751,1.1643,1.2762,1.387,1.4097,1.432,1.432,1.4764,1.5424,1.6089,1.6754,1.7197,1.786,1.786,1.786,1.786,1.8971,1.9632,1.9632,2.1064,2.1555,-2.6958,-2.7471,-2.7779,-2.7957,-2.8335,-2.8747,-2.8477,-2.8879,-2.9384,-2.9624,-3.0119,-3.0274,-2.9756,-3.0007,-3.0363,-3.0381,-3.0036,-2.9957,-3.0475,-2.9482,-2.878,-2.925,-2.8605,-2.814,-2.7741,-2.7821,-2.7225,-2.5676,-2.5498,-2.5291,-2.4673,-2.468,-2.4242,-2.3137,-2.3128,-2.254,-2.1579,-2.1636,-2.1048,-2.0042,-2.0311,-1.977,-1.862,-1.862,-1.7928,-1.6756,-1.6664,-1.5928,-1.4744,-1.4657,-1.387,-1.241,-1.1227,-1.0751,-1.0751,-0.9418,-0.8967,-0.8744,-0.7625,-0.7175,-0.6951,-0.5831,-0.5383,-0.5157,-0.4039,-0.3589,-0.3365,-0.2245,-0.1796,-0.1572,-0.0224,0.0,0.0224,0.1572,0.1796,0.2021,0.3365,0.3589,0.3589,0.3815,0.4709,0.5383,0.5607,0.65,0.7175,0.7175,0.829,0.8967,0.8967,1.0085,1.0978,1.1193,1.2093,1.2975,1.4097,1.432,1.432,1.432,1.4986,1.564,1.6089,1.676,1.7424,1.786,1.786,1.788,1.7935,1.9043,1.9729,1.9789,2.1231,2.1741,-2.6958,-2.7471,-2.7852,-2.7944,-2.8605,-2.9133,-2.9258,-2.9316,-2.9539,-3.0292,-3.0935,-3.13,-3.0961,-3.1024,-3.1204,-3.1377,-3.085,-3.0517,-3.0825,-2.9787,-2.8996,-2.9276,-2.8605,-2.814,-2.7741,-2.7821,-2.7426,-2.6087,-2.5705,-2.5501,-2.5097,-2.468,-2.4242,-2.3137,-2.3128,-2.2472,-2.1384,-2.1579,-2.0985,-1.9863,-2.0042,-1.9439,-1.8321,-1.8321,-1.7634,-1.6487,-1.6487,-1.5746,-1.4504,-1.4504,-1.3761,-1.2312,-1.1193,-1.0751,-1.0751,-0.9418,-0.8967,-0.8744,-0.7625,-0.7175,-0.6951,-0.5831,-0.5383,-0.5157,-0.4039,-0.3589,-0.3365,-0.2245,-0.1796,-0.1572,-0.0224,0.0,0.0224,0.1572,0.1796,0.2021,0.3365,0.3589,0.3814,0.4488,0.4933,0.5607,0.6281,0.6724,0.7175,0.7175,0.829,0.8967,0.8967,1.0085,1.1193,1.2312,1.2534,1.2975,1.4097,1.432,1.432,1.432,1.5424,1.6089,1.6089,1.7197,1.786,1.786,1.786,1.7935,1.8091,1.9417,1.996,2.0117,2.1252,2.1936,-2.7453,-2.7893,-2.829,-2.8371,-2.903,-2.9485,-2.9327,-2.971,-3.0242,-3.0701,-3.1596,-3.2037,-3.1055,-3.1225,-3.1477,-3.1422,-3.085,-3.0517,-3.0825,-3.0154,-2.9582,-2.9288,-2.9155,-2.8729,-2.7962,-2.7821,-2.7426,-2.6087,-2.5563,-2.535,-2.5097,-2.475,-2.4084,-2.311,-2.3128,-2.2472,-2.1384,-2.1449,-2.0804,-1.9707,-1.9752,-1.923,-1.8321,-1.8321,-1.7634,-1.6487,-1.6395,-1.5653,-1.4504,-1.3506,-1.2786,-1.2312,-1.1193,-1.0751,-1.0751,-0.9418,-0.8967,-0.8744,-0.7625,-0.7175,-0.6951,-0.5831,-0.5383,-0.5157,-0.4039,-0.3589,-0.3365,-0.2245,-0.1796,-0.1572,-0.0224,0.0,0.0224,0.1572,0.1796,0.2021,0.3365,0.3589,0.3814,0.4488,0.4933,0.5607,0.6281,0.6724,0.7398,0.7849,0.8517,0.9418,1.0085,1.0528,1.1193,1.2312,1.2534,1.2975,1.4097,1.432,1.4363,1.4445,1.5565,1.6187,1.6089,1.7301,1.8023,1.8023,1.8124,1.8431,1.8931,1.9592,2.029,2.0802,2.1597,2.2107,-2.7655,-2.8187,-2.871,-2.8781,-2.9312,-2.9977,-3.0152,-3.0549,-3.092,-3.133,-3.2043,-3.2381,-3.1589,-3.1471,-3.169,-3.2115,-3.1179,-3.0545,-3.0993,-3.0482,-2.987,-2.9301,-2.9419,-2.9007,-2.7962,-2.7821,-2.7426,-2.6497,-2.5707,-2.524,-2.5381,-2.4635,-2.3982,-2.3013,-2.3084,-2.2472,-2.1384,-2.1384,-2.0717,-1.9632,-1.9632,-1.9079,-1.8145,-1.8145,-1.7471,-1.6328,-1.5807,-1.5106,-1.4434,-1.3014,-1.2534,-1.2312,-1.1193,-1.0751,-1.0751,-0.9418,-0.8967,-0.8744,-0.7625,-0.7175,-0.6951,-0.5831,-0.5383,-0.5157,-0.4039,-0.3589,-0.3365,-0.2245,-0.1796,-0.1572,-0.0224,0.0,0.0224,0.1572,0.1796,0.2021,0.3365,0.3589,0.3815,0.4712,0.5172,0.5635,0.6537,0.7003,0.7471,0.8152,0.8827,0.9737,1.0857,1.0857,1.1312,1.2433,1.2658,1.3118,1.4461,1.4461,1.4488,1.4559,1.57,1.6328,1.6248,1.7451,1.8179,1.8179,1.8267,1.8575,1.9313,1.9994,2.0471,2.1222,2.2017,2.2302,-2.7673,-2.8388,-2.9094,-2.9119,-2.9701,-3.061,-3.146,-3.1662,-3.1844,-3.2044,-3.2423,-3.2593,-3.2491,-3.1972,-3.2052,-3.2998,-3.1626,-3.0643,-3.1231,-3.059,-2.987,-2.9301,-2.9419,-2.9007,-2.7973,-2.7821,-2.7626,-2.6918,-2.5913,-2.5386,-2.5609,-2.4759,-2.3917,-2.2847,-2.3013,-2.2472,-2.1384,-2.1384,-2.0717,-1.9632,-1.9632,-1.8964,-1.786,-1.786,-1.7197,-1.6089,-1.4764,-1.432,-1.432,-1.2975,-1.2534,-1.2312,-1.1193,-1.0751,-1.0751,-0.9418,-0.8967,-0.8744,-0.7625,-0.7175,-0.6951,-0.5831,-0.5383,-0.5157,-0.4039,-0.3589,-0.3365,-0.2245,-0.1796,-0.1572,-0.0224,0.0,0.0225,0.1573,0.1798,0.2021,0.3369,0.3594,0.4043,0.5169,0.543,0.5911,0.7046,0.7322,0.7587,0.8272,0.9418,1.0342,1.1024,1.1024,1.1478,1.2853,1.2858,1.3538,1.4673,1.4673,1.4673,1.4689,1.5823,1.6517,1.6517,1.7654,1.8335,1.8335,1.8355,1.8644,1.9691,2.0156,2.0919,2.1549,2.225,2.2472,-2.7746,-2.859,-2.9441,-2.919,-2.97,-3.072,-3.209,-3.245,-3.238,-3.2475,-3.3,-3.328,-3.2922,-3.2515,-3.2586,-3.3059,-3.2175,-3.126,-3.1273,-3.1317,-3.0782,-2.9487,-2.9608,-2.9381,-2.7973,-2.7821,-2.7626,-2.6918,-2.5913,-2.5386,-2.5609,-2.4623,-2.3769,-2.2838,-2.289,-2.2335,-2.1384,-2.1384,-2.0717,-1.9632,-1.9632,-1.8964,-1.786,-1.786,-1.7197,-1.6089,-1.4764,-1.432,-1.432,-1.2975,-1.2534,-1.2312,-1.1193,-1.0751,-1.0751,-0.9418,-0.8967,-0.8744,-0.7625,-0.7175,-0.6951,-0.5831,-0.5383,-0.5157,-0.4039,-0.3589,-0.3365,-0.2245,-0.1796,-0.1572,-0.0224,0.0,0.0227,0.1587,0.1805,0.2025,0.3395,0.3625,0.3859,0.5253,0.5497,0.5962,0.7106,0.7349,0.7816,0.8956,1.0109,1.0796,1.1024,1.1486,1.1944,1.2853,1.3305,1.3989,1.4673,1.4673,1.4716,1.4814,1.5957,1.6694,1.6804,1.7856,1.8477,1.8477,1.8599,1.9136,2.0326,2.0542,2.1264,2.2225,2.2464,2.2472,-2.7765,-2.8792,-2.9989,-3.0206,-3.038,-3.0823,-3.2347,-3.2689,-3.285,-3.3363,-3.3603,-3.3509,-3.3049,-3.285,-3.2739,-3.309,-3.2234,-3.1521,-3.1287,-3.1499,-3.0966,-2.9487,-2.9784,-2.9524,-2.8183,-2.795,-2.7581,-2.7163,-2.6056,-2.5346,-2.5457,-2.4526,-2.3685,-2.2697,-2.2803,-2.2292,-2.1384,-2.1384,-2.0717,-1.9632,-1.9632,-1.8964,-1.786,-1.7197,-1.6754,-1.6089,-1.4764,-1.432,-1.432,-1.2975,-1.2534,-1.2312,-1.1193,-1.0751,-1.0751,-0.9418,-0.8967,-0.8744,-0.7625,-0.7175,-0.6951,-0.5831,-0.5383,-0.5157,-0.4039,-0.3589,-0.3365,-0.2245,-0.1796,-0.1573,-0.0226,0.0,0.0228,0.1597,0.1822,0.2046,0.3424,0.3656,0.4118,0.5282,0.5534,0.6013,0.7167,0.7886,0.8599,0.9298,1.046,1.1151,1.1151,1.161,1.2312,1.3001,1.3463,1.415,1.4852,1.4841,1.5105,1.5397,1.6329,1.7054,1.7361,1.8212,1.864,1.864,1.8728,1.9458,2.0601,2.0601,2.1302,2.2472,2.2472,2.2472,-2.7856,-2.8893,-3.0212,-3.1274,-3.0972,-3.0823,-3.2347,-3.2689,-3.2969,-3.402,-3.4025,-3.3525,-3.3291,-3.2943,-3.2815,-3.3105,-3.2451,-3.1754,-3.1287,-3.1499,-3.115,-2.9672,-2.9797,-2.9667,-2.8386,-2.8067,-2.7724,-2.7381,-2.6197,-2.5501,-2.5295,-2.4439,-2.3574,-2.2504,-2.2697,-2.2241,-2.1343,-2.136,-2.0717,-1.9632,-1.9405,-1.8743,-1.786,-1.6754,-1.6089,-1.6089,-1.4764,-1.432,-1.432,-1.2975,-1.2534,-1.2312,-1.1193,-1.0751,-1.0751,-0.9418,-0.8967,-0.8744,-0.7625,-0.7175,-0.6948,-0.5831,-0.5383,-0.4933,-0.4039,-0.3589,-0.3365,-0.2245,-0.1796,-0.1575,-0.0227,0.0,0.0228,0.161,0.1845,0.2078,0.346,0.3688,0.4148,0.5308,0.5803,0.6299,0.7228,0.8437,0.9413,0.9413,1.0587,1.129,1.129,1.1988,1.27,1.3163,1.3864,1.4575,1.5037,1.5037,1.526,1.5959,1.6657,1.7123,1.782,1.8517,1.8762,1.8762,1.8762,1.9458,2.0601,2.0601,2.1325,2.2513,2.2513,2.2529,-2.8205,-2.8733,-2.9563,-3.1141,-3.0972,-3.0823,-3.2347,-3.2689,-3.2969,-3.402,-3.4025,-3.375,-3.3937,-3.3802,-3.3599,-3.3136,-3.3165,-3.2705,-3.1493,-3.1694,-3.1532,-3.0056,-2.9986,-2.9859,-2.8982,-2.8264,-2.7724,-2.7381,-2.6606,-2.5707,-2.5295,-2.4707,-2.3776,-2.2311,-2.2495,-2.2045,-2.1157,-2.1319,-2.0717,-1.9632,-1.853,-1.8088,-1.786,-1.6754,-1.6089,-1.6089,-1.4764,-1.432,-1.432,-1.2975,-1.2534,-1.2312,-1.1193,-1.0751,-1.0751,-0.9418,-0.8967,-0.8744,-0.7625,-0.6948,-0.6281,-0.5607,-0.5157,-0.4488,-0.3814,-0.3589,-0.3365,-0.2245,-0.1796,-0.1575,-0.0227,0.0,0.023,0.1624,0.1869,0.2109,0.3493,0.3719,0.4193,0.5394,0.6582,0.7289,0.7523,0.8468,0.9413,0.9413,1.0587,1.129,1.129,1.2227,1.3163,1.3163,1.4103,1.4804,1.5037,1.5037,1.526,1.5959,1.6657,1.7123,1.782,1.8517,1.8762,1.8762,1.8762,1.9458,2.0601,2.0601,2.1379,2.2675,2.2675,2.2765,-2.9104,-2.9415,-2.9815,-3.1141,-3.1125,-3.1116,-3.2347,-3.2689,-3.3049,-3.406,-3.4032,-3.3766,-3.4002,-3.3865,-3.3661,-3.3151,-3.3384,-3.3117,-3.1863,-3.2056,-3.1716,-3.0597,-3.0174,-2.9796,-2.9356,-2.825,-2.752,-2.757,-2.6605,-2.5778,-2.5285,-2.4883,-2.3946,-2.2696,-2.2566,-2.2121,-2.1558,-2.1415,-2.0639,-1.9632,-1.8522,-1.786,-1.786,-1.6754,-1.6089,-1.6089,-1.4764,-1.432,-1.432,-1.2975,-1.2534,-1.2312,-1.1193,-1.0751,-1.0751,-0.9418,-0.8967,-0.8744,-0.7625,-0.6724,-0.6281,-0.5607,-0.4933,-0.4488,-0.3814,-0.3365,-0.2917,-0.2021,-0.1572,-0.1126,-0.0228,0.0,0.0231,0.1636,0.188,0.2354,0.3519,0.375,0.4223,0.5413,0.6594,0.7537,0.7537,0.8477,0.9413,0.9413,1.0587,1.129,1.129,1.2461,1.3163,1.3163,1.4337,1.5037,1.5037,1.5037,1.5498,1.6436,1.6663,1.7361,1.8298,1.8523,1.8762,1.8762,1.8762,1.9458,2.0601,2.0698,2.1487,2.2724,2.283,2.2911,-2.9819,-2.9937,-2.9942,-3.1141,-3.1278,-3.1271,-3.2492,-3.2689,-3.3015,-3.4162,-3.4071,-3.3892,-3.4034,-3.3905,-3.3722,-3.3136,-3.3308,-3.3189,-3.2218,-3.1986,-3.1803,-3.0953,-3.0285,-2.9861,-2.9554,-2.8462,-2.7743,-2.7798,-2.6846,-2.5868,-2.5285,-2.4883,-2.4125,-2.3034,-2.2459,-2.223,-2.1914,-2.1148,-2.0381,-1.9632,-1.8522,-1.786,-1.786,-1.6754,-1.6089,-1.6089,-1.4764,-1.432,-1.432,-1.2975,-1.2534,-1.2312,-1.1193,-1.0751,-1.0524,-0.9418,-0.8967,-0.8517,-0.7625,-0.6724,-0.6057,-0.5607,-0.4933,-0.4264,-0.3814,-0.3141,-0.2468,-0.2021,-0.135,-0.0678,-0.0229,0.0,0.0232,0.1645,0.1885,0.2356,0.3535,0.4008,0.4479,0.5419,0.6594,0.7537,0.7537,0.8477,0.9413,0.9413,1.0587,1.129,1.129,1.2461,1.3163,1.3163,1.4337,1.5037,1.5037,1.5037,1.5498,1.6896,1.6902,1.7361,1.8762,1.8796,1.8816,1.8816,1.909,1.9557,2.0661,2.1081,2.1884,2.287,2.3,2.3081,-2.9965,-2.9937,-2.9942,-3.1141,-3.1278,-3.1271,-3.2492,-3.2689,-3.3015,-3.4162,-3.4382,-3.43,-3.4189,-3.4048,-3.3809,-3.326,-3.3441,-3.327,-3.2189,-3.1968,-3.1736,-3.1478,-3.049,-2.9835,-3.0102,-2.8837,-2.8136,-2.7798,-2.7459,-2.6692,-2.5285,-2.5295,-2.4471,-2.2825,-2.2388,-2.2161,-2.172,-2.0334,-1.9618,-1.9632,-1.8522,-1.786,-1.786,-1.6754,-1.6089,-1.6089,-1.4764,-1.432,-1.432,-1.2975,-1.2534,-1.2312,-1.1193,-1.0528,-0.9862,-0.9195,-0.8741,-0.8076,-0.7398,-0.65,-0.5383,-0.5383,-0.4709,-0.3589,-0.3589,-0.3141,-0.2468,-0.2021,-0.1355,-0.0683,-0.023,0.0,0.0233,0.1646,0.1885,0.2356,0.3535,0.4715,0.5655,0.5655,0.6594,0.7537,0.7537,0.8477,0.9413,0.9413,1.0587,1.129,1.129,1.2461,1.3163,1.3163,1.4337,1.5037,1.5037,1.5037,1.5498,1.6896,1.6902,1.7361,1.8762,1.8905,1.8972,1.8972,1.9824,2.0282,2.084,2.1726,2.237,2.3236,2.3236,2.3341,-3.0039,-3.0262,-3.0647,-3.1345,-3.1396,-3.1475,-3.2182,-3.2518,-3.2861,-3.3528,-3.3856,-3.3932,-3.3826,-3.4197,-3.4295,-3.3599,-3.3597,-3.3429,-3.3073,-3.2312,-3.1903,-3.1858,-3.0663,-2.9822,-3.0102,-2.8873,-2.7891,-2.7558,-2.7214,-2.6455,-2.5073,-2.5215,-2.4667,-2.3428,-2.2463,-2.182,-2.1276,-2.0008,-1.9513,-1.9632,-1.8522,-1.786,-1.786,-1.6754,-1.6089,-1.6089,-1.4764,-1.4092,-1.3658,-1.2762,-1.2312,-1.1871,-1.0978,-1.0524,-0.9858,-0.9195,-0.8517,-0.8076,-0.7398,-0.65,-0.5383,-0.5383,-0.4485,-0.3589,-0.3589,-0.2917,-0.2021,-0.1796,-0.1129,-0.0228,0.0,0.0,0.0233,0.1646,0.2593,0.33,0.3771,0.4711,0.5655,0.5655,0.6594,0.7537,0.7537,0.8477,0.9413,0.9413,1.0587,1.129,1.129,1.2461,1.3163,1.3163,1.4337,1.5037,1.5037,1.5037,1.5543,1.7024,1.7024,1.7544,1.904,1.9094,1.9128,1.9128,2.0224,2.0945,2.1011,2.1888,2.2711,2.3252,2.3382,2.372,-3.0241,-3.0589,-3.0956,-3.1497,-3.1531,-3.1696,-3.2152,-3.256,-3.2792,-3.3186,-3.3702,-3.3886,-3.3802,-3.4081,-3.429,-3.375,-3.3429,-3.3436,-3.326,-3.2333,-3.1749,-3.2071,-3.0717,-2.9871,-2.9962,-2.8931,-2.8138,-2.7433,-2.7277,-2.6526,-2.4952,-2.5174,-2.4667,-2.3014,-2.2463,-2.1575,-2.0767,-1.9923,-1.9439,-1.955,-1.8508,-1.786,-1.786,-1.6754,-1.6089,-1.6089,-1.4764,-1.387,-1.3425,-1.2762,-1.2084,-1.1643,-1.0978,-1.0312,-0.9634,-0.9191,-0.8517,-0.7849,-0.7398,-0.65,-0.5383,-0.5383,-0.4485,-0.3589,-0.3589,-0.2692,-0.1796,-0.1796,-0.0905,0.0,0.0,0.0232,0.0936,0.1884,0.3064,0.3772,0.3772,0.4711,0.5655,0.5655,0.6594,0.7537,0.7537,0.8477,0.9413,0.9413,1.0587,1.129,1.129,1.2461,1.3163,1.3163,1.4363,1.5092,1.5092,1.5135,1.5661,1.7165,1.7171,1.7688,1.9203,1.9257,1.9271,1.9271,2.062,2.1384,2.1265,2.2335,2.2862,2.3358,2.3463,2.4011,0.0,0.0,0.0,-3.1763,-3.1801,-3.1696,-3.2561,-3.2688,-3.2775,-3.3169,-3.3837,-3.4162,-3.3785,-3.3974,-3.3969,-3.3359,-3.326,-3.3087,-3.2917,-3.2002,-3.1427,-3.1749,-3.0778,-2.9974,-2.9683,-2.9582,-2.8897,-2.7421,-2.7672,-2.6926,-2.4942,-2.5174,-2.4254,-2.1977,-2.217,-2.1854,-2.0596,-1.9854,-1.9372,-1.9379,-1.8452,-1.786,-1.786,-1.6754,-1.6089,-1.6089,-1.4764,-1.387,-1.3425,-1.2762,-1.2084,-1.142,-1.0978,-1.0085,-0.8967,-0.8967,-0.829,-0.7175,-0.7175,-0.65,-0.5383,-0.5383,-0.4485,-0.3589,-0.3589,-0.2692,-0.1796,-0.1796,-0.0909,0.0,0.0,0.0932,0.2121,0.2593,0.33,0.3772,0.3772,0.4711,0.5655,0.5655,0.6594,0.7537,0.7537,0.8477,0.9413,0.9413,1.0587,1.129,1.129,1.2461,1.3163,1.3177,1.4445,1.5222,1.5222,1.5331,1.5863,1.7293,1.7293,1.7788,1.9217,1.9359,1.9434,1.9434,2.0786,2.1593,2.1593,2.2795,2.3528,2.3528,2.3528,2.4269,-3.0717,0.0,0.0,0.0,0.0,0.0,-3.2211,-3.229,-3.2398,-3.2775,-3.3237,-3.3483,-3.3337,-3.3595,-3.3689,-3.3174,-3.2902,-3.2814,-3.3391,-3.2354,-3.1558,-3.1721,-3.0785,-3.0109,-2.967,-2.9218,-2.8427,-2.7341,-2.741,-2.687,-2.5312,-2.4879,-2.3851,-2.1977,-2.2029,-2.1507,-2.0596,-1.9623,-1.9088,-1.9208,-1.8072,-1.7704,-1.7717,-1.6482,-1.6089,-1.6089,-1.4764,-1.3658,-1.2762,-1.2534,-1.1871,-1.0978,-1.0755,-1.0085,-0.8967,-0.8967,-0.829,-0.7175,-0.7175,-0.65,-0.5383,-0.5383,-0.4485,-0.3589,-0.3589,-0.2692,-0.1796,-0.1796,-0.0909,0.0,0.0467,0.1175,0.2121,0.2593,0.33,0.4008,0.4239,0.5182,0.5655,0.5655,0.6594,0.7537,0.7537,0.8477,0.9413,0.9413,1.0587,1.131,1.1384,1.2565,1.331,1.3382,1.4606,1.5347,1.5347,1.5374,1.5907,1.7434,1.744,1.7964,1.9535,1.9576,1.959,1.959,2.0844,2.1593,2.1593,2.2795,2.3528,2.3528,2.4628,2.5416,-3.0992,-3.1322,-3.1799,-3.2156,0.0,0.0,-3.2263,-3.2277,-3.2244,-3.2604,-3.2998,-3.3194,-3.3171,-3.3331,-3.3329,-3.3034,-3.2632,-3.2631,-3.3136,-3.2278,-3.1549,-3.1357,-3.0917,-3.0292,-2.9525,-2.9206,-2.865,-2.7088,-2.725,-2.6815,-2.5354,-2.4605,-2.355,-2.1977,-2.1977,-2.1413,-2.0483,-1.9499,-1.8939,-1.9044,-1.7912,-1.7555,-1.7555,-1.6338,-1.5931,-1.5931,-1.4601,-1.3507,-1.2411,-1.2411,-1.1789,-1.0751,-1.0751,-1.0085,-0.8967,-0.8967,-0.829,-0.7175,-0.7175,-0.65,-0.5383,-0.5383,-0.4485,-0.3589,-0.3589,-0.2692,-0.1798,-0.1803,-0.0914,0.0232,0.1175,0.1649,0.2121,0.3064,0.3535,0.4008,0.4476,0.5182,0.589,0.6128,0.6829,0.754,0.7775,0.8712,0.9413,0.9886,1.0617,1.1363,1.1412,1.2646,1.341,1.3467,1.471,1.5461,1.5461,1.5516,1.6053,1.7581,1.7581,1.8115,1.9657,1.9664,1.9664,1.9664,2.0865,2.1865,2.2435,2.3093,2.3569,2.3658,2.5294,2.5861,-3.1414,-3.1781,-3.2166,-3.257,-3.2394,0.0,-3.2613,-3.2402,-3.2193,-3.2604,-3.2963,-3.3126,-3.3105,-3.3116,-3.3051,-3.2906,-3.2582,-3.2375,-3.2541,-3.1969,-3.151,-3.1043,-3.1,-3.0455,-2.9064,-2.9327,-2.8704,-2.6881,-2.6965,-2.6453,-2.4871,-2.4332,-2.3417,-2.1941,-2.1968,-2.1353,-2.032,-1.9422,-1.8865,-1.8865,-1.7753,-1.7399,-1.7399,-1.6118,-1.5698,-1.5698,-1.4388,-1.331,-1.223,-1.223,-1.1686,-1.0743,-1.0743,-1.0074,-0.8967,-0.8967,-0.829,-0.7175,-0.7175,-0.65,-0.5383,-0.5383,-0.4485,-0.3589,-0.3589,-0.2692,-0.18,-0.1589,-0.092,0.0233,0.1646,0.1885,0.2121,0.3535,0.3772,0.4008,0.4711,0.5184,0.589,0.6594,0.7067,0.7775,0.8474,0.895,0.9659,1.0371,1.0907,1.1445,1.1457,1.2718,1.3506,1.352,1.4808,1.5586,1.5586,1.57,1.6244,1.7703,1.7709,1.8197,1.9657,1.9664,1.9664,1.9678,2.0923,2.245,2.3829,2.3658,2.3658,2.3829,2.5246,2.6063,-3.2331,-3.2423,-3.2588,-3.2991,-3.2611,0.0,-3.2613,-3.2192,-3.1867,-3.2535,-3.2741,-3.2736,-3.2724,-3.2951,-3.2888,-3.2251,-3.2267,-3.2375,-3.2541,-3.2248,-3.1695,-3.0986,-3.0979,-3.0355,-2.9026,-2.8983,-2.8495,-2.6846,-2.6382,-2.5708,-2.4426,-2.4568,-2.376,-2.1757,-2.1898,-2.1353,-2.032,-1.9307,-1.8686,-1.8693,-1.7586,-1.7236,-1.7243,-1.6074,-1.5698,-1.5698,-1.4388,-1.331,-1.223,-1.223,-1.165,-1.0649,-1.0649,-1.0028,-0.8967,-0.8967,-0.829,-0.7175,-0.7175,-0.65,-0.5383,-0.5383,-0.4485,-0.3589,-0.3589,-0.2692,-0.1576,-0.0686,-0.0231,0.0233,0.1646,0.1885,0.2121,0.3535,0.3772,0.4008,0.5184,0.5655,0.6128,0.7067,0.7302,0.7775,0.8474,0.8992,0.9739,1.0457,1.0997,1.1563,1.1637,1.2866,1.3629,1.3715,1.4969,1.5711,1.5711,1.5744,1.6244,1.7703,1.7709,1.8197,1.9657,1.9664,1.9712,1.9841,2.1182,2.2751,2.4023,2.3829,2.3845,2.4023,2.5426,2.6274,-3.2588,-3.2753,-3.2955,-3.3175,-3.2809,0.0,0.0,-3.214,-3.1782,-3.2535,-3.2689,-3.2617,-3.2607,-3.2753,-3.2626,-3.2044,-3.2047,-3.1978,-3.1987,-3.2009,-3.1587,-3.0536,-3.0671,-3.0287,-2.8629,-2.8729,-2.8384,-2.6846,-2.616,-2.5431,-2.4295,-2.4517,-2.3933,-2.2105,-2.1998,-2.1475,-2.0737,-1.9268,-1.8641,-1.8641,-1.7678,-1.7087,-1.7087,-1.5886,-1.5491,-1.5491,-1.4209,-1.3139,-1.2068,-1.2068,-1.1483,-1.0494,-1.0583,-0.9978,-0.8916,-0.895,-0.829,-0.7175,-0.7175,-0.65,-0.5383,-0.5383,-0.4485,-0.3589,-0.3589,-0.2708,-0.1593,-0.0229,0.0,0.0234,0.1648,0.1885,0.2121,0.3535,0.3772,0.4243,0.5419,0.5655,0.6128,0.7302,0.7567,0.7817,0.8763,0.9262,0.9777,1.1005,1.1331,1.1645,1.1686,1.2948,1.3729,1.3791,1.5021,1.5755,1.5755,1.5755,1.6244,1.7703,1.7709,1.8228,1.9766,1.9766,2.0072,2.0964,2.1785,2.2874,2.4186,2.4105,2.4121,2.421,2.5631,2.6458,-3.3065,-3.3321,-3.3578,-3.3578,-3.326,-3.2932,0.0,0.0,0.0,-3.2655,-3.2792,-3.2702,-3.2624,-3.2588,-3.2397,-3.1932,-3.1872,-3.17,-3.1189,-3.1481,-3.1401,-3.0001,-3.0349,-3.0014,-2.8143,-2.8294,-2.7916,-2.6697,-2.6074,-2.5346,-2.4153,-2.4254,-2.3688,-2.2451,-2.1883,-2.1586,-2.1154,-1.9477,-1.8641,-1.8641,-1.7601,-1.6978,-1.6978,-1.592,-1.5283,-1.5283,-1.4024,-1.2968,-1.1911,-1.1911,-1.1321,-1.0347,-1.0522,-0.9936,-0.8862,-0.894,-0.829,-0.7175,-0.7175,-0.65,-0.5383,-0.5383,-0.4485,-0.3589,-0.3372,-0.2501,-0.161,-0.0231,0.0,0.0236,0.1649,0.1885,0.2121,0.3535,0.3772,0.4243,0.5419,0.5655,0.6128,0.7315,0.7594,0.8106,0.9288,0.9553,1.0069,1.1339,1.1666,1.1731,1.1731,1.3006,1.3791,1.3791,1.5021,1.5755,1.5755,1.5755,1.6255,1.7739,1.7739,1.8291,1.9908,1.9942,2.076,2.2122,2.2159,2.299,2.4381,2.4381,2.4381,2.4381,2.5784,2.6616,-3.4894,-3.4788,-3.4825,-3.4825,-3.4288,-3.3748,-3.3748,0.0,-3.2672,-3.3117,0.0,-3.3025,-3.2674,0.0,0.0,-3.1597,-3.1713,-3.1606,-3.0851,-3.106,-3.0899,-2.9635,-2.9831,-2.9467,-2.781,-2.6929,-2.6464,-2.6016,-2.5884,-2.5195,-2.3708,-2.4082,-2.362,-2.2232,-2.1812,-2.1586,-2.1154,-1.9477,-1.8641,-1.8641,-1.7601,-1.6978,-1.6978,-1.592,-1.5283,-1.5283,-1.4024,-1.2968,-1.1911,-1.1911,-1.128,-1.0249,-1.0432,-0.9897,-0.8862,-0.894,-0.829,-0.7175,-0.7175,-0.65,-0.5383,-0.5383,-0.4485,-0.3369,-0.2262,-0.1826,-0.1613,-0.0232,0.0,0.0236,0.1649,0.1885,0.2121,0.3535,0.3772,0.4243,0.5419,0.5655,0.6139,0.737,0.7621,0.8106,0.9288,0.9631,1.0208,1.1431,1.1759,1.1825,1.1825,1.3056,1.3791,1.3791,1.5021,1.5755,1.5755,1.5755,1.6283,1.7862,1.788,1.8441,2.0064,2.0207,2.0783,2.2316,2.245,2.3275,2.4568,2.4568,2.4568,2.4576,2.5853,2.6616,-3.5244,-3.5027,-3.5027,-3.5027,-3.4451,-3.389,-3.389,-3.329,-3.2792,-3.3186,0.0,0.0,0.0,0.0,0.0,0.0,-3.1522,-3.1291,-3.0499,-3.0648,-3.0465,-2.9297,-2.9481,-2.9179,-2.7746,-2.709,-2.6533,-2.5697,-2.5876,-2.5261,-2.3617,-2.3809,-2.3484,-2.2432,-2.1828,-2.1421,-2.1406,-1.9639,-1.8641,-1.8641,-1.7601,-1.6768,-1.6558,-1.571,-1.5078,-1.4657,-1.4024,-1.2968,-1.1911,-1.1911,-1.1276,-1.0232,-1.0416,-0.9859,-0.8801,-0.8923,-0.829,-0.7175,-0.7175,-0.65,-0.5383,-0.4485,-0.4039,-0.3372,-0.2265,-0.1828,-0.1613,-0.0232,0.0,0.0236,0.1649,0.1885,0.2121,0.3535,0.3772,0.4243,0.5419,0.5675,0.6172,0.7384,0.7684,0.821,0.9418,0.9703,1.0244,1.1523,1.1813,1.1833,1.1833,1.3056,1.3791,1.3791,1.5021,1.5782,1.5853,1.5853,1.6401,1.8008,1.8835,1.9674,2.022,2.0383,2.0964,2.2472,2.2532,2.3336,2.4592,2.4592,2.4592,2.4592,2.5853,2.6616,-3.5907,-3.5687,-3.5687,-3.5687,-3.5028,-3.4368,-3.4368,-3.3674,-3.3083,-3.3374,-3.3426,0.0,0.0,0.0,-3.2299,-3.1533,0.0,-3.1071,-3.0284,-3.0343,-3.0076,-2.886,-2.8786,-2.8413,-2.7618,-2.7172,-2.6544,-2.5434,-2.5697,-2.5131,-2.3516,-2.3597,-2.3257,-2.2699,-2.1858,-2.1449,-2.1695,-1.9552,-1.8596,-1.8641,-1.7601,-1.6768,-1.6131,-1.5493,-1.4868,-1.4452,-1.3813,-1.2968,-1.1911,-1.1911,-1.1276,-1.0232,-1.02,-0.9615,-0.8756,-0.8916,-0.829,-0.7175,-0.6951,-0.6057,-0.4933,-0.4039,-0.3589,-0.3372,-0.2272,-0.1831,-0.1613,-0.0233,0.0,0.0236,0.1649,0.1885,0.2121,0.3535,0.3772,0.4243,0.5419,0.5692,0.6201,0.741,0.7733,0.8294,0.9527,0.9781,1.0283,1.1575,1.1833,1.1833,1.1833,1.3056,1.3791,1.3791,1.5047,1.5842,1.5923,1.5951,1.6518,1.8149,1.9554,2.0383,2.0383,2.0485,2.1054,2.2569,2.2569,2.3336,2.4592,2.4592,2.4592,2.4592,2.5853,2.6616,-3.7509,-3.7356,-3.7356,-3.7356,-3.6453,-3.5557,-3.5557,-3.4667,-3.3802,-3.382,-3.382,-3.3517,-3.274,-3.2588,-3.2299,-3.1533,-3.1395,0.0,0.0,-3.0144,-2.9658,-2.8255,-2.7525,-2.711,-2.7165,-2.671,-2.6073,-2.5351,-2.5434,-2.4866,-2.3294,-2.3516,-2.3257,-2.2699,-2.1723,-2.1318,-2.1695,-1.9442,-1.8492,-1.8641,-1.7601,-1.6768,-1.6131,-1.5493,-1.4868,-1.4452,-1.3813,-1.2968,-1.1911,-1.1911,-1.1276,-1.0232,-0.9763,-0.9175,-0.8756,-0.8916,-0.829,-0.7175,-0.6505,-0.5607,-0.4488,-0.3814,-0.3589,-0.3375,-0.2058,-0.184,-0.1616,-0.0235,0.0,0.0236,0.1649,0.1885,0.2121,0.3535,0.3772,0.4243,0.5419,0.5692,0.6212,0.7458,0.7763,0.8308,0.9597,0.9859,1.0348,1.1587,1.1833,1.1833,1.1833,1.3056,1.3791,1.3791,1.5114,1.5923,1.5923,1.6037,1.6647,1.8289,1.9692,2.0539,2.0539,2.0539,2.1054,2.2569,2.2569,2.3336,2.4592,2.4592,2.4592,2.4592,2.5853,2.6616,-3.8043,-3.7631,-3.7429,-3.7429,-3.6705,-3.5982,-3.5982,-3.5277,-3.4522,-3.4265,-3.4196,-3.3822,-3.279,-3.2588,-3.2299,-3.1533,-3.1395,-3.1071,0.0,-2.9197,-2.8375,-2.8067,-2.7662,-2.7276,-2.663,-2.6815,-2.6325,-2.5098,-2.5171,-2.4624,-2.3051,-2.3294,-2.2981,-2.2293,-2.1578,-2.1186,-2.1318,-1.9324,-1.8432,-1.8492,-1.7559,-1.6558,-1.55,-1.5283,-1.4868,-1.3819,-1.3602,-1.2968,-1.1911,-1.1911,-1.1276,-1.0232,-0.9763,-0.9175,-0.8756,-0.8468,-0.7849,-0.6951,-0.6057,-0.5157,-0.4488,-0.3814,-0.3604,-0.3401,-0.2062,-0.1847,-0.1627,-0.0235,0.0,0.0236,0.1649,0.1885,0.2121,0.3535,0.3772,0.4246,0.5458,0.5732,0.6258,0.7518,0.7826,0.836,0.9614,0.9859,1.0355,1.1587,1.1833,1.1833,1.1833,1.3056,1.3815,1.3886,1.5156,1.5994,1.6146,1.7034,1.7886,1.8436,1.9757,2.0539,2.0539,2.0539,2.1054,2.2569,2.2569,2.3336,2.4592,2.4592,2.4592,2.4592,2.5989,2.6801,-3.9207,-3.8632,-3.8291,-3.8291,-3.7445,-3.6603,-3.6603,-3.5783,-3.4898,-3.4642,-3.459,-3.4162,-3.3022,-3.2802,-3.2446,0.0,0.0,-3.1071,0.0,-2.873,-2.7717,-2.7913,-2.7581,-2.7139,-2.6518,-2.6694,-2.6204,-2.4833,-2.492,-2.4371,-2.2818,-2.3061,-2.2754,-2.2085,-2.137,-2.0984,-2.1124,-1.941,-1.8556,-1.841,-1.7739,-1.6551,-1.5283,-1.5283,-1.4657,-1.3602,-1.3602,-1.2968,-1.1911,-1.1911,-1.1276,-1.0232,-0.9547,-0.8957,-0.8756,-0.8243,-0.7398,-0.65,-0.5607,-0.4933,-0.4039,-0.3814,-0.3611,-0.3414,-0.2064,-0.185,-0.1633,-0.0235,0.0,0.0236,0.1649,0.1885,0.2121,0.3535,0.3779,0.4266,0.5478,0.5769,0.6303,0.7553,0.7853,0.8389,0.9614,0.9859,1.0355,1.1587,1.1833,1.1833,1.1833,1.3087,1.3877,1.3939,1.5259,1.6135,1.659,1.7946,1.8503,1.8764,1.9776,2.0539,2.0539,2.0539,2.1054,2.2569,2.2569,2.3336,2.4592,2.4657,2.4698,2.4698,2.6397,2.7038]}]]